<?xml version="1.0" encoding="UTF-8" standalone="no" ?>
<gpx xmlns="http://www.topografix.com/GPX/1/1" xmlns:xsi="http://www.w3.org/2001/XMLSchema-instance" xsi:schemaLocation="http://www.topografix.com/GPX/1/1 http://www.topografix.com/GPX/1/1/gpx.xsd" version="1.1" creator="VisuGPX - https://www.visugpx.com">
  <metadata>
    <name>64 - PEDESTRE - Mailh Massibé et Montagnon</name>
    <desc><![CDATA[Superbe journée et rando]]></desc>
  </metadata>
  <trk>
    <name><![CDATA[ACTIVE LOG]]></name>
    <trkseg>
      <trkpt lat="43.05884" lon="-0.46307">
        <ele>861.47876</ele>
        <time>2014-09-11T06:52:21Z</time>
      </trkpt>
      <trkpt lat="43.05884" lon="-0.46307">
        <ele>861.47876</ele>
        <time>2014-09-11T06:52:22Z</time>
      </trkpt>
      <trkpt lat="43.05883" lon="-0.46306">
        <ele>863.881836</ele>
        <time>2014-09-11T06:52:29Z</time>
      </trkpt>
      <trkpt lat="43.05882" lon="-0.46305">
        <ele>866.285156</ele>
        <time>2014-09-11T06:52:35Z</time>
      </trkpt>
      <trkpt lat="43.05881" lon="-0.46305">
        <ele>869.649902</ele>
        <time>2014-09-11T06:52:43Z</time>
      </trkpt>
      <trkpt lat="43.0588" lon="-0.46306">
        <ele>873.014404</ele>
        <time>2014-09-11T06:52:54Z</time>
      </trkpt>
      <trkpt lat="43.05876" lon="-0.46305">
        <ele>874.456299</ele>
        <time>2014-09-11T06:53:05Z</time>
      </trkpt>
      <trkpt lat="43.05864" lon="-0.46314">
        <ele>877.821045</ele>
        <time>2014-09-11T06:53:19Z</time>
      </trkpt>
      <trkpt lat="43.05857" lon="-0.46319">
        <ele>880.705078</ele>
        <time>2014-09-11T06:53:32Z</time>
      </trkpt>
      <trkpt lat="43.05845" lon="-0.46321">
        <ele>882.146973</ele>
        <time>2014-09-11T06:53:46Z</time>
      </trkpt>
      <trkpt lat="43.05829" lon="-0.46334">
        <ele>884.550293</ele>
        <time>2014-09-11T06:54:03Z</time>
      </trkpt>
      <trkpt lat="43.05808" lon="-0.46341">
        <ele>885.992188</ele>
        <time>2014-09-11T06:54:22Z</time>
      </trkpt>
      <trkpt lat="43.0579" lon="-0.46348">
        <ele>888.395508</ele>
        <time>2014-09-11T06:54:39Z</time>
      </trkpt>
      <trkpt lat="43.0578" lon="-0.46357">
        <ele>889.356689</ele>
        <time>2014-09-11T06:54:53Z</time>
      </trkpt>
      <trkpt lat="43.0576" lon="-0.46369">
        <ele>892.240967</ele>
        <time>2014-09-11T06:55:12Z</time>
      </trkpt>
      <trkpt lat="43.05738" lon="-0.46375">
        <ele>893.202148</ele>
        <time>2014-09-11T06:55:29Z</time>
      </trkpt>
      <trkpt lat="43.0572" lon="-0.46378">
        <ele>893.682861</ele>
        <time>2014-09-11T06:55:45Z</time>
      </trkpt>
      <trkpt lat="43.05702" lon="-0.46381">
        <ele>896.086182</ele>
        <time>2014-09-11T06:56:00Z</time>
      </trkpt>
      <trkpt lat="43.05677" lon="-0.46391">
        <ele>898.489258</ele>
        <time>2014-09-11T06:56:20Z</time>
      </trkpt>
      <trkpt lat="43.05657" lon="-0.46402">
        <ele>899.931396</ele>
        <time>2014-09-11T06:56:37Z</time>
      </trkpt>
      <trkpt lat="43.05636" lon="-0.46415">
        <ele>901.854004</ele>
        <time>2014-09-11T06:56:56Z</time>
      </trkpt>
      <trkpt lat="43.05613" lon="-0.4644">
        <ele>904.257324</ele>
        <time>2014-09-11T06:57:19Z</time>
      </trkpt>
      <trkpt lat="43.05593" lon="-0.46456">
        <ele>905.218506</ele>
        <time>2014-09-11T06:57:36Z</time>
      </trkpt>
      <trkpt lat="43.05575" lon="-0.4647">
        <ele>906.179688</ele>
        <time>2014-09-11T06:57:52Z</time>
      </trkpt>
      <trkpt lat="43.05551" lon="-0.46479">
        <ele>908.102783</ele>
        <time>2014-09-11T06:58:11Z</time>
      </trkpt>
      <trkpt lat="43.05524" lon="-0.46485">
        <ele>908.583252</ele>
        <time>2014-09-11T06:58:31Z</time>
      </trkpt>
      <trkpt lat="43.05495" lon="-0.46494">
        <ele>911.467285</ele>
        <time>2014-09-11T06:58:54Z</time>
      </trkpt>
      <trkpt lat="43.05486" lon="-0.46499">
        <ele>912.428467</ele>
        <time>2014-09-11T06:59:10Z</time>
      </trkpt>
      <trkpt lat="43.05469" lon="-0.4651">
        <ele>913.389893</ele>
        <time>2014-09-11T06:59:25Z</time>
      </trkpt>
      <trkpt lat="43.05453" lon="-0.46521">
        <ele>915.793213</ele>
        <time>2014-09-11T06:59:40Z</time>
      </trkpt>
      <trkpt lat="43.05438" lon="-0.46535">
        <ele>916.754395</ele>
        <time>2014-09-11T06:59:53Z</time>
      </trkpt>
      <trkpt lat="43.05436" lon="-0.46537">
        <ele>916.754395</ele>
        <time>2014-09-11T06:59:56Z</time>
      </trkpt>
      <trkpt lat="43.05413" lon="-0.46549">
        <ele>918.677002</ele>
        <time>2014-09-11T07:00:14Z</time>
      </trkpt>
      <trkpt lat="43.05386" lon="-0.46551">
        <ele>919.638428</ele>
        <time>2014-09-11T07:00:34Z</time>
      </trkpt>
      <trkpt lat="43.05354" lon="-0.46545">
        <ele>920.599609</ele>
        <time>2014-09-11T07:00:58Z</time>
      </trkpt>
      <trkpt lat="43.05333" lon="-0.4654">
        <ele>922.522217</ele>
        <time>2014-09-11T07:01:14Z</time>
      </trkpt>
      <trkpt lat="43.05308" lon="-0.46537">
        <ele>923.964111</ele>
        <time>2014-09-11T07:01:35Z</time>
      </trkpt>
      <trkpt lat="43.05285" lon="-0.46531">
        <ele>925.40625</ele>
        <time>2014-09-11T07:01:52Z</time>
      </trkpt>
      <trkpt lat="43.05259" lon="-0.46528">
        <ele>928.770996</ele>
        <time>2014-09-11T07:02:12Z</time>
      </trkpt>
      <trkpt lat="43.0524" lon="-0.46528">
        <ele>930.212891</ele>
        <time>2014-09-11T07:02:30Z</time>
      </trkpt>
      <trkpt lat="43.05223" lon="-0.46524">
        <ele>932.616211</ele>
        <time>2014-09-11T07:02:46Z</time>
      </trkpt>
      <trkpt lat="43.05207" lon="-0.46518">
        <ele>935.019531</ele>
        <time>2014-09-11T07:03:01Z</time>
      </trkpt>
      <trkpt lat="43.05193" lon="-0.46515">
        <ele>937.422607</ele>
        <time>2014-09-11T07:03:15Z</time>
      </trkpt>
      <trkpt lat="43.05179" lon="-0.4651">
        <ele>939.345215</ele>
        <time>2014-09-11T07:03:29Z</time>
      </trkpt>
      <trkpt lat="43.05167" lon="-0.46504">
        <ele>941.748779</ele>
        <time>2014-09-11T07:03:43Z</time>
      </trkpt>
      <trkpt lat="43.05157" lon="-0.465">
        <ele>945.113281</ele>
        <time>2014-09-11T07:03:55Z</time>
      </trkpt>
      <trkpt lat="43.05145" lon="-0.46494">
        <ele>947.035889</ele>
        <time>2014-09-11T07:04:13Z</time>
      </trkpt>
      <trkpt lat="43.05138" lon="-0.46494">
        <ele>949.919922</ele>
        <time>2014-09-11T07:04:25Z</time>
      </trkpt>
      <trkpt lat="43.0513" lon="-0.46494">
        <ele>951.842529</ele>
        <time>2014-09-11T07:04:36Z</time>
      </trkpt>
      <trkpt lat="43.05123" lon="-0.46491">
        <ele>955.207031</ele>
        <time>2014-09-11T07:04:45Z</time>
      </trkpt>
      <trkpt lat="43.05108" lon="-0.46486">
        <ele>957.610596</ele>
        <time>2014-09-11T07:05:05Z</time>
      </trkpt>
      <trkpt lat="43.05105" lon="-0.46484">
        <ele>960.013672</ele>
        <time>2014-09-11T07:05:13Z</time>
      </trkpt>
      <trkpt lat="43.05095" lon="-0.46485">
        <ele>962.897705</ele>
        <time>2014-09-11T07:05:25Z</time>
      </trkpt>
      <trkpt lat="43.05088" lon="-0.46481">
        <ele>966.262207</ele>
        <time>2014-09-11T07:05:38Z</time>
      </trkpt>
      <trkpt lat="43.05084" lon="-0.4648">
        <ele>967.704102</ele>
        <time>2014-09-11T07:05:43Z</time>
      </trkpt>
      <trkpt lat="43.05079" lon="-0.46471">
        <ele>970.107422</ele>
        <time>2014-09-11T07:05:55Z</time>
      </trkpt>
      <trkpt lat="43.05074" lon="-0.46464">
        <ele>971.549316</ele>
        <time>2014-09-11T07:06:07Z</time>
      </trkpt>
      <trkpt lat="43.05072" lon="-0.46463">
        <ele>972.991699</ele>
        <time>2014-09-11T07:06:10Z</time>
      </trkpt>
      <trkpt lat="43.05067" lon="-0.46455">
        <ele>976.356201</ele>
        <time>2014-09-11T07:06:22Z</time>
      </trkpt>
      <trkpt lat="43.05056" lon="-0.46447">
        <ele>978.759521</ele>
        <time>2014-09-11T07:06:36Z</time>
      </trkpt>
      <trkpt lat="43.05048" lon="-0.46445">
        <ele>982.124023</ele>
        <time>2014-09-11T07:06:47Z</time>
      </trkpt>
      <trkpt lat="43.05038" lon="-0.46454">
        <ele>983.565918</ele>
        <time>2014-09-11T07:07:02Z</time>
      </trkpt>
      <trkpt lat="43.05034" lon="-0.46471">
        <ele>985.969238</ele>
        <time>2014-09-11T07:07:17Z</time>
      </trkpt>
      <trkpt lat="43.05029" lon="-0.46492">
        <ele>987.891846</ele>
        <time>2014-09-11T07:07:32Z</time>
      </trkpt>
      <trkpt lat="43.05029" lon="-0.46494">
        <ele>987.891846</ele>
        <time>2014-09-11T07:07:34Z</time>
      </trkpt>
      <trkpt lat="43.05025" lon="-0.46513">
        <ele>991.256592</ele>
        <time>2014-09-11T07:07:49Z</time>
      </trkpt>
      <trkpt lat="43.05022" lon="-0.46527">
        <ele>993.659912</ele>
        <time>2014-09-11T07:08:01Z</time>
      </trkpt>
      <trkpt lat="43.05017" lon="-0.46541">
        <ele>994.621094</ele>
        <time>2014-09-11T07:08:14Z</time>
      </trkpt>
      <trkpt lat="43.0501" lon="-0.46552">
        <ele>997.98584</ele>
        <time>2014-09-11T07:08:27Z</time>
      </trkpt>
      <trkpt lat="43.05006" lon="-0.46565">
        <ele>1000.38916</ele>
        <time>2014-09-11T07:08:38Z</time>
      </trkpt>
      <trkpt lat="43.04994" lon="-0.4658">
        <ele>1001.831055</ele>
        <time>2014-09-11T07:08:54Z</time>
      </trkpt>
      <trkpt lat="43.04992" lon="-0.46583">
        <ele>1002.792236</ele>
        <time>2014-09-11T07:08:58Z</time>
      </trkpt>
      <trkpt lat="43.04987" lon="-0.46598">
        <ele>1005.676514</ele>
        <time>2014-09-11T07:09:14Z</time>
      </trkpt>
      <trkpt lat="43.04986" lon="-0.4661">
        <ele>1006.637695</ele>
        <time>2014-09-11T07:09:25Z</time>
      </trkpt>
      <trkpt lat="43.04983" lon="-0.46622">
        <ele>1008.079834</ele>
        <time>2014-09-11T07:09:38Z</time>
      </trkpt>
      <trkpt lat="43.04985" lon="-0.46637">
        <ele>1010.963623</ele>
        <time>2014-09-11T07:09:51Z</time>
      </trkpt>
      <trkpt lat="43.04986" lon="-0.46655">
        <ele>1013.847412</ele>
        <time>2014-09-11T07:10:06Z</time>
      </trkpt>
      <trkpt lat="43.04979" lon="-0.46669">
        <ele>1015.770264</ele>
        <time>2014-09-11T07:10:19Z</time>
      </trkpt>
      <trkpt lat="43.04972" lon="-0.4668">
        <ele>1017.212158</ele>
        <time>2014-09-11T07:10:31Z</time>
      </trkpt>
      <trkpt lat="43.0497" lon="-0.4668">
        <ele>1016.731445</ele>
        <time>2014-09-11T07:10:32Z</time>
      </trkpt>
      <trkpt lat="43.04953" lon="-0.46685">
        <ele>1018.654053</ele>
        <time>2014-09-11T07:10:48Z</time>
      </trkpt>
      <trkpt lat="43.04936" lon="-0.46691">
        <ele>1020.576904</ele>
        <time>2014-09-11T07:11:03Z</time>
      </trkpt>
      <trkpt lat="43.04923" lon="-0.46699">
        <ele>1021.538086</ele>
        <time>2014-09-11T07:11:17Z</time>
      </trkpt>
      <trkpt lat="43.04911" lon="-0.46707">
        <ele>1022.499512</ele>
        <time>2014-09-11T07:11:31Z</time>
      </trkpt>
      <trkpt lat="43.04893" lon="-0.46722">
        <ele>1024.422119</ele>
        <time>2014-09-11T07:11:51Z</time>
      </trkpt>
      <trkpt lat="43.04891" lon="-0.46725">
        <ele>1024.422119</ele>
        <time>2014-09-11T07:11:54Z</time>
      </trkpt>
      <trkpt lat="43.04875" lon="-0.46742">
        <ele>1026.825439</ele>
        <time>2014-09-11T07:12:12Z</time>
      </trkpt>
      <trkpt lat="43.04865" lon="-0.46756">
        <ele>1028.748047</ele>
        <time>2014-09-11T07:12:26Z</time>
      </trkpt>
      <trkpt lat="43.04863" lon="-0.46756">
        <ele>1029.228516</ele>
        <time>2014-09-11T07:12:28Z</time>
      </trkpt>
      <trkpt lat="43.0485" lon="-0.46755">
        <ele>1030.189941</ele>
        <time>2014-09-11T07:12:36Z</time>
      </trkpt>
      <trkpt lat="43.04848" lon="-0.46756">
        <ele>1031.631836</ele>
        <time>2014-09-11T07:12:39Z</time>
      </trkpt>
      <trkpt lat="43.04832" lon="-0.46771">
        <ele>1033.554443</ele>
        <time>2014-09-11T07:12:56Z</time>
      </trkpt>
      <trkpt lat="43.04817" lon="-0.46781">
        <ele>1034.996582</ele>
        <time>2014-09-11T07:13:12Z</time>
      </trkpt>
      <trkpt lat="43.04807" lon="-0.46782">
        <ele>1034.996582</ele>
        <time>2014-09-11T07:13:23Z</time>
      </trkpt>
      <trkpt lat="43.04792" lon="-0.4678">
        <ele>1036.438721</ele>
        <time>2014-09-11T07:13:35Z</time>
      </trkpt>
      <trkpt lat="43.04777" lon="-0.46781">
        <ele>1039.803223</ele>
        <time>2014-09-11T07:13:49Z</time>
      </trkpt>
      <trkpt lat="43.04762" lon="-0.46778">
        <ele>1042.687256</ele>
        <time>2014-09-11T07:14:04Z</time>
      </trkpt>
      <trkpt lat="43.04754" lon="-0.46777">
        <ele>1044.609619</ele>
        <time>2014-09-11T07:14:17Z</time>
      </trkpt>
      <trkpt lat="43.04748" lon="-0.46775">
        <ele>1046.532471</ele>
        <time>2014-09-11T07:14:29Z</time>
      </trkpt>
      <trkpt lat="43.04739" lon="-0.46774">
        <ele>1048.935547</ele>
        <time>2014-09-11T07:14:42Z</time>
      </trkpt>
      <trkpt lat="43.04732" lon="-0.4676">
        <ele>1050.377686</ele>
        <time>2014-09-11T07:14:55Z</time>
      </trkpt>
      <trkpt lat="43.04718" lon="-0.46756">
        <ele>1053.742432</ele>
        <time>2014-09-11T07:15:12Z</time>
      </trkpt>
      <trkpt lat="43.04707" lon="-0.46753">
        <ele>1056.626221</ele>
        <time>2014-09-11T07:15:26Z</time>
      </trkpt>
      <trkpt lat="43.04699" lon="-0.46747">
        <ele>1058.068359</ele>
        <time>2014-09-11T07:15:36Z</time>
      </trkpt>
      <trkpt lat="43.0469" lon="-0.46744">
        <ele>1060.471436</ele>
        <time>2014-09-11T07:15:50Z</time>
      </trkpt>
      <trkpt lat="43.04682" lon="-0.46744">
        <ele>1061.432861</ele>
        <time>2014-09-11T07:16:05Z</time>
      </trkpt>
      <trkpt lat="43.04669" lon="-0.46742">
        <ele>1065.278076</ele>
        <time>2014-09-11T07:16:21Z</time>
      </trkpt>
      <trkpt lat="43.04667" lon="-0.46742">
        <ele>1065.278076</ele>
        <time>2014-09-11T07:16:22Z</time>
      </trkpt>
      <trkpt lat="43.04651" lon="-0.46738">
        <ele>1067.200684</ele>
        <time>2014-09-11T07:16:38Z</time>
      </trkpt>
      <trkpt lat="43.04634" lon="-0.46751">
        <ele>1068.642822</ele>
        <time>2014-09-11T07:16:57Z</time>
      </trkpt>
      <trkpt lat="43.04625" lon="-0.46757">
        <ele>1069.123535</ele>
        <time>2014-09-11T07:17:06Z</time>
      </trkpt>
      <trkpt lat="43.04611" lon="-0.46771">
        <ele>1070.084717</ele>
        <time>2014-09-11T07:17:21Z</time>
      </trkpt>
      <trkpt lat="43.046" lon="-0.46778">
        <ele>1071.526611</ele>
        <time>2014-09-11T07:17:34Z</time>
      </trkpt>
      <trkpt lat="43.04586" lon="-0.46779">
        <ele>1073.449463</ele>
        <time>2014-09-11T07:17:53Z</time>
      </trkpt>
      <trkpt lat="43.04578" lon="-0.46779">
        <ele>1076.333252</ele>
        <time>2014-09-11T07:18:07Z</time>
      </trkpt>
      <trkpt lat="43.04567" lon="-0.46783">
        <ele>1079.697754</ele>
        <time>2014-09-11T07:18:23Z</time>
      </trkpt>
      <trkpt lat="43.04559" lon="-0.46785">
        <ele>1080.178467</ele>
        <time>2014-09-11T07:18:39Z</time>
      </trkpt>
      <trkpt lat="43.04555" lon="-0.46788">
        <ele>1081.139893</ele>
        <time>2014-09-11T07:18:52Z</time>
      </trkpt>
      <trkpt lat="43.04557" lon="-0.46791">
        <ele>1080.65918</ele>
        <time>2014-09-11T07:19:03Z</time>
      </trkpt>
      <trkpt lat="43.04557" lon="-0.46793">
        <ele>1080.178467</ele>
        <time>2014-09-11T07:19:51Z</time>
      </trkpt>
      <trkpt lat="43.04547" lon="-0.46803">
        <ele>1081.620361</ele>
        <time>2014-09-11T07:22:16Z</time>
      </trkpt>
      <trkpt lat="43.04544" lon="-0.46811">
        <ele>1083.062256</ele>
        <time>2014-09-11T07:22:32Z</time>
      </trkpt>
      <trkpt lat="43.0454" lon="-0.4684">
        <ele>1084.504639</ele>
        <time>2014-09-11T07:22:52Z</time>
      </trkpt>
      <trkpt lat="43.04538" lon="-0.46869">
        <ele>1085.46582</ele>
        <time>2014-09-11T07:23:11Z</time>
      </trkpt>
      <trkpt lat="43.04534" lon="-0.46895">
        <ele>1086.907715</ele>
        <time>2014-09-11T07:23:28Z</time>
      </trkpt>
      <trkpt lat="43.04522" lon="-0.46913">
        <ele>1087.388428</ele>
        <time>2014-09-11T07:23:45Z</time>
      </trkpt>
      <trkpt lat="43.04518" lon="-0.46917">
        <ele>1087.869141</ele>
        <time>2014-09-11T07:23:49Z</time>
      </trkpt>
      <trkpt lat="43.04506" lon="-0.46936">
        <ele>1088.349854</ele>
        <time>2014-09-11T07:24:05Z</time>
      </trkpt>
      <trkpt lat="43.04498" lon="-0.46965">
        <ele>1091.233643</ele>
        <time>2014-09-11T07:24:25Z</time>
      </trkpt>
      <trkpt lat="43.04498" lon="-0.46991">
        <ele>1092.675781</ele>
        <time>2014-09-11T07:24:41Z</time>
      </trkpt>
      <trkpt lat="43.04494" lon="-0.47016">
        <ele>1093.636963</ele>
        <time>2014-09-11T07:24:56Z</time>
      </trkpt>
      <trkpt lat="43.04483" lon="-0.47043">
        <ele>1095.55957</ele>
        <time>2014-09-11T07:25:15Z</time>
      </trkpt>
      <trkpt lat="43.0447" lon="-0.47073">
        <ele>1097.482178</ele>
        <time>2014-09-11T07:25:37Z</time>
      </trkpt>
      <trkpt lat="43.04466" lon="-0.471">
        <ele>1098.443359</ele>
        <time>2014-09-11T07:25:54Z</time>
      </trkpt>
      <trkpt lat="43.04471" lon="-0.47132">
        <ele>1100.846924</ele>
        <time>2014-09-11T07:26:14Z</time>
      </trkpt>
      <trkpt lat="43.04483" lon="-0.47161">
        <ele>1101.327637</ele>
        <time>2014-09-11T07:26:33Z</time>
      </trkpt>
      <trkpt lat="43.04489" lon="-0.47167">
        <ele>1101.80835</ele>
        <time>2014-09-11T07:26:40Z</time>
      </trkpt>
      <trkpt lat="43.04502" lon="-0.47184">
        <ele>1103.250244</ele>
        <time>2014-09-11T07:26:56Z</time>
      </trkpt>
      <trkpt lat="43.04505" lon="-0.47203">
        <ele>1104.21167</ele>
        <time>2014-09-11T07:27:07Z</time>
      </trkpt>
      <trkpt lat="43.04504" lon="-0.47205">
        <ele>1105.172852</ele>
        <time>2014-09-11T07:27:09Z</time>
      </trkpt>
      <trkpt lat="43.04498" lon="-0.47228">
        <ele>1107.576172</ele>
        <time>2014-09-11T07:27:25Z</time>
      </trkpt>
      <trkpt lat="43.04484" lon="-0.47238">
        <ele>1108.056885</ele>
        <time>2014-09-11T07:27:38Z</time>
      </trkpt>
      <trkpt lat="43.04466" lon="-0.47251">
        <ele>1109.979248</ele>
        <time>2014-09-11T07:27:56Z</time>
      </trkpt>
      <trkpt lat="43.04456" lon="-0.47272">
        <ele>1111.9021</ele>
        <time>2014-09-11T07:28:12Z</time>
      </trkpt>
      <trkpt lat="43.04443" lon="-0.47291">
        <ele>1112.863281</ele>
        <time>2014-09-11T07:28:28Z</time>
      </trkpt>
      <trkpt lat="43.04434" lon="-0.47314">
        <ele>1114.305176</ele>
        <time>2014-09-11T07:28:46Z</time>
      </trkpt>
      <trkpt lat="43.04427" lon="-0.47317">
        <ele>1113.343994</ele>
        <time>2014-09-11T07:28:53Z</time>
      </trkpt>
      <trkpt lat="43.04413" lon="-0.47326">
        <ele>1112.863281</ele>
        <time>2014-09-11T07:29:10Z</time>
      </trkpt>
      <trkpt lat="43.04401" lon="-0.47339">
        <ele>1115.747314</ele>
        <time>2014-09-11T07:29:28Z</time>
      </trkpt>
      <trkpt lat="43.04394" lon="-0.47348">
        <ele>1118.631348</ele>
        <time>2014-09-11T07:29:41Z</time>
      </trkpt>
      <trkpt lat="43.04384" lon="-0.47359">
        <ele>1120.553955</ele>
        <time>2014-09-11T07:29:58Z</time>
      </trkpt>
      <trkpt lat="43.04383" lon="-0.47364">
        <ele>1121.99585</ele>
        <time>2014-09-11T07:30:02Z</time>
      </trkpt>
      <trkpt lat="43.04379" lon="-0.47377">
        <ele>1124.879883</ele>
        <time>2014-09-11T07:30:15Z</time>
      </trkpt>
      <trkpt lat="43.0438" lon="-0.47387">
        <ele>1126.80249</ele>
        <time>2014-09-11T07:30:31Z</time>
      </trkpt>
      <trkpt lat="43.04385" lon="-0.47398">
        <ele>1129.686279</ele>
        <time>2014-09-11T07:30:44Z</time>
      </trkpt>
      <trkpt lat="43.04383" lon="-0.4741">
        <ele>1131.128418</ele>
        <time>2014-09-11T07:30:58Z</time>
      </trkpt>
      <trkpt lat="43.04377" lon="-0.47418">
        <ele>1133.531738</ele>
        <time>2014-09-11T07:31:16Z</time>
      </trkpt>
      <trkpt lat="43.04367" lon="-0.47423">
        <ele>1134.973877</ele>
        <time>2014-09-11T07:31:29Z</time>
      </trkpt>
      <trkpt lat="43.04367" lon="-0.4744">
        <ele>1136.415771</ele>
        <time>2014-09-11T07:31:44Z</time>
      </trkpt>
      <trkpt lat="43.04363" lon="-0.4745">
        <ele>1139.299561</ele>
        <time>2014-09-11T07:32:03Z</time>
      </trkpt>
      <trkpt lat="43.04365" lon="-0.47463">
        <ele>1142.183594</ele>
        <time>2014-09-11T07:32:17Z</time>
      </trkpt>
      <trkpt lat="43.04368" lon="-0.47473">
        <ele>1144.106201</ele>
        <time>2014-09-11T07:32:33Z</time>
      </trkpt>
      <trkpt lat="43.04373" lon="-0.4748">
        <ele>1146.98999</ele>
        <time>2014-09-11T07:32:47Z</time>
      </trkpt>
      <trkpt lat="43.04377" lon="-0.47489">
        <ele>1149.874268</ele>
        <time>2014-09-11T07:33:03Z</time>
      </trkpt>
      <trkpt lat="43.04382" lon="-0.47494">
        <ele>1151.796875</ele>
        <time>2014-09-11T07:33:21Z</time>
      </trkpt>
      <trkpt lat="43.04383" lon="-0.47497">
        <ele>1153.23877</ele>
        <time>2014-09-11T07:33:27Z</time>
      </trkpt>
      <trkpt lat="43.04384" lon="-0.47505">
        <ele>1155.64209</ele>
        <time>2014-09-11T07:33:43Z</time>
      </trkpt>
      <trkpt lat="43.04384" lon="-0.47511">
        <ele>1159.006592</ele>
        <time>2014-09-11T07:34:02Z</time>
      </trkpt>
      <trkpt lat="43.04381" lon="-0.47515">
        <ele>1161.409912</ele>
        <time>2014-09-11T07:34:18Z</time>
      </trkpt>
      <trkpt lat="43.04376" lon="-0.47516">
        <ele>1162.851807</ele>
        <time>2014-09-11T07:34:33Z</time>
      </trkpt>
      <trkpt lat="43.04379" lon="-0.47524">
        <ele>1165.736084</ele>
        <time>2014-09-11T07:34:45Z</time>
      </trkpt>
      <trkpt lat="43.04379" lon="-0.47528">
        <ele>1166.216553</ele>
        <time>2014-09-11T07:34:50Z</time>
      </trkpt>
      <trkpt lat="43.04382" lon="-0.47545">
        <ele>1169.100586</ele>
        <time>2014-09-11T07:35:07Z</time>
      </trkpt>
      <trkpt lat="43.04381" lon="-0.47557">
        <ele>1171.984375</ele>
        <time>2014-09-11T07:35:19Z</time>
      </trkpt>
      <trkpt lat="43.04382" lon="-0.47573">
        <ele>1173.906982</ele>
        <time>2014-09-11T07:35:35Z</time>
      </trkpt>
      <trkpt lat="43.04382" lon="-0.47596">
        <ele>1176.310303</ele>
        <time>2014-09-11T07:35:53Z</time>
      </trkpt>
      <trkpt lat="43.0439" lon="-0.47612">
        <ele>1179.674805</ele>
        <time>2014-09-11T07:36:10Z</time>
      </trkpt>
      <trkpt lat="43.04395" lon="-0.47626">
        <ele>1183.039551</ele>
        <time>2014-09-11T07:36:25Z</time>
      </trkpt>
      <trkpt lat="43.04397" lon="-0.47648">
        <ele>1184.962402</ele>
        <time>2014-09-11T07:36:45Z</time>
      </trkpt>
      <trkpt lat="43.04393" lon="-0.47662">
        <ele>1186.884766</ele>
        <time>2014-09-11T07:36:57Z</time>
      </trkpt>
      <trkpt lat="43.04394" lon="-0.47685">
        <ele>1188.326904</ele>
        <time>2014-09-11T07:37:16Z</time>
      </trkpt>
      <trkpt lat="43.04398" lon="-0.4771">
        <ele>1189.768799</ele>
        <time>2014-09-11T07:37:36Z</time>
      </trkpt>
      <trkpt lat="43.04401" lon="-0.47733">
        <ele>1193.133301</ele>
        <time>2014-09-11T07:37:55Z</time>
      </trkpt>
      <trkpt lat="43.04405" lon="-0.47755">
        <ele>1196.017578</ele>
        <time>2014-09-11T07:38:17Z</time>
      </trkpt>
      <trkpt lat="43.04407" lon="-0.4777">
        <ele>1199.38208</ele>
        <time>2014-09-11T07:38:32Z</time>
      </trkpt>
      <trkpt lat="43.04409" lon="-0.47787">
        <ele>1202.746582</ele>
        <time>2014-09-11T07:38:50Z</time>
      </trkpt>
      <trkpt lat="43.04411" lon="-0.47802">
        <ele>1205.630615</ele>
        <time>2014-09-11T07:39:06Z</time>
      </trkpt>
      <trkpt lat="43.04411" lon="-0.4782">
        <ele>1207.07251</ele>
        <time>2014-09-11T07:39:22Z</time>
      </trkpt>
      <trkpt lat="43.04414" lon="-0.47836">
        <ele>1208.514404</ele>
        <time>2014-09-11T07:39:38Z</time>
      </trkpt>
      <trkpt lat="43.04415" lon="-0.47855">
        <ele>1209.956299</ele>
        <time>2014-09-11T07:39:54Z</time>
      </trkpt>
      <trkpt lat="43.04419" lon="-0.47878">
        <ele>1210.917725</ele>
        <time>2014-09-11T07:40:11Z</time>
      </trkpt>
      <trkpt lat="43.04422" lon="-0.47891">
        <ele>1213.321289</ele>
        <time>2014-09-11T07:40:26Z</time>
      </trkpt>
      <trkpt lat="43.04429" lon="-0.47907">
        <ele>1214.763184</ele>
        <time>2014-09-11T07:40:41Z</time>
      </trkpt>
      <trkpt lat="43.0443" lon="-0.47925">
        <ele>1217.646973</ele>
        <time>2014-09-11T07:40:59Z</time>
      </trkpt>
      <trkpt lat="43.04435" lon="-0.47942">
        <ele>1218.608398</ele>
        <time>2014-09-11T07:41:13Z</time>
      </trkpt>
      <trkpt lat="43.04445" lon="-0.4796">
        <ele>1220.531006</ele>
        <time>2014-09-11T07:41:28Z</time>
      </trkpt>
      <trkpt lat="43.04447" lon="-0.47986">
        <ele>1221.011719</ele>
        <time>2014-09-11T07:41:46Z</time>
      </trkpt>
      <trkpt lat="43.04448" lon="-0.48008">
        <ele>1222.934326</ele>
        <time>2014-09-11T07:42:03Z</time>
      </trkpt>
      <trkpt lat="43.04443" lon="-0.48032">
        <ele>1224.856934</ele>
        <time>2014-09-11T07:42:23Z</time>
      </trkpt>
      <trkpt lat="43.04435" lon="-0.48051">
        <ele>1227.260254</ele>
        <time>2014-09-11T07:42:41Z</time>
      </trkpt>
      <trkpt lat="43.04427" lon="-0.48065">
        <ele>1230.144287</ele>
        <time>2014-09-11T07:42:57Z</time>
      </trkpt>
      <trkpt lat="43.04416" lon="-0.48077">
        <ele>1232.066895</ele>
        <time>2014-09-11T07:43:14Z</time>
      </trkpt>
      <trkpt lat="43.0441" lon="-0.48091">
        <ele>1234.950928</ele>
        <time>2014-09-11T07:43:30Z</time>
      </trkpt>
      <trkpt lat="43.04406" lon="-0.48103">
        <ele>1236.873291</ele>
        <time>2014-09-11T07:43:44Z</time>
      </trkpt>
      <trkpt lat="43.04402" lon="-0.48113">
        <ele>1238.796143</ele>
        <time>2014-09-11T07:43:56Z</time>
      </trkpt>
      <trkpt lat="43.04397" lon="-0.4812">
        <ele>1241.199219</ele>
        <time>2014-09-11T07:44:08Z</time>
      </trkpt>
      <trkpt lat="43.04396" lon="-0.48132">
        <ele>1242.160645</ele>
        <time>2014-09-11T07:44:21Z</time>
      </trkpt>
      <trkpt lat="43.04398" lon="-0.48136">
        <ele>1243.121826</ele>
        <time>2014-09-11T07:44:24Z</time>
      </trkpt>
      <trkpt lat="43.04402" lon="-0.4814">
        <ele>1243.121826</ele>
        <time>2014-09-11T07:44:28Z</time>
      </trkpt>
      <trkpt lat="43.04422" lon="-0.4813">
        <ele>1244.563965</ele>
        <time>2014-09-11T07:44:48Z</time>
      </trkpt>
      <trkpt lat="43.04436" lon="-0.48118">
        <ele>1248.40918</ele>
        <time>2014-09-11T07:45:05Z</time>
      </trkpt>
      <trkpt lat="43.0445" lon="-0.48107">
        <ele>1251.773926</ele>
        <time>2014-09-11T07:45:22Z</time>
      </trkpt>
      <trkpt lat="43.04468" lon="-0.48094">
        <ele>1253.696533</ele>
        <time>2014-09-11T07:45:42Z</time>
      </trkpt>
      <trkpt lat="43.0447" lon="-0.48092">
        <ele>1254.177246</ele>
        <time>2014-09-11T07:45:45Z</time>
      </trkpt>
      <trkpt lat="43.04491" lon="-0.48086">
        <ele>1253.696533</ele>
        <time>2014-09-11T07:46:06Z</time>
      </trkpt>
      <trkpt lat="43.04501" lon="-0.48085">
        <ele>1255.619141</ele>
        <time>2014-09-11T07:46:22Z</time>
      </trkpt>
      <trkpt lat="43.04499" lon="-0.48101">
        <ele>1257.541748</ele>
        <time>2014-09-11T07:46:38Z</time>
      </trkpt>
      <trkpt lat="43.04495" lon="-0.48113">
        <ele>1259.944824</ele>
        <time>2014-09-11T07:46:54Z</time>
      </trkpt>
      <trkpt lat="43.04487" lon="-0.48128">
        <ele>1261.86792</ele>
        <time>2014-09-11T07:47:11Z</time>
      </trkpt>
      <trkpt lat="43.04481" lon="-0.48139">
        <ele>1263.309814</ele>
        <time>2014-09-11T07:47:25Z</time>
      </trkpt>
      <trkpt lat="43.04483" lon="-0.48152">
        <ele>1264.751709</ele>
        <time>2014-09-11T07:47:36Z</time>
      </trkpt>
      <trkpt lat="43.04483" lon="-0.48166">
        <ele>1266.193604</ele>
        <time>2014-09-11T07:47:52Z</time>
      </trkpt>
      <trkpt lat="43.04482" lon="-0.48179">
        <ele>1270.038818</ele>
        <time>2014-09-11T07:48:06Z</time>
      </trkpt>
      <trkpt lat="43.0448" lon="-0.48188">
        <ele>1271.000244</ele>
        <time>2014-09-11T07:48:20Z</time>
      </trkpt>
      <trkpt lat="43.0448" lon="-0.48211">
        <ele>1273.403564</ele>
        <time>2014-09-11T07:48:39Z</time>
      </trkpt>
      <trkpt lat="43.04482" lon="-0.48229">
        <ele>1276.768311</ele>
        <time>2014-09-11T07:48:56Z</time>
      </trkpt>
      <trkpt lat="43.04484" lon="-0.48248">
        <ele>1278.210205</ele>
        <time>2014-09-11T07:49:11Z</time>
      </trkpt>
      <trkpt lat="43.04487" lon="-0.48256">
        <ele>1278.690918</ele>
        <time>2014-09-11T07:49:18Z</time>
      </trkpt>
      <trkpt lat="43.045" lon="-0.48266">
        <ele>1280.132813</ele>
        <time>2014-09-11T07:49:34Z</time>
      </trkpt>
      <trkpt lat="43.04502" lon="-0.48268">
        <ele>1280.613525</ele>
        <time>2014-09-11T07:49:36Z</time>
      </trkpt>
      <trkpt lat="43.04504" lon="-0.48282">
        <ele>1281.574707</ele>
        <time>2014-09-11T07:49:46Z</time>
      </trkpt>
      <trkpt lat="43.04503" lon="-0.48302">
        <ele>1284.45874</ele>
        <time>2014-09-11T07:50:01Z</time>
      </trkpt>
      <trkpt lat="43.04496" lon="-0.48326">
        <ele>1286.861816</ele>
        <time>2014-09-11T07:50:20Z</time>
      </trkpt>
      <trkpt lat="43.04491" lon="-0.48348">
        <ele>1288.784668</ele>
        <time>2014-09-11T07:50:36Z</time>
      </trkpt>
      <trkpt lat="43.04482" lon="-0.48372">
        <ele>1291.187744</ele>
        <time>2014-09-11T07:50:55Z</time>
      </trkpt>
      <trkpt lat="43.0448" lon="-0.4838">
        <ele>1291.668457</ele>
        <time>2014-09-11T07:51:01Z</time>
      </trkpt>
      <trkpt lat="43.04478" lon="-0.48403">
        <ele>1294.072021</ele>
        <time>2014-09-11T07:51:17Z</time>
      </trkpt>
      <trkpt lat="43.04477" lon="-0.48411">
        <ele>1295.033203</ele>
        <time>2014-09-11T07:51:22Z</time>
      </trkpt>
      <trkpt lat="43.04477" lon="-0.48433">
        <ele>1295.513916</ele>
        <time>2014-09-11T07:51:37Z</time>
      </trkpt>
      <trkpt lat="43.04477" lon="-0.48459">
        <ele>1296.475342</ele>
        <time>2014-09-11T07:51:54Z</time>
      </trkpt>
      <trkpt lat="43.04477" lon="-0.48479">
        <ele>1299.359131</ele>
        <time>2014-09-11T07:52:10Z</time>
      </trkpt>
      <trkpt lat="43.04473" lon="-0.48503">
        <ele>1301.281738</ele>
        <time>2014-09-11T07:52:28Z</time>
      </trkpt>
      <trkpt lat="43.04466" lon="-0.48532">
        <ele>1303.204346</ele>
        <time>2014-09-11T07:52:49Z</time>
      </trkpt>
      <trkpt lat="43.04463" lon="-0.48545">
        <ele>1303.204346</ele>
        <time>2014-09-11T07:53:03Z</time>
      </trkpt>
      <trkpt lat="43.04462" lon="-0.48548">
        <ele>1303.204346</ele>
        <time>2014-09-11T07:53:05Z</time>
      </trkpt>
      <trkpt lat="43.04457" lon="-0.48571">
        <ele>1303.204346</ele>
        <time>2014-09-11T07:53:21Z</time>
      </trkpt>
      <trkpt lat="43.04454" lon="-0.48595">
        <ele>1304.64624</ele>
        <time>2014-09-11T07:53:37Z</time>
      </trkpt>
      <trkpt lat="43.04456" lon="-0.48614">
        <ele>1307.530273</ele>
        <time>2014-09-11T07:53:56Z</time>
      </trkpt>
      <trkpt lat="43.04459" lon="-0.48623">
        <ele>1310.414307</ele>
        <time>2014-09-11T07:54:08Z</time>
      </trkpt>
      <trkpt lat="43.04458" lon="-0.48637">
        <ele>1312.817627</ele>
        <time>2014-09-11T07:54:25Z</time>
      </trkpt>
      <trkpt lat="43.0446" lon="-0.48641">
        <ele>1314.740234</ele>
        <time>2014-09-11T07:54:33Z</time>
      </trkpt>
      <trkpt lat="43.04462" lon="-0.48643">
        <ele>1315.70166</ele>
        <time>2014-09-11T07:54:37Z</time>
      </trkpt>
      <trkpt lat="43.04465" lon="-0.48657">
        <ele>1318.585449</ele>
        <time>2014-09-11T07:54:54Z</time>
      </trkpt>
      <trkpt lat="43.04466" lon="-0.48672">
        <ele>1320.98877</ele>
        <time>2014-09-11T07:55:12Z</time>
      </trkpt>
      <trkpt lat="43.04466" lon="-0.48676">
        <ele>1322.911377</ele>
        <time>2014-09-11T07:55:17Z</time>
      </trkpt>
      <trkpt lat="43.04466" lon="-0.48691">
        <ele>1323.39209</ele>
        <time>2014-09-11T07:55:35Z</time>
      </trkpt>
      <trkpt lat="43.04465" lon="-0.48699">
        <ele>1325.314697</ele>
        <time>2014-09-11T07:55:44Z</time>
      </trkpt>
      <trkpt lat="43.04466" lon="-0.48702">
        <ele>1327.237549</ele>
        <time>2014-09-11T07:55:51Z</time>
      </trkpt>
      <trkpt lat="43.04466" lon="-0.48714">
        <ele>1330.121338</ele>
        <time>2014-09-11T07:56:05Z</time>
      </trkpt>
      <trkpt lat="43.04466" lon="-0.48728">
        <ele>1332.043945</ele>
        <time>2014-09-11T07:56:23Z</time>
      </trkpt>
      <trkpt lat="43.04467" lon="-0.4874">
        <ele>1334.927979</ele>
        <time>2014-09-11T07:56:39Z</time>
      </trkpt>
      <trkpt lat="43.04469" lon="-0.48755">
        <ele>1338.29248</ele>
        <time>2014-09-11T07:56:59Z</time>
      </trkpt>
      <trkpt lat="43.04467" lon="-0.48768">
        <ele>1340.695801</ele>
        <time>2014-09-11T07:57:16Z</time>
      </trkpt>
      <trkpt lat="43.04466" lon="-0.48785">
        <ele>1343.579834</ele>
        <time>2014-09-11T07:57:34Z</time>
      </trkpt>
      <trkpt lat="43.04467" lon="-0.48796">
        <ele>1345.983154</ele>
        <time>2014-09-11T07:57:51Z</time>
      </trkpt>
      <trkpt lat="43.04463" lon="-0.48807">
        <ele>1347.905762</ele>
        <time>2014-09-11T07:58:06Z</time>
      </trkpt>
      <trkpt lat="43.04462" lon="-0.48823">
        <ele>1351.270264</ele>
        <time>2014-09-11T07:58:25Z</time>
      </trkpt>
      <trkpt lat="43.04462" lon="-0.4884">
        <ele>1352.231445</ele>
        <time>2014-09-11T07:58:41Z</time>
      </trkpt>
      <trkpt lat="43.04465" lon="-0.48865">
        <ele>1351.750977</ele>
        <time>2014-09-11T07:59:00Z</time>
      </trkpt>
      <trkpt lat="43.04466" lon="-0.48888">
        <ele>1353.673584</ele>
        <time>2014-09-11T07:59:18Z</time>
      </trkpt>
      <trkpt lat="43.04468" lon="-0.48908">
        <ele>1354.154297</ele>
        <time>2014-09-11T07:59:36Z</time>
      </trkpt>
      <trkpt lat="43.04473" lon="-0.48933">
        <ele>1357.519043</ele>
        <time>2014-09-11T07:59:59Z</time>
      </trkpt>
      <trkpt lat="43.04473" lon="-0.48949">
        <ele>1358.960938</ele>
        <time>2014-09-11T08:00:18Z</time>
      </trkpt>
      <trkpt lat="43.04472" lon="-0.48962">
        <ele>1360.402832</ele>
        <time>2014-09-11T08:00:34Z</time>
      </trkpt>
      <trkpt lat="43.04473" lon="-0.48975">
        <ele>1362.806152</ele>
        <time>2014-09-11T08:00:52Z</time>
      </trkpt>
      <trkpt lat="43.04473" lon="-0.48995">
        <ele>1365.690186</ele>
        <time>2014-09-11T08:01:14Z</time>
      </trkpt>
      <trkpt lat="43.04475" lon="-0.49005">
        <ele>1368.573975</ele>
        <time>2014-09-11T08:01:26Z</time>
      </trkpt>
      <trkpt lat="43.04476" lon="-0.4902">
        <ele>1371.938477</ele>
        <time>2014-09-11T08:01:45Z</time>
      </trkpt>
      <trkpt lat="43.04475" lon="-0.4903">
        <ele>1374.822754</ele>
        <time>2014-09-11T08:01:58Z</time>
      </trkpt>
      <trkpt lat="43.04473" lon="-0.49041">
        <ele>1378.187256</ele>
        <time>2014-09-11T08:02:19Z</time>
      </trkpt>
      <trkpt lat="43.0447" lon="-0.4905">
        <ele>1379.148438</ele>
        <time>2014-09-11T08:02:34Z</time>
      </trkpt>
      <trkpt lat="43.04467" lon="-0.49056">
        <ele>1382.993652</ele>
        <time>2014-09-11T08:02:52Z</time>
      </trkpt>
      <trkpt lat="43.04464" lon="-0.49063">
        <ele>1386.358398</ele>
        <time>2014-09-11T08:03:08Z</time>
      </trkpt>
      <trkpt lat="43.04464" lon="-0.49075">
        <ele>1387.800293</ele>
        <time>2014-09-11T08:03:25Z</time>
      </trkpt>
      <trkpt lat="43.04465" lon="-0.49085">
        <ele>1391.165039</ele>
        <time>2014-09-11T08:03:46Z</time>
      </trkpt>
      <trkpt lat="43.04463" lon="-0.49089">
        <ele>1393.087646</ele>
        <time>2014-09-11T08:03:54Z</time>
      </trkpt>
      <trkpt lat="43.04459" lon="-0.49098">
        <ele>1394.529541</ele>
        <time>2014-09-11T08:04:12Z</time>
      </trkpt>
      <trkpt lat="43.04454" lon="-0.49103">
        <ele>1395.97168</ele>
        <time>2014-09-11T08:04:27Z</time>
      </trkpt>
      <trkpt lat="43.04444" lon="-0.49114">
        <ele>1397.894287</ele>
        <time>2014-09-11T08:04:45Z</time>
      </trkpt>
      <trkpt lat="43.04444" lon="-0.49127">
        <ele>1400.778076</ele>
        <time>2014-09-11T08:05:03Z</time>
      </trkpt>
      <trkpt lat="43.04444" lon="-0.49134">
        <ele>1402.219971</ele>
        <time>2014-09-11T08:05:19Z</time>
      </trkpt>
      <trkpt lat="43.04444" lon="-0.49141">
        <ele>1405.104248</ele>
        <time>2014-09-11T08:05:36Z</time>
      </trkpt>
      <trkpt lat="43.04445" lon="-0.49148">
        <ele>1406.546143</ele>
        <time>2014-09-11T08:05:53Z</time>
      </trkpt>
      <trkpt lat="43.04446" lon="-0.49154">
        <ele>1408.949463</ele>
        <time>2014-09-11T08:06:19Z</time>
      </trkpt>
      <trkpt lat="43.04446" lon="-0.49161">
        <ele>1410.87207</ele>
        <time>2014-09-11T08:06:29Z</time>
      </trkpt>
      <trkpt lat="43.04447" lon="-0.49175">
        <ele>1414.236572</ele>
        <time>2014-09-11T08:06:46Z</time>
      </trkpt>
      <trkpt lat="43.04448" lon="-0.49176">
        <ele>1414.236572</ele>
        <time>2014-09-11T08:06:47Z</time>
      </trkpt>
      <trkpt lat="43.04447" lon="-0.49186">
        <ele>1415.678711</ele>
        <time>2014-09-11T08:07:05Z</time>
      </trkpt>
      <trkpt lat="43.04448" lon="-0.49189">
        <ele>1417.120605</ele>
        <time>2014-09-11T08:07:11Z</time>
      </trkpt>
      <trkpt lat="43.04448" lon="-0.49191">
        <ele>1418.5625</ele>
        <time>2014-09-11T08:07:14Z</time>
      </trkpt>
      <trkpt lat="43.04446" lon="-0.49196">
        <ele>1421.927246</ele>
        <time>2014-09-11T08:07:29Z</time>
      </trkpt>
      <trkpt lat="43.04444" lon="-0.49205">
        <ele>1423.369385</ele>
        <time>2014-09-11T08:07:46Z</time>
      </trkpt>
      <trkpt lat="43.04443" lon="-0.49213">
        <ele>1422.888672</ele>
        <time>2014-09-11T08:07:58Z</time>
      </trkpt>
      <trkpt lat="43.04442" lon="-0.49227">
        <ele>1425.291748</ele>
        <time>2014-09-11T08:08:16Z</time>
      </trkpt>
      <trkpt lat="43.04444" lon="-0.49237">
        <ele>1428.656494</ele>
        <time>2014-09-11T08:08:31Z</time>
      </trkpt>
      <trkpt lat="43.04448" lon="-0.49248">
        <ele>1431.540283</ele>
        <time>2014-09-11T08:08:47Z</time>
      </trkpt>
      <trkpt lat="43.04449" lon="-0.49254">
        <ele>1433.462891</ele>
        <time>2014-09-11T08:08:59Z</time>
      </trkpt>
      <trkpt lat="43.04452" lon="-0.49263">
        <ele>1436.347168</ele>
        <time>2014-09-11T08:09:11Z</time>
      </trkpt>
      <trkpt lat="43.04453" lon="-0.49271">
        <ele>1438.269775</ele>
        <time>2014-09-11T08:09:20Z</time>
      </trkpt>
      <trkpt lat="43.04454" lon="-0.49282">
        <ele>1440.672852</ele>
        <time>2014-09-11T08:09:35Z</time>
      </trkpt>
      <trkpt lat="43.04454" lon="-0.49294">
        <ele>1443.556885</ele>
        <time>2014-09-11T08:09:49Z</time>
      </trkpt>
      <trkpt lat="43.04455" lon="-0.4931">
        <ele>1445.479492</ele>
        <time>2014-09-11T08:10:07Z</time>
      </trkpt>
      <trkpt lat="43.04456" lon="-0.49322">
        <ele>1448.843994</ele>
        <time>2014-09-11T08:10:21Z</time>
      </trkpt>
      <trkpt lat="43.04457" lon="-0.4934">
        <ele>1451.247314</ele>
        <time>2014-09-11T08:10:40Z</time>
      </trkpt>
      <trkpt lat="43.04462" lon="-0.49355">
        <ele>1454.131592</ele>
        <time>2014-09-11T08:11:00Z</time>
      </trkpt>
      <trkpt lat="43.04465" lon="-0.49365">
        <ele>1457.496094</ele>
        <time>2014-09-11T08:11:17Z</time>
      </trkpt>
      <trkpt lat="43.04466" lon="-0.49369">
        <ele>1457.496094</ele>
        <time>2014-09-11T08:11:32Z</time>
      </trkpt>
      <trkpt lat="43.04467" lon="-0.49368">
        <ele>1457.015381</ele>
        <time>2014-09-11T08:12:16Z</time>
      </trkpt>
      <trkpt lat="43.04469" lon="-0.4937">
        <ele>1457.496094</ele>
        <time>2014-09-11T08:13:05Z</time>
      </trkpt>
      <trkpt lat="43.04469" lon="-0.49369">
        <ele>1458.457275</ele>
        <time>2014-09-11T08:15:33Z</time>
      </trkpt>
      <trkpt lat="43.04467" lon="-0.49367">
        <ele>1457.496094</ele>
        <time>2014-09-11T08:16:41Z</time>
      </trkpt>
      <trkpt lat="43.04467" lon="-0.4936">
        <ele>1458.457275</ele>
        <time>2014-09-11T08:17:16Z</time>
      </trkpt>
      <trkpt lat="43.04467" lon="-0.49368">
        <ele>1459.418701</ele>
        <time>2014-09-11T08:19:27Z</time>
      </trkpt>
      <trkpt lat="43.04467" lon="-0.49372">
        <ele>1460.860596</ele>
        <time>2014-09-11T08:20:41Z</time>
      </trkpt>
      <trkpt lat="43.04469" lon="-0.49371">
        <ele>1461.341309</ele>
        <time>2014-09-11T08:20:57Z</time>
      </trkpt>
      <trkpt lat="43.04474" lon="-0.49373">
        <ele>1462.783203</ele>
        <time>2014-09-11T08:21:10Z</time>
      </trkpt>
      <trkpt lat="43.04475" lon="-0.49381">
        <ele>1465.186523</ele>
        <time>2014-09-11T08:21:37Z</time>
      </trkpt>
      <trkpt lat="43.04474" lon="-0.49389">
        <ele>1468.070557</ele>
        <time>2014-09-11T08:21:52Z</time>
      </trkpt>
      <trkpt lat="43.04474" lon="-0.49399">
        <ele>1470.473877</ele>
        <time>2014-09-11T08:22:06Z</time>
      </trkpt>
      <trkpt lat="43.04475" lon="-0.49409">
        <ele>1472.396484</ele>
        <time>2014-09-11T08:22:20Z</time>
      </trkpt>
      <trkpt lat="43.04473" lon="-0.49419">
        <ele>1474.799805</ele>
        <time>2014-09-11T08:22:34Z</time>
      </trkpt>
      <trkpt lat="43.0447" lon="-0.49429">
        <ele>1475.760986</ele>
        <time>2014-09-11T08:22:47Z</time>
      </trkpt>
      <trkpt lat="43.0447" lon="-0.49441">
        <ele>1479.125488</ele>
        <time>2014-09-11T08:23:00Z</time>
      </trkpt>
      <trkpt lat="43.04468" lon="-0.49453">
        <ele>1481.04834</ele>
        <time>2014-09-11T08:23:16Z</time>
      </trkpt>
      <trkpt lat="43.04468" lon="-0.49463">
        <ele>1483.932129</ele>
        <time>2014-09-11T08:23:32Z</time>
      </trkpt>
      <trkpt lat="43.04466" lon="-0.49472">
        <ele>1484.893799</ele>
        <time>2014-09-11T08:23:44Z</time>
      </trkpt>
      <trkpt lat="43.04463" lon="-0.49481">
        <ele>1488.258301</ele>
        <time>2014-09-11T08:23:57Z</time>
      </trkpt>
      <trkpt lat="43.04459" lon="-0.49489">
        <ele>1489.700195</ele>
        <time>2014-09-11T08:24:12Z</time>
      </trkpt>
      <trkpt lat="43.04459" lon="-0.49496">
        <ele>1491.14209</ele>
        <time>2014-09-11T08:24:23Z</time>
      </trkpt>
      <trkpt lat="43.04461" lon="-0.495">
        <ele>1493.54541</ele>
        <time>2014-09-11T08:24:31Z</time>
      </trkpt>
      <trkpt lat="43.04464" lon="-0.49506">
        <ele>1496.429443</ele>
        <time>2014-09-11T08:24:45Z</time>
      </trkpt>
      <trkpt lat="43.04464" lon="-0.49514">
        <ele>1499.313232</ele>
        <time>2014-09-11T08:25:01Z</time>
      </trkpt>
      <trkpt lat="43.04464" lon="-0.49523">
        <ele>1502.197266</ele>
        <time>2014-09-11T08:25:16Z</time>
      </trkpt>
      <trkpt lat="43.04465" lon="-0.49532">
        <ele>1505.562012</ele>
        <time>2014-09-11T08:25:31Z</time>
      </trkpt>
      <trkpt lat="43.04471" lon="-0.49535">
        <ele>1507.003906</ele>
        <time>2014-09-11T08:25:47Z</time>
      </trkpt>
      <trkpt lat="43.0447" lon="-0.49545">
        <ele>1508.926514</ele>
        <time>2014-09-11T08:26:03Z</time>
      </trkpt>
      <trkpt lat="43.0447" lon="-0.49553">
        <ele>1511.329834</ele>
        <time>2014-09-11T08:26:16Z</time>
      </trkpt>
      <trkpt lat="43.04476" lon="-0.49555">
        <ele>1513.73291</ele>
        <time>2014-09-11T08:26:31Z</time>
      </trkpt>
      <trkpt lat="43.04478" lon="-0.49559">
        <ele>1515.175049</ele>
        <time>2014-09-11T08:26:48Z</time>
      </trkpt>
      <trkpt lat="43.04481" lon="-0.49566">
        <ele>1516.617188</ele>
        <time>2014-09-11T08:27:00Z</time>
      </trkpt>
      <trkpt lat="43.04484" lon="-0.49575">
        <ele>1519.020508</ele>
        <time>2014-09-11T08:27:16Z</time>
      </trkpt>
      <trkpt lat="43.04486" lon="-0.49589">
        <ele>1521.904297</ele>
        <time>2014-09-11T08:27:39Z</time>
      </trkpt>
      <trkpt lat="43.04485" lon="-0.49593">
        <ele>1524.307617</ele>
        <time>2014-09-11T08:27:56Z</time>
      </trkpt>
      <trkpt lat="43.04484" lon="-0.49593">
        <ele>1522.865723</ele>
        <time>2014-09-11T08:27:59Z</time>
      </trkpt>
      <trkpt lat="43.0448" lon="-0.49598">
        <ele>1526.230225</ele>
        <time>2014-09-11T08:28:25Z</time>
      </trkpt>
      <trkpt lat="43.04477" lon="-0.49604">
        <ele>1528.633545</ele>
        <time>2014-09-11T08:28:35Z</time>
      </trkpt>
      <trkpt lat="43.04479" lon="-0.49613">
        <ele>1531.998047</ele>
        <time>2014-09-11T08:28:47Z</time>
      </trkpt>
      <trkpt lat="43.04479" lon="-0.49626">
        <ele>1533.920898</ele>
        <time>2014-09-11T08:29:04Z</time>
      </trkpt>
      <trkpt lat="43.04483" lon="-0.49636">
        <ele>1536.324219</ele>
        <time>2014-09-11T08:29:18Z</time>
      </trkpt>
      <trkpt lat="43.04485" lon="-0.49646">
        <ele>1539.208008</ele>
        <time>2014-09-11T08:29:31Z</time>
      </trkpt>
      <trkpt lat="43.04485" lon="-0.49651">
        <ele>1541.611328</ele>
        <time>2014-09-11T08:29:36Z</time>
      </trkpt>
      <trkpt lat="43.04485" lon="-0.49662">
        <ele>1543.053223</ele>
        <time>2014-09-11T08:29:51Z</time>
      </trkpt>
      <trkpt lat="43.04484" lon="-0.49674">
        <ele>1543.053223</ele>
        <time>2014-09-11T08:30:12Z</time>
      </trkpt>
      <trkpt lat="43.04481" lon="-0.49693">
        <ele>1544.014648</ele>
        <time>2014-09-11T08:30:28Z</time>
      </trkpt>
      <trkpt lat="43.04477" lon="-0.49705">
        <ele>1546.417969</ele>
        <time>2014-09-11T08:30:43Z</time>
      </trkpt>
      <trkpt lat="43.04476" lon="-0.4972">
        <ele>1549.302002</ele>
        <time>2014-09-11T08:30:58Z</time>
      </trkpt>
      <trkpt lat="43.04473" lon="-0.49734">
        <ele>1549.782715</ele>
        <time>2014-09-11T08:31:13Z</time>
      </trkpt>
      <trkpt lat="43.04473" lon="-0.49745">
        <ele>1550.263428</ele>
        <time>2014-09-11T08:31:26Z</time>
      </trkpt>
      <trkpt lat="43.04473" lon="-0.49758">
        <ele>1553.62793</ele>
        <time>2014-09-11T08:31:40Z</time>
      </trkpt>
      <trkpt lat="43.04474" lon="-0.49761">
        <ele>1554.589111</ele>
        <time>2014-09-11T08:31:44Z</time>
      </trkpt>
      <trkpt lat="43.04473" lon="-0.49771">
        <ele>1556.031006</ele>
        <time>2014-09-11T08:31:56Z</time>
      </trkpt>
      <trkpt lat="43.0447" lon="-0.49786">
        <ele>1556.511719</ele>
        <time>2014-09-11T08:32:12Z</time>
      </trkpt>
      <trkpt lat="43.04469" lon="-0.49796">
        <ele>1559.395752</ele>
        <time>2014-09-11T08:32:26Z</time>
      </trkpt>
      <trkpt lat="43.04466" lon="-0.49803">
        <ele>1562.760254</ele>
        <time>2014-09-11T08:32:36Z</time>
      </trkpt>
      <trkpt lat="43.04464" lon="-0.4981">
        <ele>1564.202393</ele>
        <time>2014-09-11T08:32:47Z</time>
      </trkpt>
      <trkpt lat="43.04463" lon="-0.49817">
        <ele>1565.163818</ele>
        <time>2014-09-11T08:32:58Z</time>
      </trkpt>
      <trkpt lat="43.04464" lon="-0.49829">
        <ele>1567.566895</ele>
        <time>2014-09-11T08:33:13Z</time>
      </trkpt>
      <trkpt lat="43.04463" lon="-0.49837">
        <ele>1570.931641</ele>
        <time>2014-09-11T08:33:26Z</time>
      </trkpt>
      <trkpt lat="43.04461" lon="-0.49848">
        <ele>1572.373535</ele>
        <time>2014-09-11T08:33:40Z</time>
      </trkpt>
      <trkpt lat="43.04463" lon="-0.49855">
        <ele>1573.334961</ele>
        <time>2014-09-11T08:34:00Z</time>
      </trkpt>
      <trkpt lat="43.04462" lon="-0.49864">
        <ele>1576.21875</ele>
        <time>2014-09-11T08:34:13Z</time>
      </trkpt>
      <trkpt lat="43.0446" lon="-0.4988">
        <ele>1578.141357</ele>
        <time>2014-09-11T08:34:30Z</time>
      </trkpt>
      <trkpt lat="43.04456" lon="-0.49892">
        <ele>1579.102539</ele>
        <time>2014-09-11T08:34:46Z</time>
      </trkpt>
      <trkpt lat="43.04451" lon="-0.49913">
        <ele>1579.102539</ele>
        <time>2014-09-11T08:35:07Z</time>
      </trkpt>
      <trkpt lat="43.04442" lon="-0.49929">
        <ele>1579.102539</ele>
        <time>2014-09-11T08:35:27Z</time>
      </trkpt>
      <trkpt lat="43.04433" lon="-0.49948">
        <ele>1578.62207</ele>
        <time>2014-09-11T08:35:48Z</time>
      </trkpt>
      <trkpt lat="43.04432" lon="-0.49962">
        <ele>1580.544922</ele>
        <time>2014-09-11T08:36:01Z</time>
      </trkpt>
      <trkpt lat="43.04431" lon="-0.4998">
        <ele>1581.986816</ele>
        <time>2014-09-11T08:36:19Z</time>
      </trkpt>
      <trkpt lat="43.04427" lon="-0.5">
        <ele>1583.909424</ele>
        <time>2014-09-11T08:36:39Z</time>
      </trkpt>
      <trkpt lat="43.04422" lon="-0.50014">
        <ele>1586.312744</ele>
        <time>2014-09-11T08:36:55Z</time>
      </trkpt>
      <trkpt lat="43.04418" lon="-0.50031">
        <ele>1589.677246</ele>
        <time>2014-09-11T08:37:13Z</time>
      </trkpt>
      <trkpt lat="43.04417" lon="-0.50032">
        <ele>1589.677246</ele>
        <time>2014-09-11T08:37:14Z</time>
      </trkpt>
      <trkpt lat="43.04417" lon="-0.50046">
        <ele>1592.561279</ele>
        <time>2014-09-11T08:37:30Z</time>
      </trkpt>
      <trkpt lat="43.04417" lon="-0.50049">
        <ele>1593.522461</ele>
        <time>2014-09-11T08:37:34Z</time>
      </trkpt>
      <trkpt lat="43.04419" lon="-0.50059">
        <ele>1596.887207</ele>
        <time>2014-09-11T08:37:51Z</time>
      </trkpt>
      <trkpt lat="43.04422" lon="-0.50068">
        <ele>1600.251953</ele>
        <time>2014-09-11T08:38:06Z</time>
      </trkpt>
      <trkpt lat="43.04425" lon="-0.50082">
        <ele>1602.655029</ele>
        <time>2014-09-11T08:38:27Z</time>
      </trkpt>
      <trkpt lat="43.04429" lon="-0.50089">
        <ele>1604.577637</ele>
        <time>2014-09-11T08:38:38Z</time>
      </trkpt>
      <trkpt lat="43.04436" lon="-0.50099">
        <ele>1607.942383</ele>
        <time>2014-09-11T08:38:56Z</time>
      </trkpt>
      <trkpt lat="43.0444" lon="-0.50099">
        <ele>1610.826172</ele>
        <time>2014-09-11T08:39:04Z</time>
      </trkpt>
      <trkpt lat="43.04444" lon="-0.50103">
        <ele>1611.787598</ele>
        <time>2014-09-11T08:39:16Z</time>
      </trkpt>
      <trkpt lat="43.04443" lon="-0.50113">
        <ele>1615.152344</ele>
        <time>2014-09-11T08:39:29Z</time>
      </trkpt>
      <trkpt lat="43.04443" lon="-0.50123">
        <ele>1617.55542</ele>
        <time>2014-09-11T08:39:44Z</time>
      </trkpt>
      <trkpt lat="43.04447" lon="-0.50123">
        <ele>1618.516846</ele>
        <time>2014-09-11T08:39:55Z</time>
      </trkpt>
      <trkpt lat="43.0445" lon="-0.5012">
        <ele>1618.997559</ele>
        <time>2014-09-11T08:40:18Z</time>
      </trkpt>
      <trkpt lat="43.04444" lon="-0.50127">
        <ele>1619.478271</ele>
        <time>2014-09-11T08:40:37Z</time>
      </trkpt>
      <trkpt lat="43.04435" lon="-0.50143">
        <ele>1621.400635</ele>
        <time>2014-09-11T08:40:56Z</time>
      </trkpt>
      <trkpt lat="43.0443" lon="-0.50161">
        <ele>1623.803955</ele>
        <time>2014-09-11T08:41:16Z</time>
      </trkpt>
      <trkpt lat="43.04428" lon="-0.50183">
        <ele>1626.207275</ele>
        <time>2014-09-11T08:41:37Z</time>
      </trkpt>
      <trkpt lat="43.04424" lon="-0.502">
        <ele>1628.130127</ele>
        <time>2014-09-11T08:41:55Z</time>
      </trkpt>
      <trkpt lat="43.04419" lon="-0.50219">
        <ele>1631.494629</ele>
        <time>2014-09-11T08:42:13Z</time>
      </trkpt>
      <trkpt lat="43.04414" lon="-0.50238">
        <ele>1634.378662</ele>
        <time>2014-09-11T08:42:32Z</time>
      </trkpt>
      <trkpt lat="43.04412" lon="-0.50244">
        <ele>1635.820557</ele>
        <time>2014-09-11T08:42:37Z</time>
      </trkpt>
      <trkpt lat="43.04412" lon="-0.50261">
        <ele>1639.185059</ele>
        <time>2014-09-11T08:42:56Z</time>
      </trkpt>
      <trkpt lat="43.04416" lon="-0.50273">
        <ele>1641.588379</ele>
        <time>2014-09-11T08:43:13Z</time>
      </trkpt>
      <trkpt lat="43.04416" lon="-0.50275">
        <ele>1643.510986</ele>
        <time>2014-09-11T08:43:16Z</time>
      </trkpt>
      <trkpt lat="43.0442" lon="-0.5029">
        <ele>1645.433838</ele>
        <time>2014-09-11T08:43:32Z</time>
      </trkpt>
      <trkpt lat="43.04417" lon="-0.50298">
        <ele>1645.914551</ele>
        <time>2014-09-11T08:43:45Z</time>
      </trkpt>
      <trkpt lat="43.04414" lon="-0.50305">
        <ele>1645.914551</ele>
        <time>2014-09-11T08:43:52Z</time>
      </trkpt>
      <trkpt lat="43.04413" lon="-0.50331">
        <ele>1645.433838</ele>
        <time>2014-09-11T08:44:11Z</time>
      </trkpt>
      <trkpt lat="43.04409" lon="-0.50356">
        <ele>1647.356445</ele>
        <time>2014-09-11T08:44:30Z</time>
      </trkpt>
      <trkpt lat="43.04406" lon="-0.50361">
        <ele>1647.356445</ele>
        <time>2014-09-11T08:44:36Z</time>
      </trkpt>
      <trkpt lat="43.04394" lon="-0.50377">
        <ele>1648.79834</ele>
        <time>2014-09-11T08:44:56Z</time>
      </trkpt>
      <trkpt lat="43.04381" lon="-0.50395">
        <ele>1650.720947</ele>
        <time>2014-09-11T08:45:16Z</time>
      </trkpt>
      <trkpt lat="43.04376" lon="-0.50399">
        <ele>1650.720947</ele>
        <time>2014-09-11T08:45:32Z</time>
      </trkpt>
      <trkpt lat="43.04373" lon="-0.50401">
        <ele>1651.20166</ele>
        <time>2014-09-11T08:45:55Z</time>
      </trkpt>
      <trkpt lat="43.04358" lon="-0.50411">
        <ele>1652.162842</ele>
        <time>2014-09-11T08:46:13Z</time>
      </trkpt>
      <trkpt lat="43.04342" lon="-0.50421">
        <ele>1652.643555</ele>
        <time>2014-09-11T08:46:30Z</time>
      </trkpt>
      <trkpt lat="43.04323" lon="-0.50425">
        <ele>1653.124268</ele>
        <time>2014-09-11T08:46:50Z</time>
      </trkpt>
      <trkpt lat="43.04313" lon="-0.50429">
        <ele>1653.124268</ele>
        <time>2014-09-11T08:47:04Z</time>
      </trkpt>
      <trkpt lat="43.04312" lon="-0.5043">
        <ele>1653.124268</ele>
        <time>2014-09-11T08:47:06Z</time>
      </trkpt>
      <trkpt lat="43.04303" lon="-0.50446">
        <ele>1652.643555</ele>
        <time>2014-09-11T08:47:21Z</time>
      </trkpt>
      <trkpt lat="43.04299" lon="-0.50458">
        <ele>1653.60498</ele>
        <time>2014-09-11T08:47:36Z</time>
      </trkpt>
      <trkpt lat="43.04292" lon="-0.50464">
        <ele>1653.60498</ele>
        <time>2014-09-11T08:47:46Z</time>
      </trkpt>
      <trkpt lat="43.04282" lon="-0.50474">
        <ele>1654.085693</ele>
        <time>2014-09-11T08:48:00Z</time>
      </trkpt>
      <trkpt lat="43.04268" lon="-0.50484">
        <ele>1656.008057</ele>
        <time>2014-09-11T08:48:18Z</time>
      </trkpt>
      <trkpt lat="43.04262" lon="-0.50488">
        <ele>1657.450195</ele>
        <time>2014-09-11T08:48:25Z</time>
      </trkpt>
      <trkpt lat="43.0425" lon="-0.50501">
        <ele>1660.814941</ele>
        <time>2014-09-11T08:48:43Z</time>
      </trkpt>
      <trkpt lat="43.04243" lon="-0.50508">
        <ele>1661.776367</ele>
        <time>2014-09-11T08:48:58Z</time>
      </trkpt>
      <trkpt lat="43.04236" lon="-0.50512">
        <ele>1663.69873</ele>
        <time>2014-09-11T08:49:13Z</time>
      </trkpt>
      <trkpt lat="43.04228" lon="-0.50503">
        <ele>1666.102051</ele>
        <time>2014-09-11T08:49:27Z</time>
      </trkpt>
      <trkpt lat="43.0422" lon="-0.50504">
        <ele>1668.024658</ele>
        <time>2014-09-11T08:49:43Z</time>
      </trkpt>
      <trkpt lat="43.04212" lon="-0.5051">
        <ele>1669.947266</ele>
        <time>2014-09-11T08:49:59Z</time>
      </trkpt>
      <trkpt lat="43.04201" lon="-0.50519">
        <ele>1672.350586</ele>
        <time>2014-09-11T08:50:17Z</time>
      </trkpt>
      <trkpt lat="43.04198" lon="-0.50519">
        <ele>1674.273193</ele>
        <time>2014-09-11T08:50:22Z</time>
      </trkpt>
      <trkpt lat="43.04187" lon="-0.50524">
        <ele>1675.715088</ele>
        <time>2014-09-11T08:50:42Z</time>
      </trkpt>
      <trkpt lat="43.04171" lon="-0.50529">
        <ele>1677.157471</ele>
        <time>2014-09-11T08:51:02Z</time>
      </trkpt>
      <trkpt lat="43.04161" lon="-0.50538">
        <ele>1679.560547</ele>
        <time>2014-09-11T08:51:19Z</time>
      </trkpt>
      <trkpt lat="43.04145" lon="-0.50546">
        <ele>1680.04126</ele>
        <time>2014-09-11T08:51:39Z</time>
      </trkpt>
      <trkpt lat="43.04143" lon="-0.50549">
        <ele>1679.079834</ele>
        <time>2014-09-11T08:51:56Z</time>
      </trkpt>
      <trkpt lat="43.04142" lon="-0.50557">
        <ele>1680.04126</ele>
        <time>2014-09-11T08:52:21Z</time>
      </trkpt>
      <trkpt lat="43.04141" lon="-0.5057">
        <ele>1681.483154</ele>
        <time>2014-09-11T08:52:38Z</time>
      </trkpt>
      <trkpt lat="43.04137" lon="-0.50584">
        <ele>1683.886475</ele>
        <time>2014-09-11T08:52:54Z</time>
      </trkpt>
      <trkpt lat="43.04128" lon="-0.50593">
        <ele>1686.770264</ele>
        <time>2014-09-11T08:53:12Z</time>
      </trkpt>
      <trkpt lat="43.04119" lon="-0.50595">
        <ele>1689.654297</ele>
        <time>2014-09-11T08:53:28Z</time>
      </trkpt>
      <trkpt lat="43.04114" lon="-0.50595">
        <ele>1689.654297</ele>
        <time>2014-09-11T08:53:38Z</time>
      </trkpt>
      <trkpt lat="43.04109" lon="-0.5059">
        <ele>1692.538574</ele>
        <time>2014-09-11T08:53:51Z</time>
      </trkpt>
      <trkpt lat="43.04105" lon="-0.50578">
        <ele>1695.903076</ele>
        <time>2014-09-11T08:54:06Z</time>
      </trkpt>
      <trkpt lat="43.04098" lon="-0.50573">
        <ele>1698.786865</ele>
        <time>2014-09-11T08:54:19Z</time>
      </trkpt>
      <trkpt lat="43.04098" lon="-0.50559">
        <ele>1699.748291</ele>
        <time>2014-09-11T08:54:32Z</time>
      </trkpt>
      <trkpt lat="43.04093" lon="-0.50548">
        <ele>1702.151367</ele>
        <time>2014-09-11T08:54:45Z</time>
      </trkpt>
      <trkpt lat="43.04085" lon="-0.50531">
        <ele>1703.112793</ele>
        <time>2014-09-11T08:55:03Z</time>
      </trkpt>
      <trkpt lat="43.04078" lon="-0.50519">
        <ele>1702.151367</ele>
        <time>2014-09-11T08:55:17Z</time>
      </trkpt>
      <trkpt lat="43.0407" lon="-0.50507">
        <ele>1701.190186</ele>
        <time>2014-09-11T08:55:35Z</time>
      </trkpt>
      <trkpt lat="43.04063" lon="-0.50498">
        <ele>1700.229004</ele>
        <time>2014-09-11T08:55:47Z</time>
      </trkpt>
      <trkpt lat="43.04051" lon="-0.50499">
        <ele>1699.267578</ele>
        <time>2014-09-11T08:56:08Z</time>
      </trkpt>
      <trkpt lat="43.04045" lon="-0.50504">
        <ele>1700.709473</ele>
        <time>2014-09-11T08:56:22Z</time>
      </trkpt>
      <trkpt lat="43.04043" lon="-0.50506">
        <ele>1705.516113</ele>
        <time>2014-09-11T08:56:27Z</time>
      </trkpt>
      <trkpt lat="43.04036" lon="-0.50514">
        <ele>1706.958008</ele>
        <time>2014-09-11T08:56:43Z</time>
      </trkpt>
      <trkpt lat="43.0403" lon="-0.50522">
        <ele>1706.958008</ele>
        <time>2014-09-11T08:56:57Z</time>
      </trkpt>
      <trkpt lat="43.04029" lon="-0.50534">
        <ele>1708.880859</ele>
        <time>2014-09-11T08:57:12Z</time>
      </trkpt>
      <trkpt lat="43.04027" lon="-0.50544">
        <ele>1711.764893</ele>
        <time>2014-09-11T08:57:38Z</time>
      </trkpt>
      <trkpt lat="43.04022" lon="-0.50556">
        <ele>1715.129395</ele>
        <time>2014-09-11T08:58:00Z</time>
      </trkpt>
      <trkpt lat="43.0402" lon="-0.50565">
        <ele>1718.013184</ele>
        <time>2014-09-11T08:58:15Z</time>
      </trkpt>
      <trkpt lat="43.04019" lon="-0.50578">
        <ele>1721.377686</ele>
        <time>2014-09-11T08:58:35Z</time>
      </trkpt>
      <trkpt lat="43.04019" lon="-0.50591">
        <ele>1723.781006</ele>
        <time>2014-09-11T08:58:56Z</time>
      </trkpt>
      <trkpt lat="43.04016" lon="-0.50599">
        <ele>1727.145996</ele>
        <time>2014-09-11T08:59:12Z</time>
      </trkpt>
      <trkpt lat="43.04015" lon="-0.50599">
        <ele>1727.145996</ele>
        <time>2014-09-11T08:59:13Z</time>
      </trkpt>
      <trkpt lat="43.04015" lon="-0.50602">
        <ele>1728.587891</ele>
        <time>2014-09-11T08:59:20Z</time>
      </trkpt>
      <trkpt lat="43.04014" lon="-0.50605">
        <ele>1730.029785</ele>
        <time>2014-09-11T08:59:24Z</time>
      </trkpt>
      <trkpt lat="43.0401" lon="-0.50611">
        <ele>1730.510498</ele>
        <time>2014-09-11T08:59:36Z</time>
      </trkpt>
      <trkpt lat="43.04007" lon="-0.50602">
        <ele>1734.355713</ele>
        <time>2014-09-11T08:59:56Z</time>
      </trkpt>
      <trkpt lat="43.04005" lon="-0.50592">
        <ele>1736.758789</ele>
        <time>2014-09-11T09:00:16Z</time>
      </trkpt>
      <trkpt lat="43.04001" lon="-0.50586">
        <ele>1739.162109</ele>
        <time>2014-09-11T09:00:29Z</time>
      </trkpt>
      <trkpt lat="43.03996" lon="-0.50578">
        <ele>1741.084961</ele>
        <time>2014-09-11T09:00:45Z</time>
      </trkpt>
      <trkpt lat="43.03992" lon="-0.50573">
        <ele>1743.007568</ele>
        <time>2014-09-11T09:00:58Z</time>
      </trkpt>
      <trkpt lat="43.03988" lon="-0.5058">
        <ele>1746.372314</ele>
        <time>2014-09-11T09:01:29Z</time>
      </trkpt>
      <trkpt lat="43.03984" lon="-0.5059">
        <ele>1748.775391</ele>
        <time>2014-09-11T09:01:49Z</time>
      </trkpt>
      <trkpt lat="43.03978" lon="-0.50598">
        <ele>1751.659424</ele>
        <time>2014-09-11T09:02:08Z</time>
      </trkpt>
      <trkpt lat="43.03974" lon="-0.50602">
        <ele>1754.062744</ele>
        <time>2014-09-11T09:02:24Z</time>
      </trkpt>
      <trkpt lat="43.03973" lon="-0.50607">
        <ele>1755.504639</ele>
        <time>2014-09-11T09:02:37Z</time>
      </trkpt>
      <trkpt lat="43.03966" lon="-0.50617">
        <ele>1757.908203</ele>
        <time>2014-09-11T09:02:54Z</time>
      </trkpt>
      <trkpt lat="43.03959" lon="-0.50621">
        <ele>1760.791992</ele>
        <time>2014-09-11T09:03:15Z</time>
      </trkpt>
      <trkpt lat="43.03958" lon="-0.50613">
        <ele>1764.156494</ele>
        <time>2014-09-11T09:03:34Z</time>
      </trkpt>
      <trkpt lat="43.03956" lon="-0.50608">
        <ele>1767.040527</ele>
        <time>2014-09-11T09:03:50Z</time>
      </trkpt>
      <trkpt lat="43.03951" lon="-0.50613">
        <ele>1769.443848</ele>
        <time>2014-09-11T09:04:05Z</time>
      </trkpt>
      <trkpt lat="43.03948" lon="-0.50609">
        <ele>1772.327881</ele>
        <time>2014-09-11T09:04:20Z</time>
      </trkpt>
      <trkpt lat="43.0395" lon="-0.50613">
        <ele>1773.289307</ele>
        <time>2014-09-11T09:05:05Z</time>
      </trkpt>
      <trkpt lat="43.03947" lon="-0.50613">
        <ele>1773.769775</ele>
        <time>2014-09-11T09:05:19Z</time>
      </trkpt>
      <trkpt lat="43.03944" lon="-0.50617">
        <ele>1776.173096</ele>
        <time>2014-09-11T09:05:45Z</time>
      </trkpt>
      <trkpt lat="43.03944" lon="-0.50619">
        <ele>1775.692383</ele>
        <time>2014-09-11T09:06:05Z</time>
      </trkpt>
      <trkpt lat="43.03943" lon="-0.50619">
        <ele>1776.653809</ele>
        <time>2014-09-11T09:06:17Z</time>
      </trkpt>
      <trkpt lat="43.0394" lon="-0.50624">
        <ele>1779.537598</ele>
        <time>2014-09-11T09:06:29Z</time>
      </trkpt>
      <trkpt lat="43.03936" lon="-0.50626">
        <ele>1780.499023</ele>
        <time>2014-09-11T09:06:42Z</time>
      </trkpt>
      <trkpt lat="43.03933" lon="-0.50618">
        <ele>1781.940918</ele>
        <time>2014-09-11T09:06:55Z</time>
      </trkpt>
      <trkpt lat="43.03929" lon="-0.50608">
        <ele>1783.382813</ele>
        <time>2014-09-11T09:07:10Z</time>
      </trkpt>
      <trkpt lat="43.03923" lon="-0.50603">
        <ele>1786.266846</ele>
        <time>2014-09-11T09:07:26Z</time>
      </trkpt>
      <trkpt lat="43.0392" lon="-0.506">
        <ele>1789.150879</ele>
        <time>2014-09-11T09:07:39Z</time>
      </trkpt>
      <trkpt lat="43.03918" lon="-0.50591">
        <ele>1790.112305</ele>
        <time>2014-09-11T09:07:51Z</time>
      </trkpt>
      <trkpt lat="43.03918" lon="-0.50581">
        <ele>1793.476807</ele>
        <time>2014-09-11T09:08:04Z</time>
      </trkpt>
      <trkpt lat="43.03918" lon="-0.50578">
        <ele>1796.36084</ele>
        <time>2014-09-11T09:08:21Z</time>
      </trkpt>
      <trkpt lat="43.03916" lon="-0.50574">
        <ele>1795.880127</ele>
        <time>2014-09-11T09:08:37Z</time>
      </trkpt>
      <trkpt lat="43.03908" lon="-0.5057">
        <ele>1799.244629</ele>
        <time>2014-09-11T09:08:51Z</time>
      </trkpt>
      <trkpt lat="43.03896" lon="-0.50578">
        <ele>1801.647949</ele>
        <time>2014-09-11T09:09:10Z</time>
      </trkpt>
      <trkpt lat="43.03892" lon="-0.50594">
        <ele>1803.089844</ele>
        <time>2014-09-11T09:09:25Z</time>
      </trkpt>
      <trkpt lat="43.03885" lon="-0.50606">
        <ele>1803.570557</ele>
        <time>2014-09-11T09:09:42Z</time>
      </trkpt>
      <trkpt lat="43.03884" lon="-0.50609">
        <ele>1804.531982</ele>
        <time>2014-09-11T09:09:45Z</time>
      </trkpt>
      <trkpt lat="43.03882" lon="-0.50619">
        <ele>1806.45459</ele>
        <time>2014-09-11T09:09:57Z</time>
      </trkpt>
      <trkpt lat="43.03879" lon="-0.50626">
        <ele>1807.416016</ele>
        <time>2014-09-11T09:10:07Z</time>
      </trkpt>
      <trkpt lat="43.03873" lon="-0.50635">
        <ele>1808.85791</ele>
        <time>2014-09-11T09:10:22Z</time>
      </trkpt>
      <trkpt lat="43.03868" lon="-0.50642">
        <ele>1811.741943</ele>
        <time>2014-09-11T09:10:33Z</time>
      </trkpt>
      <trkpt lat="43.03856" lon="-0.50651">
        <ele>1812.703125</ele>
        <time>2014-09-11T09:10:52Z</time>
      </trkpt>
      <trkpt lat="43.03848" lon="-0.50658">
        <ele>1813.664307</ele>
        <time>2014-09-11T09:11:05Z</time>
      </trkpt>
      <trkpt lat="43.03835" lon="-0.5067">
        <ele>1816.54834</ele>
        <time>2014-09-11T09:11:26Z</time>
      </trkpt>
      <trkpt lat="43.03829" lon="-0.50676">
        <ele>1817.029053</ele>
        <time>2014-09-11T09:11:44Z</time>
      </trkpt>
      <trkpt lat="43.03823" lon="-0.50678">
        <ele>1816.54834</ele>
        <time>2014-09-11T09:12:07Z</time>
      </trkpt>
      <trkpt lat="43.03812" lon="-0.50686">
        <ele>1816.54834</ele>
        <time>2014-09-11T09:12:20Z</time>
      </trkpt>
      <trkpt lat="43.03787" lon="-0.50689">
        <ele>1815.106445</ele>
        <time>2014-09-11T09:12:44Z</time>
      </trkpt>
      <trkpt lat="43.03768" lon="-0.50691">
        <ele>1814.14502</ele>
        <time>2014-09-11T09:13:03Z</time>
      </trkpt>
      <trkpt lat="43.0375" lon="-0.50692">
        <ele>1815.106445</ele>
        <time>2014-09-11T09:13:20Z</time>
      </trkpt>
      <trkpt lat="43.03742" lon="-0.50691">
        <ele>1813.183838</ele>
        <time>2014-09-11T09:13:28Z</time>
      </trkpt>
      <trkpt lat="43.03717" lon="-0.50704">
        <ele>1814.14502</ele>
        <time>2014-09-11T09:13:51Z</time>
      </trkpt>
      <trkpt lat="43.03704" lon="-0.50707">
        <ele>1813.664307</ele>
        <time>2014-09-11T09:14:04Z</time>
      </trkpt>
      <trkpt lat="43.03701" lon="-0.50703">
        <ele>1813.183838</ele>
        <time>2014-09-11T09:14:22Z</time>
      </trkpt>
      <trkpt lat="43.03688" lon="-0.507">
        <ele>1813.664307</ele>
        <time>2014-09-11T09:14:38Z</time>
      </trkpt>
      <trkpt lat="43.03676" lon="-0.507">
        <ele>1812.703125</ele>
        <time>2014-09-11T09:14:50Z</time>
      </trkpt>
      <trkpt lat="43.03658" lon="-0.50698">
        <ele>1814.14502</ele>
        <time>2014-09-11T09:15:08Z</time>
      </trkpt>
      <trkpt lat="43.03644" lon="-0.50695">
        <ele>1812.703125</ele>
        <time>2014-09-11T09:15:24Z</time>
      </trkpt>
      <trkpt lat="43.03625" lon="-0.50683">
        <ele>1813.183838</ele>
        <time>2014-09-11T09:15:44Z</time>
      </trkpt>
      <trkpt lat="43.03622" lon="-0.50684">
        <ele>1813.183838</ele>
        <time>2014-09-11T09:15:47Z</time>
      </trkpt>
      <trkpt lat="43.03616" lon="-0.50687">
        <ele>1814.625732</ele>
        <time>2014-09-11T09:15:53Z</time>
      </trkpt>
      <trkpt lat="43.03602" lon="-0.50689">
        <ele>1815.587158</ele>
        <time>2014-09-11T09:16:09Z</time>
      </trkpt>
      <trkpt lat="43.03598" lon="-0.50686">
        <ele>1815.587158</ele>
        <time>2014-09-11T09:16:24Z</time>
      </trkpt>
      <trkpt lat="43.03593" lon="-0.50684">
        <ele>1815.587158</ele>
        <time>2014-09-11T09:16:30Z</time>
      </trkpt>
      <trkpt lat="43.03582" lon="-0.50683">
        <ele>1814.625732</ele>
        <time>2014-09-11T09:16:46Z</time>
      </trkpt>
      <trkpt lat="43.03572" lon="-0.50689">
        <ele>1814.625732</ele>
        <time>2014-09-11T09:17:05Z</time>
      </trkpt>
      <trkpt lat="43.03569" lon="-0.50692">
        <ele>1814.625732</ele>
        <time>2014-09-11T09:17:13Z</time>
      </trkpt>
      <trkpt lat="43.03558" lon="-0.50697">
        <ele>1814.625732</ele>
        <time>2014-09-11T09:17:27Z</time>
      </trkpt>
      <trkpt lat="43.0355" lon="-0.50696">
        <ele>1813.183838</ele>
        <time>2014-09-11T09:17:44Z</time>
      </trkpt>
      <trkpt lat="43.03538" lon="-0.507">
        <ele>1812.703125</ele>
        <time>2014-09-11T09:17:59Z</time>
      </trkpt>
      <trkpt lat="43.03536" lon="-0.50702">
        <ele>1814.14502</ele>
        <time>2014-09-11T09:18:15Z</time>
      </trkpt>
      <trkpt lat="43.03525" lon="-0.50707">
        <ele>1812.703125</ele>
        <time>2014-09-11T09:18:29Z</time>
      </trkpt>
      <trkpt lat="43.03519" lon="-0.50709">
        <ele>1813.183838</ele>
        <time>2014-09-11T09:18:41Z</time>
      </trkpt>
      <trkpt lat="43.03499" lon="-0.50715">
        <ele>1814.625732</ele>
        <time>2014-09-11T09:18:59Z</time>
      </trkpt>
      <trkpt lat="43.03494" lon="-0.5071">
        <ele>1816.067627</ele>
        <time>2014-09-11T09:19:05Z</time>
      </trkpt>
      <trkpt lat="43.03487" lon="-0.50706">
        <ele>1816.067627</ele>
        <time>2014-09-11T09:19:13Z</time>
      </trkpt>
      <trkpt lat="43.03476" lon="-0.50703">
        <ele>1818.95166</ele>
        <time>2014-09-11T09:19:28Z</time>
      </trkpt>
      <trkpt lat="43.03473" lon="-0.50705">
        <ele>1820.393799</ele>
        <time>2014-09-11T09:19:41Z</time>
      </trkpt>
      <trkpt lat="43.03467" lon="-0.50705">
        <ele>1820.874512</ele>
        <time>2014-09-11T09:19:56Z</time>
      </trkpt>
      <trkpt lat="43.03457" lon="-0.50705">
        <ele>1823.277832</ele>
        <time>2014-09-11T09:20:12Z</time>
      </trkpt>
      <trkpt lat="43.03449" lon="-0.50708">
        <ele>1824.239014</ele>
        <time>2014-09-11T09:20:23Z</time>
      </trkpt>
      <trkpt lat="43.03445" lon="-0.50707">
        <ele>1823.277832</ele>
        <time>2014-09-11T09:20:27Z</time>
      </trkpt>
      <trkpt lat="43.03427" lon="-0.50713">
        <ele>1823.758301</ele>
        <time>2014-09-11T09:20:45Z</time>
      </trkpt>
      <trkpt lat="43.03408" lon="-0.50715">
        <ele>1824.719727</ele>
        <time>2014-09-11T09:21:04Z</time>
      </trkpt>
      <trkpt lat="43.03395" lon="-0.50727">
        <ele>1825.680908</ele>
        <time>2014-09-11T09:21:21Z</time>
      </trkpt>
      <trkpt lat="43.03389" lon="-0.50735">
        <ele>1825.200195</ele>
        <time>2014-09-11T09:21:34Z</time>
      </trkpt>
      <trkpt lat="43.03384" lon="-0.50743">
        <ele>1823.277832</ele>
        <time>2014-09-11T09:21:47Z</time>
      </trkpt>
      <trkpt lat="43.03381" lon="-0.50744">
        <ele>1823.277832</ele>
        <time>2014-09-11T09:21:50Z</time>
      </trkpt>
      <trkpt lat="43.03376" lon="-0.50744">
        <ele>1823.277832</ele>
        <time>2014-09-11T09:21:54Z</time>
      </trkpt>
      <trkpt lat="43.03359" lon="-0.50744">
        <ele>1824.719727</ele>
        <time>2014-09-11T09:22:12Z</time>
      </trkpt>
      <trkpt lat="43.03345" lon="-0.5074">
        <ele>1826.642334</ele>
        <time>2014-09-11T09:22:29Z</time>
      </trkpt>
      <trkpt lat="43.03332" lon="-0.50736">
        <ele>1827.603516</ele>
        <time>2014-09-11T09:22:43Z</time>
      </trkpt>
      <trkpt lat="43.03318" lon="-0.5073">
        <ele>1828.084229</ele>
        <time>2014-09-11T09:23:00Z</time>
      </trkpt>
      <trkpt lat="43.03308" lon="-0.50723">
        <ele>1830.006836</ele>
        <time>2014-09-11T09:23:14Z</time>
      </trkpt>
      <trkpt lat="43.03306" lon="-0.50723">
        <ele>1830.487549</ele>
        <time>2014-09-11T09:23:17Z</time>
      </trkpt>
      <trkpt lat="43.03291" lon="-0.5072">
        <ele>1831.929443</ele>
        <time>2014-09-11T09:23:33Z</time>
      </trkpt>
      <trkpt lat="43.03276" lon="-0.50711">
        <ele>1832.410156</ele>
        <time>2014-09-11T09:23:49Z</time>
      </trkpt>
      <trkpt lat="43.03265" lon="-0.50713">
        <ele>1833.371338</ele>
        <time>2014-09-11T09:24:02Z</time>
      </trkpt>
      <trkpt lat="43.03263" lon="-0.50714">
        <ele>1835.293945</ele>
        <time>2014-09-11T09:24:05Z</time>
      </trkpt>
      <trkpt lat="43.03253" lon="-0.5071">
        <ele>1836.736084</ele>
        <time>2014-09-11T09:24:19Z</time>
      </trkpt>
      <trkpt lat="43.03246" lon="-0.5071">
        <ele>1837.216797</ele>
        <time>2014-09-11T09:24:28Z</time>
      </trkpt>
      <trkpt lat="43.03236" lon="-0.50717">
        <ele>1836.736084</ele>
        <time>2014-09-11T09:24:42Z</time>
      </trkpt>
      <trkpt lat="43.0323" lon="-0.50714">
        <ele>1836.255615</ele>
        <time>2014-09-11T09:24:48Z</time>
      </trkpt>
      <trkpt lat="43.03216" lon="-0.50704">
        <ele>1835.774658</ele>
        <time>2014-09-11T09:25:05Z</time>
      </trkpt>
      <trkpt lat="43.03205" lon="-0.507">
        <ele>1839.139404</ele>
        <time>2014-09-11T09:25:20Z</time>
      </trkpt>
      <trkpt lat="43.03204" lon="-0.50701">
        <ele>1839.620117</ele>
        <time>2014-09-11T09:25:21Z</time>
      </trkpt>
      <trkpt lat="43.03199" lon="-0.50705">
        <ele>1841.542725</ele>
        <time>2014-09-11T09:25:33Z</time>
      </trkpt>
      <trkpt lat="43.032" lon="-0.50709">
        <ele>1842.984619</ele>
        <time>2014-09-11T09:25:44Z</time>
      </trkpt>
      <trkpt lat="43.0319" lon="-0.50709">
        <ele>1845.868652</ele>
        <time>2014-09-11T09:26:00Z</time>
      </trkpt>
      <trkpt lat="43.0319" lon="-0.50709">
        <ele>1845.387939</ele>
        <time>2014-09-11T09:26:01Z</time>
      </trkpt>
      <trkpt lat="43.03181" lon="-0.50708">
        <ele>1847.310547</ele>
        <time>2014-09-11T09:26:16Z</time>
      </trkpt>
      <trkpt lat="43.0318" lon="-0.50708">
        <ele>1848.271729</ele>
        <time>2014-09-11T09:26:18Z</time>
      </trkpt>
      <trkpt lat="43.03169" lon="-0.50704">
        <ele>1850.19458</ele>
        <time>2014-09-11T09:26:37Z</time>
      </trkpt>
      <trkpt lat="43.03171" lon="-0.5071">
        <ele>1850.675049</ele>
        <time>2014-09-11T09:26:53Z</time>
      </trkpt>
      <trkpt lat="43.03172" lon="-0.5071">
        <ele>1850.19458</ele>
        <time>2014-09-11T09:26:54Z</time>
      </trkpt>
      <trkpt lat="43.03185" lon="-0.50714">
        <ele>1847.79126</ele>
        <time>2014-09-11T09:27:09Z</time>
      </trkpt>
      <trkpt lat="43.03188" lon="-0.50714">
        <ele>1847.310547</ele>
        <time>2014-09-11T09:27:23Z</time>
      </trkpt>
      <trkpt lat="43.0318" lon="-0.50705">
        <ele>1848.271729</ele>
        <time>2014-09-11T09:27:35Z</time>
      </trkpt>
      <trkpt lat="43.03171" lon="-0.50708">
        <ele>1850.19458</ele>
        <time>2014-09-11T09:27:49Z</time>
      </trkpt>
      <trkpt lat="43.03167" lon="-0.5071">
        <ele>1851.155762</ele>
        <time>2014-09-11T09:27:53Z</time>
      </trkpt>
      <trkpt lat="43.03161" lon="-0.50708">
        <ele>1852.117188</ele>
        <time>2014-09-11T09:27:59Z</time>
      </trkpt>
      <trkpt lat="43.03147" lon="-0.5071">
        <ele>1851.636475</ele>
        <time>2014-09-11T09:28:13Z</time>
      </trkpt>
      <trkpt lat="43.03131" lon="-0.50706">
        <ele>1851.155762</ele>
        <time>2014-09-11T09:28:29Z</time>
      </trkpt>
      <trkpt lat="43.03119" lon="-0.50712">
        <ele>1854.520508</ele>
        <time>2014-09-11T09:28:44Z</time>
      </trkpt>
      <trkpt lat="43.03107" lon="-0.50719">
        <ele>1855.962402</ele>
        <time>2014-09-11T09:29:00Z</time>
      </trkpt>
      <trkpt lat="43.03095" lon="-0.50729">
        <ele>1858.365723</ele>
        <time>2014-09-11T09:29:18Z</time>
      </trkpt>
      <trkpt lat="43.03086" lon="-0.50743">
        <ele>1858.846436</ele>
        <time>2014-09-11T09:29:35Z</time>
      </trkpt>
      <trkpt lat="43.03085" lon="-0.50743">
        <ele>1858.846436</ele>
        <time>2014-09-11T09:29:58Z</time>
      </trkpt>
      <trkpt lat="43.03077" lon="-0.50742">
        <ele>1860.769043</ele>
        <time>2014-09-11T09:30:11Z</time>
      </trkpt>
      <trkpt lat="43.03067" lon="-0.50739">
        <ele>1864.133545</ele>
        <time>2014-09-11T09:30:27Z</time>
      </trkpt>
      <trkpt lat="43.03061" lon="-0.50739">
        <ele>1864.614258</ele>
        <time>2014-09-11T09:30:46Z</time>
      </trkpt>
      <trkpt lat="43.03053" lon="-0.50735">
        <ele>1867.017578</ele>
        <time>2014-09-11T09:31:00Z</time>
      </trkpt>
      <trkpt lat="43.03042" lon="-0.50733">
        <ele>1868.94043</ele>
        <time>2014-09-11T09:31:17Z</time>
      </trkpt>
      <trkpt lat="43.03034" lon="-0.50726">
        <ele>1870.863037</ele>
        <time>2014-09-11T09:31:32Z</time>
      </trkpt>
      <trkpt lat="43.03032" lon="-0.50721">
        <ele>1874.227539</ele>
        <time>2014-09-11T09:31:40Z</time>
      </trkpt>
      <trkpt lat="43.03029" lon="-0.50716">
        <ele>1875.188721</ele>
        <time>2014-09-11T09:31:56Z</time>
      </trkpt>
      <trkpt lat="43.03022" lon="-0.50705">
        <ele>1878.553467</ele>
        <time>2014-09-11T09:32:15Z</time>
      </trkpt>
      <trkpt lat="43.03011" lon="-0.50697">
        <ele>1880.476074</ele>
        <time>2014-09-11T09:32:34Z</time>
      </trkpt>
      <trkpt lat="43.03011" lon="-0.50697">
        <ele>1880.956787</ele>
        <time>2014-09-11T09:32:35Z</time>
      </trkpt>
      <trkpt lat="43.03006" lon="-0.50689">
        <ele>1882.398682</ele>
        <time>2014-09-11T09:32:52Z</time>
      </trkpt>
      <trkpt lat="43.02996" lon="-0.50678">
        <ele>1883.840576</ele>
        <time>2014-09-11T09:33:12Z</time>
      </trkpt>
      <trkpt lat="43.02994" lon="-0.50682">
        <ele>1885.282715</ele>
        <time>2014-09-11T09:33:27Z</time>
      </trkpt>
      <trkpt lat="43.02991" lon="-0.50689">
        <ele>1888.166748</ele>
        <time>2014-09-11T09:34:08Z</time>
      </trkpt>
      <trkpt lat="43.02988" lon="-0.50691">
        <ele>1890.569824</ele>
        <time>2014-09-11T09:34:17Z</time>
      </trkpt>
      <trkpt lat="43.02985" lon="-0.50688">
        <ele>1892.492676</ele>
        <time>2014-09-11T09:34:35Z</time>
      </trkpt>
      <trkpt lat="43.02981" lon="-0.50685">
        <ele>1892.492676</ele>
        <time>2014-09-11T09:34:57Z</time>
      </trkpt>
      <trkpt lat="43.02977" lon="-0.50687">
        <ele>1896.337891</ele>
        <time>2014-09-11T09:35:14Z</time>
      </trkpt>
      <trkpt lat="43.02975" lon="-0.50694">
        <ele>1896.337891</ele>
        <time>2014-09-11T09:35:38Z</time>
      </trkpt>
      <trkpt lat="43.0297" lon="-0.50698">
        <ele>1899.702393</ele>
        <time>2014-09-11T09:35:56Z</time>
      </trkpt>
      <trkpt lat="43.02969" lon="-0.50694">
        <ele>1901.625244</ele>
        <time>2014-09-11T09:36:13Z</time>
      </trkpt>
      <trkpt lat="43.02963" lon="-0.50698">
        <ele>1903.547852</ele>
        <time>2014-09-11T09:36:32Z</time>
      </trkpt>
      <trkpt lat="43.0296" lon="-0.5069">
        <ele>1905.470459</ele>
        <time>2014-09-11T09:36:48Z</time>
      </trkpt>
      <trkpt lat="43.02957" lon="-0.50689">
        <ele>1907.393066</ele>
        <time>2014-09-11T09:37:04Z</time>
      </trkpt>
      <trkpt lat="43.02956" lon="-0.50687">
        <ele>1910.276855</ele>
        <time>2014-09-11T09:37:19Z</time>
      </trkpt>
      <trkpt lat="43.02955" lon="-0.50686">
        <ele>1912.199463</ele>
        <time>2014-09-11T09:37:49Z</time>
      </trkpt>
      <trkpt lat="43.0295" lon="-0.50685">
        <ele>1914.12207</ele>
        <time>2014-09-11T09:38:06Z</time>
      </trkpt>
      <trkpt lat="43.02946" lon="-0.50691">
        <ele>1917.486816</ele>
        <time>2014-09-11T09:38:23Z</time>
      </trkpt>
      <trkpt lat="43.02942" lon="-0.5069">
        <ele>1918.928955</ele>
        <time>2014-09-11T09:38:38Z</time>
      </trkpt>
      <trkpt lat="43.02939" lon="-0.50688">
        <ele>1920.851563</ele>
        <time>2014-09-11T09:38:53Z</time>
      </trkpt>
      <trkpt lat="43.02934" lon="-0.50687">
        <ele>1922.77417</ele>
        <time>2014-09-11T09:39:11Z</time>
      </trkpt>
      <trkpt lat="43.0293" lon="-0.50688">
        <ele>1924.696777</ele>
        <time>2014-09-11T09:39:32Z</time>
      </trkpt>
      <trkpt lat="43.02928" lon="-0.50686">
        <ele>1925.657959</ele>
        <time>2014-09-11T09:39:39Z</time>
      </trkpt>
      <trkpt lat="43.02924" lon="-0.50683">
        <ele>1927.580566</ele>
        <time>2014-09-11T09:39:55Z</time>
      </trkpt>
      <trkpt lat="43.02924" lon="-0.50679">
        <ele>1928.061279</ele>
        <time>2014-09-11T09:40:10Z</time>
      </trkpt>
      <trkpt lat="43.02921" lon="-0.50678">
        <ele>1929.503174</ele>
        <time>2014-09-11T09:40:42Z</time>
      </trkpt>
      <trkpt lat="43.02917" lon="-0.5068">
        <ele>1931.425781</ele>
        <time>2014-09-11T09:41:08Z</time>
      </trkpt>
      <trkpt lat="43.02912" lon="-0.50676">
        <ele>1933.829346</ele>
        <time>2014-09-11T09:41:23Z</time>
      </trkpt>
      <trkpt lat="43.02908" lon="-0.50677">
        <ele>1935.751953</ele>
        <time>2014-09-11T09:41:33Z</time>
      </trkpt>
      <trkpt lat="43.02905" lon="-0.50685">
        <ele>1938.155273</ele>
        <time>2014-09-11T09:41:46Z</time>
      </trkpt>
      <trkpt lat="43.02905" lon="-0.50685">
        <ele>1940.55835</ele>
        <time>2014-09-11T09:42:02Z</time>
      </trkpt>
      <trkpt lat="43.02903" lon="-0.50684">
        <ele>1940.55835</ele>
        <time>2014-09-11T09:42:33Z</time>
      </trkpt>
      <trkpt lat="43.02897" lon="-0.50679">
        <ele>1942.96167</ele>
        <time>2014-09-11T09:42:46Z</time>
      </trkpt>
      <trkpt lat="43.02898" lon="-0.50679">
        <ele>1942.96167</ele>
        <time>2014-09-11T09:43:26Z</time>
      </trkpt>
      <trkpt lat="43.02896" lon="-0.50674">
        <ele>1943.442383</ele>
        <time>2014-09-11T09:43:52Z</time>
      </trkpt>
      <trkpt lat="43.02891" lon="-0.50667">
        <ele>1945.36499</ele>
        <time>2014-09-11T09:44:06Z</time>
      </trkpt>
      <trkpt lat="43.02884" lon="-0.5066">
        <ele>1947.768311</ele>
        <time>2014-09-11T09:44:21Z</time>
      </trkpt>
      <trkpt lat="43.02878" lon="-0.50652">
        <ele>1950.171875</ele>
        <time>2014-09-11T09:44:36Z</time>
      </trkpt>
      <trkpt lat="43.02875" lon="-0.50647">
        <ele>1952.574951</ele>
        <time>2014-09-11T09:44:49Z</time>
      </trkpt>
      <trkpt lat="43.02871" lon="-0.50648">
        <ele>1954.01709</ele>
        <time>2014-09-11T09:45:01Z</time>
      </trkpt>
      <trkpt lat="43.02868" lon="-0.50647">
        <ele>1956.420166</ele>
        <time>2014-09-11T09:45:13Z</time>
      </trkpt>
      <trkpt lat="43.02865" lon="-0.50643">
        <ele>1959.304199</ele>
        <time>2014-09-11T09:45:32Z</time>
      </trkpt>
      <trkpt lat="43.0286" lon="-0.50639">
        <ele>1961.70752</ele>
        <time>2014-09-11T09:45:47Z</time>
      </trkpt>
      <trkpt lat="43.02856" lon="-0.50637">
        <ele>1964.11084</ele>
        <time>2014-09-11T09:45:57Z</time>
      </trkpt>
      <trkpt lat="43.02854" lon="-0.50634">
        <ele>1965.552979</ele>
        <time>2014-09-11T09:46:12Z</time>
      </trkpt>
      <trkpt lat="43.02847" lon="-0.5063">
        <ele>1967.956055</ele>
        <time>2014-09-11T09:46:30Z</time>
      </trkpt>
      <trkpt lat="43.02842" lon="-0.50632">
        <ele>1968.91748</ele>
        <time>2014-09-11T09:46:41Z</time>
      </trkpt>
      <trkpt lat="43.02835" lon="-0.50635">
        <ele>1969.398193</ele>
        <time>2014-09-11T09:47:01Z</time>
      </trkpt>
      <trkpt lat="43.02826" lon="-0.50635">
        <ele>1968.436768</ele>
        <time>2014-09-11T09:47:16Z</time>
      </trkpt>
      <trkpt lat="43.02827" lon="-0.50634">
        <ele>1968.91748</ele>
        <time>2014-09-11T09:47:44Z</time>
      </trkpt>
      <trkpt lat="43.02831" lon="-0.50633">
        <ele>1970.359375</ele>
        <time>2014-09-11T09:48:17Z</time>
      </trkpt>
      <trkpt lat="43.02828" lon="-0.50634">
        <ele>1970.840088</ele>
        <time>2014-09-11T09:48:46Z</time>
      </trkpt>
      <trkpt lat="43.02831" lon="-0.50633">
        <ele>1970.359375</ele>
        <time>2014-09-11T09:49:06Z</time>
      </trkpt>
      <trkpt lat="43.02832" lon="-0.50635">
        <ele>1970.359375</ele>
        <time>2014-09-11T09:49:32Z</time>
      </trkpt>
      <trkpt lat="43.02829" lon="-0.50636">
        <ele>1969.398193</ele>
        <time>2014-09-11T09:49:55Z</time>
      </trkpt>
      <trkpt lat="43.02828" lon="-0.50634">
        <ele>1970.840088</ele>
        <time>2014-09-11T09:50:17Z</time>
      </trkpt>
      <trkpt lat="43.02838" lon="-0.50636">
        <ele>1970.840088</ele>
        <time>2014-09-11T09:50:34Z</time>
      </trkpt>
      <trkpt lat="43.02844" lon="-0.50634">
        <ele>1970.840088</ele>
        <time>2014-09-11T09:50:41Z</time>
      </trkpt>
      <trkpt lat="43.02847" lon="-0.50633">
        <ele>1969.398193</ele>
        <time>2014-09-11T09:50:46Z</time>
      </trkpt>
      <trkpt lat="43.02849" lon="-0.50627">
        <ele>1967.956055</ele>
        <time>2014-09-11T09:51:03Z</time>
      </trkpt>
      <trkpt lat="43.02851" lon="-0.50621">
        <ele>1966.033447</ele>
        <time>2014-09-11T09:51:17Z</time>
      </trkpt>
      <trkpt lat="43.02853" lon="-0.50617">
        <ele>1964.591553</ele>
        <time>2014-09-11T09:51:36Z</time>
      </trkpt>
      <trkpt lat="43.02854" lon="-0.50612">
        <ele>1961.226807</ele>
        <time>2014-09-11T09:52:00Z</time>
      </trkpt>
      <trkpt lat="43.02854" lon="-0.50612">
        <ele>1961.226807</ele>
        <time>2014-09-11T09:52:01Z</time>
      </trkpt>
      <trkpt lat="43.02851" lon="-0.50615">
        <ele>1960.265381</ele>
        <time>2014-09-11T09:52:32Z</time>
      </trkpt>
      <trkpt lat="43.02854" lon="-0.50609">
        <ele>1958.823486</ele>
        <time>2014-09-11T09:52:48Z</time>
      </trkpt>
      <trkpt lat="43.02856" lon="-0.50603">
        <ele>1956.420166</ele>
        <time>2014-09-11T09:53:09Z</time>
      </trkpt>
      <trkpt lat="43.02855" lon="-0.50598">
        <ele>1955.939453</ele>
        <time>2014-09-11T09:53:44Z</time>
      </trkpt>
      <trkpt lat="43.02857" lon="-0.50592">
        <ele>1954.01709</ele>
        <time>2014-09-11T09:54:09Z</time>
      </trkpt>
      <trkpt lat="43.02859" lon="-0.50583">
        <ele>1950.652344</ele>
        <time>2014-09-11T09:54:29Z</time>
      </trkpt>
      <trkpt lat="43.02858" lon="-0.50583">
        <ele>1949.691162</ele>
        <time>2014-09-11T09:54:53Z</time>
      </trkpt>
      <trkpt lat="43.02862" lon="-0.5058">
        <ele>1946.326416</ele>
        <time>2014-09-11T09:55:18Z</time>
      </trkpt>
      <trkpt lat="43.02861" lon="-0.50576">
        <ele>1944.884277</ele>
        <time>2014-09-11T09:55:38Z</time>
      </trkpt>
      <trkpt lat="43.02863" lon="-0.50575">
        <ele>1943.442383</ele>
        <time>2014-09-11T09:55:57Z</time>
      </trkpt>
      <trkpt lat="43.02864" lon="-0.5057">
        <ele>1943.442383</ele>
        <time>2014-09-11T09:56:15Z</time>
      </trkpt>
      <trkpt lat="43.02867" lon="-0.50567">
        <ele>1940.077881</ele>
        <time>2014-09-11T09:56:34Z</time>
      </trkpt>
      <trkpt lat="43.02869" lon="-0.50564">
        <ele>1937.674561</ele>
        <time>2014-09-11T09:56:53Z</time>
      </trkpt>
      <trkpt lat="43.02867" lon="-0.50557">
        <ele>1935.751953</ele>
        <time>2014-09-11T09:57:09Z</time>
      </trkpt>
      <trkpt lat="43.02867" lon="-0.50552">
        <ele>1932.387451</ele>
        <time>2014-09-11T09:57:35Z</time>
      </trkpt>
      <trkpt lat="43.02862" lon="-0.50549">
        <ele>1929.022461</ele>
        <time>2014-09-11T09:58:19Z</time>
      </trkpt>
      <trkpt lat="43.02867" lon="-0.50544">
        <ele>1925.657959</ele>
        <time>2014-09-11T09:59:19Z</time>
      </trkpt>
      <trkpt lat="43.02868" lon="-0.50539">
        <ele>1924.216064</ele>
        <time>2014-09-11T09:59:53Z</time>
      </trkpt>
      <trkpt lat="43.02861" lon="-0.50537">
        <ele>1920.851563</ele>
        <time>2014-09-11T10:00:38Z</time>
      </trkpt>
      <trkpt lat="43.02864" lon="-0.50529">
        <ele>1917.967529</ele>
        <time>2014-09-11T10:01:10Z</time>
      </trkpt>
      <trkpt lat="43.0287" lon="-0.50514">
        <ele>1914.602783</ele>
        <time>2014-09-11T10:01:33Z</time>
      </trkpt>
      <trkpt lat="43.02872" lon="-0.50507">
        <ele>1911.718994</ele>
        <time>2014-09-11T10:01:58Z</time>
      </trkpt>
      <trkpt lat="43.02874" lon="-0.50508">
        <ele>1909.796143</ele>
        <time>2014-09-11T10:02:16Z</time>
      </trkpt>
      <trkpt lat="43.02876" lon="-0.50505">
        <ele>1908.354248</ele>
        <time>2014-09-11T10:02:20Z</time>
      </trkpt>
      <trkpt lat="43.02872" lon="-0.50492">
        <ele>1905.470459</ele>
        <time>2014-09-11T10:02:50Z</time>
      </trkpt>
      <trkpt lat="43.02879" lon="-0.50489">
        <ele>1903.547852</ele>
        <time>2014-09-11T10:03:19Z</time>
      </trkpt>
      <trkpt lat="43.02882" lon="-0.50485">
        <ele>1902.105713</ele>
        <time>2014-09-11T10:03:35Z</time>
      </trkpt>
      <trkpt lat="43.0288" lon="-0.50474">
        <ele>1902.105713</ele>
        <time>2014-09-11T10:03:49Z</time>
      </trkpt>
      <trkpt lat="43.02877" lon="-0.50457">
        <ele>1901.144531</ele>
        <time>2014-09-11T10:04:07Z</time>
      </trkpt>
      <trkpt lat="43.02876" lon="-0.50454">
        <ele>1899.702393</ele>
        <time>2014-09-11T10:04:10Z</time>
      </trkpt>
      <trkpt lat="43.02874" lon="-0.50449">
        <ele>1898.740967</ele>
        <time>2014-09-11T10:04:28Z</time>
      </trkpt>
      <trkpt lat="43.02875" lon="-0.50438">
        <ele>1897.779785</ele>
        <time>2014-09-11T10:04:42Z</time>
      </trkpt>
      <trkpt lat="43.02875" lon="-0.50424">
        <ele>1894.895752</ele>
        <time>2014-09-11T10:04:57Z</time>
      </trkpt>
      <trkpt lat="43.02873" lon="-0.50424">
        <ele>1891.53125</ele>
        <time>2014-09-11T10:06:01Z</time>
      </trkpt>
      <trkpt lat="43.02874" lon="-0.50414">
        <ele>1889.12793</ele>
        <time>2014-09-11T10:06:16Z</time>
      </trkpt>
      <trkpt lat="43.02877" lon="-0.50408">
        <ele>1885.763428</ele>
        <time>2014-09-11T10:06:32Z</time>
      </trkpt>
      <trkpt lat="43.02874" lon="-0.50399">
        <ele>1882.398682</ele>
        <time>2014-09-11T10:06:56Z</time>
      </trkpt>
      <trkpt lat="43.02876" lon="-0.504">
        <ele>1880.476074</ele>
        <time>2014-09-11T10:07:01Z</time>
      </trkpt>
      <trkpt lat="43.02878" lon="-0.50388">
        <ele>1877.592041</ele>
        <time>2014-09-11T10:07:31Z</time>
      </trkpt>
      <trkpt lat="43.02876" lon="-0.50381">
        <ele>1876.630859</ele>
        <time>2014-09-11T10:07:46Z</time>
      </trkpt>
      <trkpt lat="43.02872" lon="-0.50373">
        <ele>1874.708252</ele>
        <time>2014-09-11T10:08:01Z</time>
      </trkpt>
      <trkpt lat="43.02875" lon="-0.50364">
        <ele>1873.266357</ele>
        <time>2014-09-11T10:08:18Z</time>
      </trkpt>
      <trkpt lat="43.02876" lon="-0.50356">
        <ele>1874.708252</ele>
        <time>2014-09-11T10:08:36Z</time>
      </trkpt>
      <trkpt lat="43.0288" lon="-0.50343">
        <ele>1876.150146</ele>
        <time>2014-09-11T10:08:51Z</time>
      </trkpt>
      <trkpt lat="43.02879" lon="-0.50334">
        <ele>1875.669434</ele>
        <time>2014-09-11T10:09:09Z</time>
      </trkpt>
      <trkpt lat="43.02878" lon="-0.50324">
        <ele>1878.072754</ele>
        <time>2014-09-11T10:09:19Z</time>
      </trkpt>
      <trkpt lat="43.02877" lon="-0.50311">
        <ele>1879.514648</ele>
        <time>2014-09-11T10:09:35Z</time>
      </trkpt>
      <trkpt lat="43.02875" lon="-0.5031">
        <ele>1879.514648</ele>
        <time>2014-09-11T10:09:38Z</time>
      </trkpt>
      <trkpt lat="43.02874" lon="-0.50295">
        <ele>1881.437256</ele>
        <time>2014-09-11T10:09:58Z</time>
      </trkpt>
      <trkpt lat="43.02875" lon="-0.50288">
        <ele>1883.840576</ele>
        <time>2014-09-11T10:10:14Z</time>
      </trkpt>
      <trkpt lat="43.02879" lon="-0.50278">
        <ele>1884.321533</ele>
        <time>2014-09-11T10:10:29Z</time>
      </trkpt>
      <trkpt lat="43.0288" lon="-0.50268">
        <ele>1887.686035</ele>
        <time>2014-09-11T10:10:39Z</time>
      </trkpt>
      <trkpt lat="43.02876" lon="-0.50258">
        <ele>1888.166748</ele>
        <time>2014-09-11T10:10:55Z</time>
      </trkpt>
      <trkpt lat="43.02874" lon="-0.50254">
        <ele>1888.166748</ele>
        <time>2014-09-11T10:11:14Z</time>
      </trkpt>
      <trkpt lat="43.02875" lon="-0.50264">
        <ele>1888.647461</ele>
        <time>2014-09-11T10:11:32Z</time>
      </trkpt>
      <trkpt lat="43.02881" lon="-0.50265">
        <ele>1889.12793</ele>
        <time>2014-09-11T10:11:59Z</time>
      </trkpt>
      <trkpt lat="43.02878" lon="-0.50251">
        <ele>1888.166748</ele>
        <time>2014-09-11T10:12:15Z</time>
      </trkpt>
      <trkpt lat="43.02877" lon="-0.50251">
        <ele>1887.686035</ele>
        <time>2014-09-11T10:12:35Z</time>
      </trkpt>
      <trkpt lat="43.02876" lon="-0.50251">
        <ele>1886.724609</ele>
        <time>2014-09-11T10:12:48Z</time>
      </trkpt>
      <trkpt lat="43.02873" lon="-0.50252">
        <ele>1886.244141</ele>
        <time>2014-09-11T10:13:45Z</time>
      </trkpt>
      <trkpt lat="43.02879" lon="-0.50248">
        <ele>1886.724609</ele>
        <time>2014-09-11T10:14:15Z</time>
      </trkpt>
      <trkpt lat="43.02876" lon="-0.50251">
        <ele>1886.724609</ele>
        <time>2014-09-11T10:15:12Z</time>
      </trkpt>
      <trkpt lat="43.02875" lon="-0.50252">
        <ele>1887.205322</ele>
        <time>2014-09-11T10:15:36Z</time>
      </trkpt>
      <trkpt lat="43.02873" lon="-0.50254">
        <ele>1886.724609</ele>
        <time>2014-09-11T10:17:08Z</time>
      </trkpt>
      <trkpt lat="43.02875" lon="-0.50255">
        <ele>1887.205322</ele>
        <time>2014-09-11T10:19:33Z</time>
      </trkpt>
      <trkpt lat="43.02874" lon="-0.50253">
        <ele>1888.166748</ele>
        <time>2014-09-11T10:20:23Z</time>
      </trkpt>
      <trkpt lat="43.02872" lon="-0.50254">
        <ele>1887.686035</ele>
        <time>2014-09-11T10:21:10Z</time>
      </trkpt>
      <trkpt lat="43.02874" lon="-0.50253">
        <ele>1887.686035</ele>
        <time>2014-09-11T10:22:09Z</time>
      </trkpt>
      <trkpt lat="43.02873" lon="-0.50255">
        <ele>1888.166748</ele>
        <time>2014-09-11T10:22:54Z</time>
      </trkpt>
      <trkpt lat="43.02878" lon="-0.50251">
        <ele>1887.205322</ele>
        <time>2014-09-11T10:24:10Z</time>
      </trkpt>
      <trkpt lat="43.02877" lon="-0.50252">
        <ele>1887.205322</ele>
        <time>2014-09-11T10:24:43Z</time>
      </trkpt>
      <trkpt lat="43.02875" lon="-0.50254">
        <ele>1886.724609</ele>
        <time>2014-09-11T10:25:09Z</time>
      </trkpt>
      <trkpt lat="43.02875" lon="-0.50254">
        <ele>1886.724609</ele>
        <time>2014-09-11T10:25:49Z</time>
      </trkpt>
      <trkpt lat="43.02874" lon="-0.50254">
        <ele>1886.244141</ele>
        <time>2014-09-11T10:26:15Z</time>
      </trkpt>
      <trkpt lat="43.02874" lon="-0.50256">
        <ele>1886.244141</ele>
        <time>2014-09-11T10:27:22Z</time>
      </trkpt>
      <trkpt lat="43.02872" lon="-0.50256">
        <ele>1887.205322</ele>
        <time>2014-09-11T10:27:58Z</time>
      </trkpt>
      <trkpt lat="43.02874" lon="-0.50253">
        <ele>1887.205322</ele>
        <time>2014-09-11T10:28:25Z</time>
      </trkpt>
      <trkpt lat="43.02874" lon="-0.50253">
        <ele>1887.686035</ele>
        <time>2014-09-11T10:28:58Z</time>
      </trkpt>
      <trkpt lat="43.02875" lon="-0.50253">
        <ele>1887.686035</ele>
        <time>2014-09-11T10:29:25Z</time>
      </trkpt>
      <trkpt lat="43.02873" lon="-0.50255">
        <ele>1887.205322</ele>
        <time>2014-09-11T10:29:46Z</time>
      </trkpt>
      <trkpt lat="43.02872" lon="-0.50256">
        <ele>1887.686035</ele>
        <time>2014-09-11T10:30:11Z</time>
      </trkpt>
      <trkpt lat="43.02877" lon="-0.50251">
        <ele>1887.686035</ele>
        <time>2014-09-11T10:31:06Z</time>
      </trkpt>
      <trkpt lat="43.02872" lon="-0.50256">
        <ele>1887.686035</ele>
        <time>2014-09-11T10:31:32Z</time>
      </trkpt>
      <trkpt lat="43.02873" lon="-0.50255">
        <ele>1887.205322</ele>
        <time>2014-09-11T10:31:57Z</time>
      </trkpt>
      <trkpt lat="43.02875" lon="-0.50255">
        <ele>1886.724609</ele>
        <time>2014-09-11T10:32:25Z</time>
      </trkpt>
      <trkpt lat="43.02873" lon="-0.50251">
        <ele>1887.205322</ele>
        <time>2014-09-11T10:32:47Z</time>
      </trkpt>
      <trkpt lat="43.02873" lon="-0.50254">
        <ele>1887.205322</ele>
        <time>2014-09-11T10:33:39Z</time>
      </trkpt>
      <trkpt lat="43.02872" lon="-0.50255">
        <ele>1887.205322</ele>
        <time>2014-09-11T10:35:10Z</time>
      </trkpt>
      <trkpt lat="43.02872" lon="-0.50255">
        <ele>1886.724609</ele>
        <time>2014-09-11T10:35:39Z</time>
      </trkpt>
      <trkpt lat="43.02872" lon="-0.50256">
        <ele>1887.205322</ele>
        <time>2014-09-11T10:36:15Z</time>
      </trkpt>
      <trkpt lat="43.02875" lon="-0.50255">
        <ele>1886.244141</ele>
        <time>2014-09-11T10:36:32Z</time>
      </trkpt>
      <trkpt lat="43.02873" lon="-0.50255">
        <ele>1887.205322</ele>
        <time>2014-09-11T10:36:54Z</time>
      </trkpt>
      <trkpt lat="43.02871" lon="-0.50255">
        <ele>1886.244141</ele>
        <time>2014-09-11T10:37:14Z</time>
      </trkpt>
      <trkpt lat="43.02872" lon="-0.50254">
        <ele>1886.724609</ele>
        <time>2014-09-11T10:38:08Z</time>
      </trkpt>
      <trkpt lat="43.02875" lon="-0.50254">
        <ele>1886.724609</ele>
        <time>2014-09-11T10:38:31Z</time>
      </trkpt>
      <trkpt lat="43.02876" lon="-0.50253">
        <ele>1887.686035</ele>
        <time>2014-09-11T10:39:18Z</time>
      </trkpt>
      <trkpt lat="43.02876" lon="-0.50254">
        <ele>1887.205322</ele>
        <time>2014-09-11T10:39:55Z</time>
      </trkpt>
      <trkpt lat="43.02875" lon="-0.50252">
        <ele>1888.647461</ele>
        <time>2014-09-11T10:40:47Z</time>
      </trkpt>
      <trkpt lat="43.02874" lon="-0.50253">
        <ele>1887.686035</ele>
        <time>2014-09-11T10:41:18Z</time>
      </trkpt>
      <trkpt lat="43.02874" lon="-0.50255">
        <ele>1888.647461</ele>
        <time>2014-09-11T10:41:51Z</time>
      </trkpt>
      <trkpt lat="43.02874" lon="-0.50253">
        <ele>1888.166748</ele>
        <time>2014-09-11T10:42:57Z</time>
      </trkpt>
      <trkpt lat="43.02874" lon="-0.50253">
        <ele>1888.647461</ele>
        <time>2014-09-11T10:43:35Z</time>
      </trkpt>
      <trkpt lat="43.02875" lon="-0.50253">
        <ele>1889.608643</ele>
        <time>2014-09-11T10:45:25Z</time>
      </trkpt>
      <trkpt lat="43.02876" lon="-0.50253">
        <ele>1887.686035</ele>
        <time>2014-09-11T10:45:55Z</time>
      </trkpt>
      <trkpt lat="43.02876" lon="-0.50253">
        <ele>1890.089355</ele>
        <time>2014-09-11T10:45:58Z</time>
      </trkpt>
      <trkpt lat="43.02876" lon="-0.50252">
        <ele>1889.12793</ele>
        <time>2014-09-11T10:46:16Z</time>
      </trkpt>
      <trkpt lat="43.02876" lon="-0.50253">
        <ele>1888.647461</ele>
        <time>2014-09-11T10:46:35Z</time>
      </trkpt>
      <trkpt lat="43.02874" lon="-0.50254">
        <ele>1889.12793</ele>
        <time>2014-09-11T10:47:19Z</time>
      </trkpt>
      <trkpt lat="43.02876" lon="-0.50249">
        <ele>1889.608643</ele>
        <time>2014-09-11T10:47:40Z</time>
      </trkpt>
      <trkpt lat="43.02873" lon="-0.50236">
        <ele>1887.205322</ele>
        <time>2014-09-11T10:47:59Z</time>
      </trkpt>
      <trkpt lat="43.02869" lon="-0.50224">
        <ele>1888.647461</ele>
        <time>2014-09-11T10:48:13Z</time>
      </trkpt>
      <trkpt lat="43.02867" lon="-0.50214">
        <ele>1890.569824</ele>
        <time>2014-09-11T10:48:29Z</time>
      </trkpt>
      <trkpt lat="43.02863" lon="-0.50204">
        <ele>1892.973145</ele>
        <time>2014-09-11T10:48:43Z</time>
      </trkpt>
      <trkpt lat="43.02855" lon="-0.50193">
        <ele>1894.415039</ele>
        <time>2014-09-11T10:48:58Z</time>
      </trkpt>
      <trkpt lat="43.02854" lon="-0.50192">
        <ele>1893.93457</ele>
        <time>2014-09-11T10:48:59Z</time>
      </trkpt>
      <trkpt lat="43.02851" lon="-0.50183">
        <ele>1896.337891</ele>
        <time>2014-09-11T10:49:09Z</time>
      </trkpt>
      <trkpt lat="43.02847" lon="-0.50173">
        <ele>1898.740967</ele>
        <time>2014-09-11T10:49:20Z</time>
      </trkpt>
      <trkpt lat="43.02844" lon="-0.50161">
        <ele>1900.663818</ele>
        <time>2014-09-11T10:49:32Z</time>
      </trkpt>
      <trkpt lat="43.02843" lon="-0.50154">
        <ele>1904.028564</ele>
        <time>2014-09-11T10:49:41Z</time>
      </trkpt>
      <trkpt lat="43.02843" lon="-0.5015">
        <ele>1905.950928</ele>
        <time>2014-09-11T10:49:47Z</time>
      </trkpt>
      <trkpt lat="43.02841" lon="-0.5014">
        <ele>1907.393066</ele>
        <time>2014-09-11T10:49:59Z</time>
      </trkpt>
      <trkpt lat="43.02837" lon="-0.50134">
        <ele>1910.757568</ele>
        <time>2014-09-11T10:50:08Z</time>
      </trkpt>
      <trkpt lat="43.02833" lon="-0.50125">
        <ele>1913.160889</ele>
        <time>2014-09-11T10:50:21Z</time>
      </trkpt>
      <trkpt lat="43.02827" lon="-0.50117">
        <ele>1914.12207</ele>
        <time>2014-09-11T10:50:33Z</time>
      </trkpt>
      <trkpt lat="43.02824" lon="-0.50112">
        <ele>1914.12207</ele>
        <time>2014-09-11T10:50:49Z</time>
      </trkpt>
      <trkpt lat="43.0282" lon="-0.50102">
        <ele>1917.486816</ele>
        <time>2014-09-11T10:51:02Z</time>
      </trkpt>
      <trkpt lat="43.02818" lon="-0.50093">
        <ele>1919.890137</ele>
        <time>2014-09-11T10:51:15Z</time>
      </trkpt>
      <trkpt lat="43.02815" lon="-0.50086">
        <ele>1922.293457</ele>
        <time>2014-09-11T10:51:26Z</time>
      </trkpt>
      <trkpt lat="43.02814" lon="-0.50075">
        <ele>1925.657959</ele>
        <time>2014-09-11T10:51:47Z</time>
      </trkpt>
      <trkpt lat="43.02816" lon="-0.50071">
        <ele>1928.061279</ele>
        <time>2014-09-11T10:52:01Z</time>
      </trkpt>
      <trkpt lat="43.02819" lon="-0.50075">
        <ele>1930.4646</ele>
        <time>2014-09-11T10:52:22Z</time>
      </trkpt>
      <trkpt lat="43.02823" lon="-0.50075">
        <ele>1933.829346</ele>
        <time>2014-09-11T10:52:36Z</time>
      </trkpt>
      <trkpt lat="43.02828" lon="-0.50078">
        <ele>1934.790771</ele>
        <time>2014-09-11T10:52:52Z</time>
      </trkpt>
      <trkpt lat="43.02834" lon="-0.50077">
        <ele>1938.155273</ele>
        <time>2014-09-11T10:53:07Z</time>
      </trkpt>
      <trkpt lat="43.02837" lon="-0.5007">
        <ele>1940.55835</ele>
        <time>2014-09-11T10:53:21Z</time>
      </trkpt>
      <trkpt lat="43.02838" lon="-0.50068">
        <ele>1942.000488</ele>
        <time>2014-09-11T10:53:23Z</time>
      </trkpt>
      <trkpt lat="43.02838" lon="-0.50066">
        <ele>1942.481201</ele>
        <time>2014-09-11T10:53:41Z</time>
      </trkpt>
      <trkpt lat="43.02836" lon="-0.50057">
        <ele>1943.923096</ele>
        <time>2014-09-11T10:53:58Z</time>
      </trkpt>
      <trkpt lat="43.02835" lon="-0.50052">
        <ele>1946.326416</ele>
        <time>2014-09-11T10:54:02Z</time>
      </trkpt>
      <trkpt lat="43.02833" lon="-0.50041">
        <ele>1949.691162</ele>
        <time>2014-09-11T10:54:15Z</time>
      </trkpt>
      <trkpt lat="43.0283" lon="-0.50033">
        <ele>1952.574951</ele>
        <time>2014-09-11T10:54:24Z</time>
      </trkpt>
      <trkpt lat="43.0283" lon="-0.50031">
        <ele>1953.536377</ele>
        <time>2014-09-11T10:54:26Z</time>
      </trkpt>
      <trkpt lat="43.02824" lon="-0.5002">
        <ele>1957.381592</ele>
        <time>2014-09-11T10:54:39Z</time>
      </trkpt>
      <trkpt lat="43.02822" lon="-0.50012">
        <ele>1960.746094</ele>
        <time>2014-09-11T10:54:49Z</time>
      </trkpt>
      <trkpt lat="43.02821" lon="-0.5">
        <ele>1963.149414</ele>
        <time>2014-09-11T10:55:00Z</time>
      </trkpt>
      <trkpt lat="43.02819" lon="-0.49994">
        <ele>1964.591553</ele>
        <time>2014-09-11T10:55:06Z</time>
      </trkpt>
      <trkpt lat="43.02817" lon="-0.49986">
        <ele>1967.475342</ele>
        <time>2014-09-11T10:55:15Z</time>
      </trkpt>
      <trkpt lat="43.02818" lon="-0.49979">
        <ele>1968.436768</ele>
        <time>2014-09-11T10:55:31Z</time>
      </trkpt>
      <trkpt lat="43.02819" lon="-0.49976">
        <ele>1968.436768</ele>
        <time>2014-09-11T10:55:36Z</time>
      </trkpt>
      <trkpt lat="43.02821" lon="-0.4997">
        <ele>1969.878662</ele>
        <time>2014-09-11T10:55:43Z</time>
      </trkpt>
      <trkpt lat="43.02826" lon="-0.49959">
        <ele>1973.243408</ele>
        <time>2014-09-11T10:55:56Z</time>
      </trkpt>
      <trkpt lat="43.02828" lon="-0.49956">
        <ele>1973.243408</ele>
        <time>2014-09-11T10:56:12Z</time>
      </trkpt>
      <trkpt lat="43.02827" lon="-0.4996">
        <ele>1972.281982</ele>
        <time>2014-09-11T10:56:53Z</time>
      </trkpt>
      <trkpt lat="43.02822" lon="-0.4997">
        <ele>1969.398193</ele>
        <time>2014-09-11T10:57:10Z</time>
      </trkpt>
      <trkpt lat="43.02818" lon="-0.49976">
        <ele>1968.91748</ele>
        <time>2014-09-11T10:58:02Z</time>
      </trkpt>
      <trkpt lat="43.02815" lon="-0.49989">
        <ele>1966.033447</ele>
        <time>2014-09-11T10:58:19Z</time>
      </trkpt>
      <trkpt lat="43.02818" lon="-0.49999">
        <ele>1963.629883</ele>
        <time>2014-09-11T10:58:30Z</time>
      </trkpt>
      <trkpt lat="43.02819" lon="-0.50006">
        <ele>1961.70752</ele>
        <time>2014-09-11T10:58:37Z</time>
      </trkpt>
      <trkpt lat="43.02818" lon="-0.50007">
        <ele>1961.70752</ele>
        <time>2014-09-11T10:58:38Z</time>
      </trkpt>
      <trkpt lat="43.0282" lon="-0.50021">
        <ele>1957.862305</ele>
        <time>2014-09-11T10:58:53Z</time>
      </trkpt>
      <trkpt lat="43.0282" lon="-0.50022">
        <ele>1957.862305</ele>
        <time>2014-09-11T10:58:54Z</time>
      </trkpt>
      <trkpt lat="43.02823" lon="-0.50028">
        <ele>1954.01709</ele>
        <time>2014-09-11T10:59:08Z</time>
      </trkpt>
      <trkpt lat="43.02827" lon="-0.5004">
        <ele>1951.133057</ele>
        <time>2014-09-11T10:59:26Z</time>
      </trkpt>
      <trkpt lat="43.02829" lon="-0.50047">
        <ele>1948.729736</ele>
        <time>2014-09-11T10:59:41Z</time>
      </trkpt>
      <trkpt lat="43.02829" lon="-0.50047">
        <ele>1947.768311</ele>
        <time>2014-09-11T10:59:43Z</time>
      </trkpt>
      <trkpt lat="43.02831" lon="-0.50056">
        <ele>1944.884277</ele>
        <time>2014-09-11T10:59:59Z</time>
      </trkpt>
      <trkpt lat="43.02834" lon="-0.50065">
        <ele>1943.923096</ele>
        <time>2014-09-11T11:00:15Z</time>
      </trkpt>
      <trkpt lat="43.02834" lon="-0.50069">
        <ele>1942.000488</ele>
        <time>2014-09-11T11:00:20Z</time>
      </trkpt>
      <trkpt lat="43.02844" lon="-0.5009">
        <ele>1943.442383</ele>
        <time>2014-09-11T11:00:37Z</time>
      </trkpt>
      <trkpt lat="43.02849" lon="-0.50104">
        <ele>1945.36499</ele>
        <time>2014-09-11T11:00:54Z</time>
      </trkpt>
    </trkseg>
  </trk>
  <trk>
    <name><![CDATA[ACTIVE LOG 001]]></name>
    <trkseg>
      <trkpt lat="43.02849" lon="-0.50104">
        <ele>1844.426514</ele>
        <time>2014-09-11T11:07:56Z</time>
      </trkpt>
    </trkseg>
  </trk>
  <trk>
    <name><![CDATA[ACTIVE LOG 002]]></name>
    <trkseg>
      <trkpt lat="43.02885" lon="-0.50254">
        <ele>1840.10083</ele>
        <time>2014-09-11T11:07:57Z</time>
      </trkpt>
      <trkpt lat="43.02878" lon="-0.50253">
        <ele>1840.10083</ele>
        <time>2014-09-11T11:07:59Z</time>
      </trkpt>
      <trkpt lat="43.02876" lon="-0.50266">
        <ele>1842.984619</ele>
        <time>2014-09-11T11:08:03Z</time>
      </trkpt>
      <trkpt lat="43.02876" lon="-0.50266">
        <ele>1842.984619</ele>
        <time>2014-09-11T11:08:04Z</time>
      </trkpt>
      <trkpt lat="43.02873" lon="-0.50254">
        <ele>1846.829834</ele>
        <time>2014-09-11T11:08:08Z</time>
      </trkpt>
      <trkpt lat="43.02874" lon="-0.50253">
        <ele>1850.19458</ele>
        <time>2014-09-11T11:08:11Z</time>
      </trkpt>
      <trkpt lat="43.02875" lon="-0.50253">
        <ele>1854.520508</ele>
        <time>2014-09-11T11:08:15Z</time>
      </trkpt>
      <trkpt lat="43.02876" lon="-0.50253">
        <ele>1857.404541</ele>
        <time>2014-09-11T11:08:18Z</time>
      </trkpt>
      <trkpt lat="43.02876" lon="-0.50253">
        <ele>1860.769043</ele>
        <time>2014-09-11T11:08:22Z</time>
      </trkpt>
      <trkpt lat="43.02876" lon="-0.50254">
        <ele>1865.094971</ele>
        <time>2014-09-11T11:08:25Z</time>
      </trkpt>
      <trkpt lat="43.02876" lon="-0.50254">
        <ele>1864.614258</ele>
        <time>2014-09-11T11:08:26Z</time>
      </trkpt>
      <trkpt lat="43.02875" lon="-0.50255">
        <ele>1868.459717</ele>
        <time>2014-09-11T11:08:29Z</time>
      </trkpt>
      <trkpt lat="43.02875" lon="-0.5026">
        <ele>1871.824219</ele>
        <time>2014-09-11T11:08:37Z</time>
      </trkpt>
      <trkpt lat="43.02875" lon="-0.50261">
        <ele>1872.304932</ele>
        <time>2014-09-11T11:08:38Z</time>
      </trkpt>
      <trkpt lat="43.02875" lon="-0.50266">
        <ele>1876.150146</ele>
        <time>2014-09-11T11:08:45Z</time>
      </trkpt>
      <trkpt lat="43.02875" lon="-0.50268">
        <ele>1878.553467</ele>
        <time>2014-09-11T11:08:50Z</time>
      </trkpt>
      <trkpt lat="43.02875" lon="-0.5027">
        <ele>1880.476074</ele>
        <time>2014-09-11T11:08:54Z</time>
      </trkpt>
      <trkpt lat="43.02876" lon="-0.50273">
        <ele>1882.398682</ele>
        <time>2014-09-11T11:08:59Z</time>
      </trkpt>
      <trkpt lat="43.02875" lon="-0.50285">
        <ele>1881.917969</ele>
        <time>2014-09-11T11:09:15Z</time>
      </trkpt>
      <trkpt lat="43.02871" lon="-0.50291">
        <ele>1880.476074</ele>
        <time>2014-09-11T11:09:30Z</time>
      </trkpt>
      <trkpt lat="43.0287" lon="-0.50298">
        <ele>1881.917969</ele>
        <time>2014-09-11T11:09:44Z</time>
      </trkpt>
      <trkpt lat="43.02871" lon="-0.50312">
        <ele>1880.476074</ele>
        <time>2014-09-11T11:09:58Z</time>
      </trkpt>
      <trkpt lat="43.02872" lon="-0.50314">
        <ele>1880.476074</ele>
        <time>2014-09-11T11:10:00Z</time>
      </trkpt>
      <trkpt lat="43.02874" lon="-0.5032">
        <ele>1881.437256</ele>
        <time>2014-09-11T11:10:05Z</time>
      </trkpt>
      <trkpt lat="43.02875" lon="-0.50326">
        <ele>1881.917969</ele>
        <time>2014-09-11T11:10:21Z</time>
      </trkpt>
      <trkpt lat="43.02875" lon="-0.50333">
        <ele>1880.476074</ele>
        <time>2014-09-11T11:10:32Z</time>
      </trkpt>
      <trkpt lat="43.02873" lon="-0.5034">
        <ele>1879.514648</ele>
        <time>2014-09-11T11:10:37Z</time>
      </trkpt>
      <trkpt lat="43.02873" lon="-0.50345">
        <ele>1879.033936</ele>
        <time>2014-09-11T11:10:40Z</time>
      </trkpt>
      <trkpt lat="43.02874" lon="-0.50349">
        <ele>1879.033936</ele>
        <time>2014-09-11T11:10:42Z</time>
      </trkpt>
      <trkpt lat="43.02872" lon="-0.50365">
        <ele>1877.111572</ele>
        <time>2014-09-11T11:10:57Z</time>
      </trkpt>
      <trkpt lat="43.02874" lon="-0.5037">
        <ele>1875.669434</ele>
        <time>2014-09-11T11:11:03Z</time>
      </trkpt>
      <trkpt lat="43.02881" lon="-0.50366">
        <ele>1872.304932</ele>
        <time>2014-09-11T11:11:13Z</time>
      </trkpt>
      <trkpt lat="43.02889" lon="-0.50357">
        <ele>1868.94043</ele>
        <time>2014-09-11T11:11:27Z</time>
      </trkpt>
      <trkpt lat="43.02897" lon="-0.50349">
        <ele>1866.056152</ele>
        <time>2014-09-11T11:11:43Z</time>
      </trkpt>
      <trkpt lat="43.02902" lon="-0.50342">
        <ele>1862.69165</ele>
        <time>2014-09-11T11:11:54Z</time>
      </trkpt>
      <trkpt lat="43.02902" lon="-0.50332">
        <ele>1860.28833</ele>
        <time>2014-09-11T11:12:10Z</time>
      </trkpt>
      <trkpt lat="43.02904" lon="-0.50329">
        <ele>1856.923828</ele>
        <time>2014-09-11T11:12:24Z</time>
      </trkpt>
      <trkpt lat="43.02906" lon="-0.50326">
        <ele>1856.443115</ele>
        <time>2014-09-11T11:12:41Z</time>
      </trkpt>
      <trkpt lat="43.02914" lon="-0.50323">
        <ele>1855.001221</ele>
        <time>2014-09-11T11:12:52Z</time>
      </trkpt>
      <trkpt lat="43.02913" lon="-0.5032">
        <ele>1852.5979</ele>
        <time>2014-09-11T11:13:06Z</time>
      </trkpt>
      <trkpt lat="43.02913" lon="-0.50316">
        <ele>1851.636475</ele>
        <time>2014-09-11T11:13:20Z</time>
      </trkpt>
      <trkpt lat="43.02915" lon="-0.50316">
        <ele>1850.19458</ele>
        <time>2014-09-11T11:13:39Z</time>
      </trkpt>
      <trkpt lat="43.02919" lon="-0.50309">
        <ele>1847.310547</ele>
        <time>2014-09-11T11:13:52Z</time>
      </trkpt>
      <trkpt lat="43.02924" lon="-0.50302">
        <ele>1844.907227</ele>
        <time>2014-09-11T11:14:08Z</time>
      </trkpt>
      <trkpt lat="43.02929" lon="-0.50297">
        <ele>1842.50415</ele>
        <time>2014-09-11T11:14:24Z</time>
      </trkpt>
      <trkpt lat="43.02933" lon="-0.50294">
        <ele>1840.581299</ele>
        <time>2014-09-11T11:14:43Z</time>
      </trkpt>
      <trkpt lat="43.02935" lon="-0.50298">
        <ele>1837.69751</ele>
        <time>2014-09-11T11:15:00Z</time>
      </trkpt>
      <trkpt lat="43.02937" lon="-0.50306">
        <ele>1835.293945</ele>
        <time>2014-09-11T11:15:16Z</time>
      </trkpt>
      <trkpt lat="43.0294" lon="-0.50312">
        <ele>1832.890625</ele>
        <time>2014-09-11T11:15:30Z</time>
      </trkpt>
      <trkpt lat="43.02943" lon="-0.50314">
        <ele>1830.487549</ele>
        <time>2014-09-11T11:15:43Z</time>
      </trkpt>
      <trkpt lat="43.0295" lon="-0.50315">
        <ele>1827.123047</ele>
        <time>2014-09-11T11:15:56Z</time>
      </trkpt>
      <trkpt lat="43.0296" lon="-0.50314">
        <ele>1825.680908</ele>
        <time>2014-09-11T11:16:12Z</time>
      </trkpt>
      <trkpt lat="43.02963" lon="-0.50315">
        <ele>1823.758301</ele>
        <time>2014-09-11T11:16:27Z</time>
      </trkpt>
      <trkpt lat="43.02969" lon="-0.50312">
        <ele>1820.874512</ele>
        <time>2014-09-11T11:16:44Z</time>
      </trkpt>
      <trkpt lat="43.02973" lon="-0.50316">
        <ele>1818.470947</ele>
        <time>2014-09-11T11:16:58Z</time>
      </trkpt>
      <trkpt lat="43.02982" lon="-0.5032">
        <ele>1815.106445</ele>
        <time>2014-09-11T11:17:14Z</time>
      </trkpt>
      <trkpt lat="43.0299" lon="-0.50326">
        <ele>1814.14502</ele>
        <time>2014-09-11T11:17:28Z</time>
      </trkpt>
      <trkpt lat="43.02994" lon="-0.50324">
        <ele>1813.183838</ele>
        <time>2014-09-11T11:17:39Z</time>
      </trkpt>
      <trkpt lat="43.03" lon="-0.50324">
        <ele>1812.222412</ele>
        <time>2014-09-11T11:17:48Z</time>
      </trkpt>
      <trkpt lat="43.03009" lon="-0.50322">
        <ele>1812.222412</ele>
        <time>2014-09-11T11:18:02Z</time>
      </trkpt>
      <trkpt lat="43.03021" lon="-0.50322">
        <ele>1811.741943</ele>
        <time>2014-09-11T11:18:19Z</time>
      </trkpt>
      <trkpt lat="43.0303" lon="-0.50314">
        <ele>1809.819092</ele>
        <time>2014-09-11T11:18:36Z</time>
      </trkpt>
      <trkpt lat="43.03036" lon="-0.50304">
        <ele>1806.935303</ele>
        <time>2014-09-11T11:18:49Z</time>
      </trkpt>
      <trkpt lat="43.03039" lon="-0.503">
        <ele>1805.012695</ele>
        <time>2014-09-11T11:18:56Z</time>
      </trkpt>
      <trkpt lat="43.03043" lon="-0.50295">
        <ele>1804.051514</ele>
        <time>2014-09-11T11:19:12Z</time>
      </trkpt>
      <trkpt lat="43.03059" lon="-0.50284">
        <ele>1805.012695</ele>
        <time>2014-09-11T11:19:28Z</time>
      </trkpt>
      <trkpt lat="43.03073" lon="-0.50277">
        <ele>1807.416016</ele>
        <time>2014-09-11T11:19:44Z</time>
      </trkpt>
      <trkpt lat="43.03078" lon="-0.50271">
        <ele>1807.416016</ele>
        <time>2014-09-11T11:19:59Z</time>
      </trkpt>
      <trkpt lat="43.03082" lon="-0.50265">
        <ele>1805.973877</ele>
        <time>2014-09-11T11:20:13Z</time>
      </trkpt>
      <trkpt lat="43.03091" lon="-0.50256">
        <ele>1805.493408</ele>
        <time>2014-09-11T11:20:28Z</time>
      </trkpt>
      <trkpt lat="43.03096" lon="-0.50251">
        <ele>1805.012695</ele>
        <time>2014-09-11T11:20:41Z</time>
      </trkpt>
      <trkpt lat="43.031" lon="-0.5025">
        <ele>1805.012695</ele>
        <time>2014-09-11T11:20:46Z</time>
      </trkpt>
      <trkpt lat="43.03109" lon="-0.50247">
        <ele>1804.531982</ele>
        <time>2014-09-11T11:21:01Z</time>
      </trkpt>
      <trkpt lat="43.03116" lon="-0.50244">
        <ele>1803.089844</ele>
        <time>2014-09-11T11:21:13Z</time>
      </trkpt>
      <trkpt lat="43.03124" lon="-0.50243">
        <ele>1799.244629</ele>
        <time>2014-09-11T11:21:24Z</time>
      </trkpt>
      <trkpt lat="43.03126" lon="-0.5024">
        <ele>1796.841309</ele>
        <time>2014-09-11T11:21:35Z</time>
      </trkpt>
      <trkpt lat="43.03133" lon="-0.5024">
        <ele>1794.437988</ele>
        <time>2014-09-11T11:21:49Z</time>
      </trkpt>
      <trkpt lat="43.03143" lon="-0.50242">
        <ele>1793.95752</ele>
        <time>2014-09-11T11:22:03Z</time>
      </trkpt>
      <trkpt lat="43.03152" lon="-0.50242">
        <ele>1792.996094</ele>
        <time>2014-09-11T11:22:15Z</time>
      </trkpt>
      <trkpt lat="43.03154" lon="-0.50239">
        <ele>1791.554199</ele>
        <time>2014-09-11T11:22:18Z</time>
      </trkpt>
      <trkpt lat="43.03161" lon="-0.50221">
        <ele>1792.515625</ele>
        <time>2014-09-11T11:22:32Z</time>
      </trkpt>
      <trkpt lat="43.03166" lon="-0.5021">
        <ele>1789.631592</ele>
        <time>2014-09-11T11:22:45Z</time>
      </trkpt>
      <trkpt lat="43.0317" lon="-0.50201">
        <ele>1787.70874</ele>
        <time>2014-09-11T11:22:59Z</time>
      </trkpt>
      <trkpt lat="43.03172" lon="-0.50191">
        <ele>1785.30542</ele>
        <time>2014-09-11T11:23:11Z</time>
      </trkpt>
      <trkpt lat="43.03176" lon="-0.50181">
        <ele>1785.786133</ele>
        <time>2014-09-11T11:23:21Z</time>
      </trkpt>
      <trkpt lat="43.0318" lon="-0.5017">
        <ele>1783.863525</ele>
        <time>2014-09-11T11:23:31Z</time>
      </trkpt>
      <trkpt lat="43.03183" lon="-0.50165">
        <ele>1786.747314</ele>
        <time>2014-09-11T11:23:38Z</time>
      </trkpt>
      <trkpt lat="43.03187" lon="-0.5016">
        <ele>1787.70874</ele>
        <time>2014-09-11T11:23:49Z</time>
      </trkpt>
      <trkpt lat="43.03192" lon="-0.50145">
        <ele>1789.150879</ele>
        <time>2014-09-11T11:24:04Z</time>
      </trkpt>
      <trkpt lat="43.032" lon="-0.50131">
        <ele>1790.112305</ele>
        <time>2014-09-11T11:24:21Z</time>
      </trkpt>
      <trkpt lat="43.03205" lon="-0.50118">
        <ele>1791.073486</ele>
        <time>2014-09-11T11:24:36Z</time>
      </trkpt>
      <trkpt lat="43.0321" lon="-0.50096">
        <ele>1792.515625</ele>
        <time>2014-09-11T11:24:54Z</time>
      </trkpt>
      <trkpt lat="43.03212" lon="-0.50079">
        <ele>1792.515625</ele>
        <time>2014-09-11T11:25:06Z</time>
      </trkpt>
      <trkpt lat="43.03216" lon="-0.50065">
        <ele>1792.996094</ele>
        <time>2014-09-11T11:25:21Z</time>
      </trkpt>
      <trkpt lat="43.0322" lon="-0.50047">
        <ele>1790.592773</ele>
        <time>2014-09-11T11:25:36Z</time>
      </trkpt>
      <trkpt lat="43.03228" lon="-0.50042">
        <ele>1788.189697</ele>
        <time>2014-09-11T11:25:52Z</time>
      </trkpt>
      <trkpt lat="43.03232" lon="-0.50043">
        <ele>1787.228027</ele>
        <time>2014-09-11T11:26:02Z</time>
      </trkpt>
      <trkpt lat="43.03227" lon="-0.50037">
        <ele>1787.70874</ele>
        <time>2014-09-11T11:26:11Z</time>
      </trkpt>
      <trkpt lat="43.03226" lon="-0.50034">
        <ele>1786.266846</ele>
        <time>2014-09-11T11:26:14Z</time>
      </trkpt>
      <trkpt lat="43.03223" lon="-0.50025">
        <ele>1784.344238</ele>
        <time>2014-09-11T11:26:30Z</time>
      </trkpt>
      <trkpt lat="43.03224" lon="-0.50026">
        <ele>1781.460205</ele>
        <time>2014-09-11T11:26:33Z</time>
      </trkpt>
      <trkpt lat="43.0323" lon="-0.50029">
        <ele>1780.979736</ele>
        <time>2014-09-11T11:26:48Z</time>
      </trkpt>
      <trkpt lat="43.03234" lon="-0.50019">
        <ele>1777.134521</ele>
        <time>2014-09-11T11:27:03Z</time>
      </trkpt>
      <trkpt lat="43.03236" lon="-0.50015">
        <ele>1776.653809</ele>
        <time>2014-09-11T11:27:09Z</time>
      </trkpt>
      <trkpt lat="43.03243" lon="-0.50008">
        <ele>1776.173096</ele>
        <time>2014-09-11T11:27:22Z</time>
      </trkpt>
      <trkpt lat="43.03249" lon="-0.50004">
        <ele>1775.21167</ele>
        <time>2014-09-11T11:27:37Z</time>
      </trkpt>
      <trkpt lat="43.03252" lon="-0.50002">
        <ele>1773.769775</ele>
        <time>2014-09-11T11:27:41Z</time>
      </trkpt>
      <trkpt lat="43.0326" lon="-0.5">
        <ele>1773.289307</ele>
        <time>2014-09-11T11:27:53Z</time>
      </trkpt>
      <trkpt lat="43.0327" lon="-0.49985">
        <ele>1773.289307</ele>
        <time>2014-09-11T11:28:10Z</time>
      </trkpt>
      <trkpt lat="43.03271" lon="-0.49984">
        <ele>1773.289307</ele>
        <time>2014-09-11T11:28:12Z</time>
      </trkpt>
      <trkpt lat="43.03284" lon="-0.49966">
        <ele>1774.250488</ele>
        <time>2014-09-11T11:28:31Z</time>
      </trkpt>
      <trkpt lat="43.03295" lon="-0.49943">
        <ele>1773.289307</ele>
        <time>2014-09-11T11:28:51Z</time>
      </trkpt>
      <trkpt lat="43.03315" lon="-0.49923">
        <ele>1770.885742</ele>
        <time>2014-09-11T11:29:13Z</time>
      </trkpt>
      <trkpt lat="43.03323" lon="-0.49915">
        <ele>1767.520996</ele>
        <time>2014-09-11T11:29:21Z</time>
      </trkpt>
      <trkpt lat="43.03329" lon="-0.49905">
        <ele>1767.040527</ele>
        <time>2014-09-11T11:29:37Z</time>
      </trkpt>
      <trkpt lat="43.03328" lon="-0.49905">
        <ele>1766.079102</ele>
        <time>2014-09-11T11:30:10Z</time>
      </trkpt>
      <trkpt lat="43.03329" lon="-0.49904">
        <ele>1765.11792</ele>
        <time>2014-09-11T11:30:36Z</time>
      </trkpt>
      <trkpt lat="43.03332" lon="-0.4989">
        <ele>1761.753418</ele>
        <time>2014-09-11T11:30:49Z</time>
      </trkpt>
      <trkpt lat="43.03333" lon="-0.49883">
        <ele>1761.272705</ele>
        <time>2014-09-11T11:30:56Z</time>
      </trkpt>
      <trkpt lat="43.03336" lon="-0.49868">
        <ele>1758.388672</ele>
        <time>2014-09-11T11:31:09Z</time>
      </trkpt>
      <trkpt lat="43.03339" lon="-0.49856">
        <ele>1755.023926</ele>
        <time>2014-09-11T11:31:21Z</time>
      </trkpt>
      <trkpt lat="43.03341" lon="-0.49847">
        <ele>1753.582031</ele>
        <time>2014-09-11T11:31:38Z</time>
      </trkpt>
      <trkpt lat="43.0334" lon="-0.49835">
        <ele>1750.217529</ele>
        <time>2014-09-11T11:31:49Z</time>
      </trkpt>
      <trkpt lat="43.03343" lon="-0.49821">
        <ele>1747.333496</ele>
        <time>2014-09-11T11:32:06Z</time>
      </trkpt>
      <trkpt lat="43.03346" lon="-0.49809">
        <ele>1743.968994</ele>
        <time>2014-09-11T11:32:17Z</time>
      </trkpt>
      <trkpt lat="43.03352" lon="-0.49806">
        <ele>1741.084961</ele>
        <time>2014-09-11T11:32:27Z</time>
      </trkpt>
      <trkpt lat="43.03353" lon="-0.49791">
        <ele>1740.123779</ele>
        <time>2014-09-11T11:32:41Z</time>
      </trkpt>
      <trkpt lat="43.03349" lon="-0.49779">
        <ele>1738.200928</ele>
        <time>2014-09-11T11:32:59Z</time>
      </trkpt>
      <trkpt lat="43.0335" lon="-0.49773">
        <ele>1736.27832</ele>
        <time>2014-09-11T11:33:10Z</time>
      </trkpt>
      <trkpt lat="43.03358" lon="-0.49761">
        <ele>1736.27832</ele>
        <time>2014-09-11T11:33:24Z</time>
      </trkpt>
      <trkpt lat="43.03367" lon="-0.49754">
        <ele>1734.355713</ele>
        <time>2014-09-11T11:33:37Z</time>
      </trkpt>
      <trkpt lat="43.03368" lon="-0.49754">
        <ele>1734.355713</ele>
        <time>2014-09-11T11:33:38Z</time>
      </trkpt>
      <trkpt lat="43.0337" lon="-0.49746">
        <ele>1730.991211</ele>
        <time>2014-09-11T11:33:47Z</time>
      </trkpt>
      <trkpt lat="43.03379" lon="-0.49728">
        <ele>1729.549072</ele>
        <time>2014-09-11T11:34:04Z</time>
      </trkpt>
      <trkpt lat="43.03392" lon="-0.49709">
        <ele>1729.549072</ele>
        <time>2014-09-11T11:34:22Z</time>
      </trkpt>
      <trkpt lat="43.03409" lon="-0.49698">
        <ele>1730.029785</ele>
        <time>2014-09-11T11:34:40Z</time>
      </trkpt>
      <trkpt lat="43.03409" lon="-0.49696">
        <ele>1729.549072</ele>
        <time>2014-09-11T11:34:42Z</time>
      </trkpt>
      <trkpt lat="43.03414" lon="-0.49689">
        <ele>1732.913574</ele>
        <time>2014-09-11T11:34:50Z</time>
      </trkpt>
      <trkpt lat="43.0342" lon="-0.49682">
        <ele>1733.875</ele>
        <time>2014-09-11T11:34:59Z</time>
      </trkpt>
      <trkpt lat="43.03423" lon="-0.49677">
        <ele>1733.875</ele>
        <time>2014-09-11T11:35:04Z</time>
      </trkpt>
      <trkpt lat="43.03427" lon="-0.4967">
        <ele>1733.394287</ele>
        <time>2014-09-11T11:35:19Z</time>
      </trkpt>
      <trkpt lat="43.03437" lon="-0.4966">
        <ele>1734.836426</ele>
        <time>2014-09-11T11:35:36Z</time>
      </trkpt>
      <trkpt lat="43.0345" lon="-0.49646">
        <ele>1738.200928</ele>
        <time>2014-09-11T11:35:53Z</time>
      </trkpt>
      <trkpt lat="43.03452" lon="-0.49645">
        <ele>1738.681641</ele>
        <time>2014-09-11T11:35:55Z</time>
      </trkpt>
      <trkpt lat="43.0347" lon="-0.49633">
        <ele>1740.604248</ele>
        <time>2014-09-11T11:36:15Z</time>
      </trkpt>
      <trkpt lat="43.03471" lon="-0.49632">
        <ele>1741.565674</ele>
        <time>2014-09-11T11:36:17Z</time>
      </trkpt>
      <trkpt lat="43.03482" lon="-0.49623">
        <ele>1742.046387</ele>
        <time>2014-09-11T11:36:32Z</time>
      </trkpt>
      <trkpt lat="43.03483" lon="-0.4962">
        <ele>1740.604248</ele>
        <time>2014-09-11T11:36:35Z</time>
      </trkpt>
      <trkpt lat="43.03483" lon="-0.49614">
        <ele>1741.084961</ele>
        <time>2014-09-11T11:36:50Z</time>
      </trkpt>
      <trkpt lat="43.03485" lon="-0.49606">
        <ele>1740.604248</ele>
        <time>2014-09-11T11:37:04Z</time>
      </trkpt>
      <trkpt lat="43.03494" lon="-0.49587">
        <ele>1739.162109</ele>
        <time>2014-09-11T11:37:22Z</time>
      </trkpt>
      <trkpt lat="43.03501" lon="-0.49567">
        <ele>1735.797607</ele>
        <time>2014-09-11T11:37:37Z</time>
      </trkpt>
      <trkpt lat="43.03502" lon="-0.49566">
        <ele>1735.797607</ele>
        <time>2014-09-11T11:37:38Z</time>
      </trkpt>
      <trkpt lat="43.03507" lon="-0.49543">
        <ele>1735.797607</ele>
        <time>2014-09-11T11:37:54Z</time>
      </trkpt>
      <trkpt lat="43.0351" lon="-0.49514">
        <ele>1733.394287</ele>
        <time>2014-09-11T11:38:13Z</time>
      </trkpt>
      <trkpt lat="43.03513" lon="-0.49483">
        <ele>1731.952393</ele>
        <time>2014-09-11T11:38:33Z</time>
      </trkpt>
      <trkpt lat="43.03512" lon="-0.49464">
        <ele>1729.549072</ele>
        <time>2014-09-11T11:38:49Z</time>
      </trkpt>
      <trkpt lat="43.03516" lon="-0.4944">
        <ele>1727.145996</ele>
        <time>2014-09-11T11:39:05Z</time>
      </trkpt>
      <trkpt lat="43.03517" lon="-0.49438">
        <ele>1726.665283</ele>
        <time>2014-09-11T11:39:07Z</time>
      </trkpt>
      <trkpt lat="43.03521" lon="-0.49432">
        <ele>1726.18457</ele>
        <time>2014-09-11T11:39:13Z</time>
      </trkpt>
      <trkpt lat="43.03526" lon="-0.49415">
        <ele>1724.742676</ele>
        <time>2014-09-11T11:39:25Z</time>
      </trkpt>
      <trkpt lat="43.03525" lon="-0.49407">
        <ele>1724.261963</ele>
        <time>2014-09-11T11:39:30Z</time>
      </trkpt>
      <trkpt lat="43.03528" lon="-0.49389">
        <ele>1723.300537</ele>
        <time>2014-09-11T11:39:42Z</time>
      </trkpt>
      <trkpt lat="43.03527" lon="-0.49383">
        <ele>1722.819824</ele>
        <time>2014-09-11T11:39:46Z</time>
      </trkpt>
      <trkpt lat="43.03528" lon="-0.49377">
        <ele>1722.339111</ele>
        <time>2014-09-11T11:39:50Z</time>
      </trkpt>
      <trkpt lat="43.03531" lon="-0.49356">
        <ele>1720.416504</ele>
        <time>2014-09-11T11:40:05Z</time>
      </trkpt>
      <trkpt lat="43.03532" lon="-0.49338">
        <ele>1718.493896</ele>
        <time>2014-09-11T11:40:18Z</time>
      </trkpt>
      <trkpt lat="43.03532" lon="-0.49335">
        <ele>1718.493896</ele>
        <time>2014-09-11T11:40:21Z</time>
      </trkpt>
      <trkpt lat="43.03538" lon="-0.49316">
        <ele>1717.052002</ele>
        <time>2014-09-11T11:40:34Z</time>
      </trkpt>
      <trkpt lat="43.03543" lon="-0.49299">
        <ele>1716.090576</ele>
        <time>2014-09-11T11:40:45Z</time>
      </trkpt>
      <trkpt lat="43.03545" lon="-0.49295">
        <ele>1716.090576</ele>
        <time>2014-09-11T11:40:48Z</time>
      </trkpt>
      <trkpt lat="43.03549" lon="-0.49284">
        <ele>1716.571289</ele>
        <time>2014-09-11T11:40:56Z</time>
      </trkpt>
      <trkpt lat="43.03556" lon="-0.49258">
        <ele>1715.129395</ele>
        <time>2014-09-11T11:41:14Z</time>
      </trkpt>
      <trkpt lat="43.03561" lon="-0.49234">
        <ele>1715.129395</ele>
        <time>2014-09-11T11:41:32Z</time>
      </trkpt>
      <trkpt lat="43.03562" lon="-0.492">
        <ele>1716.571289</ele>
        <time>2014-09-11T11:41:55Z</time>
      </trkpt>
      <trkpt lat="43.03565" lon="-0.49167">
        <ele>1715.610107</ele>
        <time>2014-09-11T11:42:16Z</time>
      </trkpt>
      <trkpt lat="43.03568" lon="-0.49138">
        <ele>1714.648682</ele>
        <time>2014-09-11T11:42:36Z</time>
      </trkpt>
      <trkpt lat="43.03571" lon="-0.491">
        <ele>1713.206787</ele>
        <time>2014-09-11T11:43:00Z</time>
      </trkpt>
      <trkpt lat="43.03571" lon="-0.49084">
        <ele>1712.726074</ele>
        <time>2014-09-11T11:43:17Z</time>
      </trkpt>
      <trkpt lat="43.03572" lon="-0.49063">
        <ele>1714.167969</ele>
        <time>2014-09-11T11:43:47Z</time>
      </trkpt>
      <trkpt lat="43.03575" lon="-0.49033">
        <ele>1711.764893</ele>
        <time>2014-09-11T11:44:09Z</time>
      </trkpt>
      <trkpt lat="43.03576" lon="-0.49029">
        <ele>1712.726074</ele>
        <time>2014-09-11T11:44:15Z</time>
      </trkpt>
      <trkpt lat="43.03586" lon="-0.49015">
        <ele>1716.090576</ele>
        <time>2014-09-11T11:44:32Z</time>
      </trkpt>
      <trkpt lat="43.03591" lon="-0.4901">
        <ele>1717.052002</ele>
        <time>2014-09-11T11:44:47Z</time>
      </trkpt>
      <trkpt lat="43.03591" lon="-0.49012">
        <ele>1716.571289</ele>
        <time>2014-09-11T11:45:14Z</time>
      </trkpt>
      <trkpt lat="43.0359" lon="-0.49012">
        <ele>1715.610107</ele>
        <time>2014-09-11T11:45:38Z</time>
      </trkpt>
      <trkpt lat="43.0359" lon="-0.49012">
        <ele>1715.610107</ele>
        <time>2014-09-11T11:46:09Z</time>
      </trkpt>
      <trkpt lat="43.0359" lon="-0.49007">
        <ele>1718.013184</ele>
        <time>2014-09-11T11:46:27Z</time>
      </trkpt>
      <trkpt lat="43.03589" lon="-0.48984">
        <ele>1716.571289</ele>
        <time>2014-09-11T11:46:42Z</time>
      </trkpt>
      <trkpt lat="43.03587" lon="-0.48961">
        <ele>1716.090576</ele>
        <time>2014-09-11T11:46:57Z</time>
      </trkpt>
      <trkpt lat="43.03586" lon="-0.48955">
        <ele>1715.129395</ele>
        <time>2014-09-11T11:47:01Z</time>
      </trkpt>
      <trkpt lat="43.03587" lon="-0.4893">
        <ele>1713.687256</ele>
        <time>2014-09-11T11:47:19Z</time>
      </trkpt>
      <trkpt lat="43.03587" lon="-0.48917">
        <ele>1712.245361</ele>
        <time>2014-09-11T11:47:40Z</time>
      </trkpt>
      <trkpt lat="43.03587" lon="-0.48888">
        <ele>1711.28418</ele>
        <time>2014-09-11T11:47:58Z</time>
      </trkpt>
      <trkpt lat="43.03587" lon="-0.48884">
        <ele>1710.803467</ele>
        <time>2014-09-11T11:48:00Z</time>
      </trkpt>
      <trkpt lat="43.03589" lon="-0.48873">
        <ele>1710.803467</ele>
        <time>2014-09-11T11:48:08Z</time>
      </trkpt>
      <trkpt lat="43.03592" lon="-0.48856">
        <ele>1708.880859</ele>
        <time>2014-09-11T11:48:18Z</time>
      </trkpt>
      <trkpt lat="43.03592" lon="-0.4885">
        <ele>1707.919434</ele>
        <time>2014-09-11T11:48:23Z</time>
      </trkpt>
      <trkpt lat="43.03591" lon="-0.48842">
        <ele>1707.919434</ele>
        <time>2014-09-11T11:48:28Z</time>
      </trkpt>
      <trkpt lat="43.03593" lon="-0.48818">
        <ele>1705.996582</ele>
        <time>2014-09-11T11:48:43Z</time>
      </trkpt>
      <trkpt lat="43.03593" lon="-0.48816">
        <ele>1705.516113</ele>
        <time>2014-09-11T11:48:44Z</time>
      </trkpt>
      <trkpt lat="43.03596" lon="-0.48795">
        <ele>1704.074219</ele>
        <time>2014-09-11T11:48:58Z</time>
      </trkpt>
      <trkpt lat="43.03597" lon="-0.48794">
        <ele>1704.074219</ele>
        <time>2014-09-11T11:48:59Z</time>
      </trkpt>
      <trkpt lat="43.03605" lon="-0.48783">
        <ele>1705.0354</ele>
        <time>2014-09-11T11:49:09Z</time>
      </trkpt>
      <trkpt lat="43.0361" lon="-0.4878">
        <ele>1705.0354</ele>
        <time>2014-09-11T11:49:14Z</time>
      </trkpt>
      <trkpt lat="43.03623" lon="-0.48767">
        <ele>1702.151367</ele>
        <time>2014-09-11T11:49:29Z</time>
      </trkpt>
      <trkpt lat="43.03626" lon="-0.48756">
        <ele>1701.190186</ele>
        <time>2014-09-11T11:49:37Z</time>
      </trkpt>
      <trkpt lat="43.03628" lon="-0.48752">
        <ele>1701.190186</ele>
        <time>2014-09-11T11:49:53Z</time>
      </trkpt>
      <trkpt lat="43.03631" lon="-0.48743">
        <ele>1699.267578</ele>
        <time>2014-09-11T11:50:12Z</time>
      </trkpt>
      <trkpt lat="43.03636" lon="-0.48732">
        <ele>1696.864258</ele>
        <time>2014-09-11T11:50:29Z</time>
      </trkpt>
      <trkpt lat="43.03638" lon="-0.48723">
        <ele>1695.422363</ele>
        <time>2014-09-11T11:50:40Z</time>
      </trkpt>
      <trkpt lat="43.0364" lon="-0.48721">
        <ele>1694.94165</ele>
        <time>2014-09-11T11:50:43Z</time>
      </trkpt>
      <trkpt lat="43.03642" lon="-0.48719">
        <ele>1693.499756</ele>
        <time>2014-09-11T11:50:46Z</time>
      </trkpt>
      <trkpt lat="43.03645" lon="-0.48706">
        <ele>1690.13501</ele>
        <time>2014-09-11T11:50:56Z</time>
      </trkpt>
      <trkpt lat="43.03647" lon="-0.48696">
        <ele>1689.173584</ele>
        <time>2014-09-11T11:51:04Z</time>
      </trkpt>
      <trkpt lat="43.03651" lon="-0.48684">
        <ele>1688.693115</ele>
        <time>2014-09-11T11:51:15Z</time>
      </trkpt>
      <trkpt lat="43.03657" lon="-0.48665">
        <ele>1686.770264</ele>
        <time>2014-09-11T11:51:28Z</time>
      </trkpt>
      <trkpt lat="43.03662" lon="-0.48649">
        <ele>1683.405762</ele>
        <time>2014-09-11T11:51:42Z</time>
      </trkpt>
      <trkpt lat="43.03665" lon="-0.48634">
        <ele>1681.963867</ele>
        <time>2014-09-11T11:51:55Z</time>
      </trkpt>
      <trkpt lat="43.03668" lon="-0.48621">
        <ele>1681.483154</ele>
        <time>2014-09-11T11:52:06Z</time>
      </trkpt>
      <trkpt lat="43.03673" lon="-0.48609">
        <ele>1678.118652</ele>
        <time>2014-09-11T11:52:17Z</time>
      </trkpt>
      <trkpt lat="43.03677" lon="-0.48605">
        <ele>1675.715088</ele>
        <time>2014-09-11T11:52:23Z</time>
      </trkpt>
      <trkpt lat="43.0368" lon="-0.48602">
        <ele>1675.234375</ele>
        <time>2014-09-11T11:52:39Z</time>
      </trkpt>
      <trkpt lat="43.0368" lon="-0.48601">
        <ele>1675.234375</ele>
        <time>2014-09-11T11:52:40Z</time>
      </trkpt>
      <trkpt lat="43.03691" lon="-0.48582">
        <ele>1671.869873</ele>
        <time>2014-09-11T11:52:58Z</time>
      </trkpt>
      <trkpt lat="43.03697" lon="-0.48567">
        <ele>1667.543945</ele>
        <time>2014-09-11T11:53:13Z</time>
      </trkpt>
      <trkpt lat="43.03702" lon="-0.48557">
        <ele>1666.582764</ele>
        <time>2014-09-11T11:53:24Z</time>
      </trkpt>
      <trkpt lat="43.03706" lon="-0.48548">
        <ele>1663.218262</ele>
        <time>2014-09-11T11:53:33Z</time>
      </trkpt>
      <trkpt lat="43.03707" lon="-0.48548">
        <ele>1663.218262</ele>
        <time>2014-09-11T11:53:34Z</time>
      </trkpt>
      <trkpt lat="43.03712" lon="-0.4854">
        <ele>1662.737549</ele>
        <time>2014-09-11T11:53:47Z</time>
      </trkpt>
      <trkpt lat="43.03716" lon="-0.48525">
        <ele>1659.372803</ele>
        <time>2014-09-11T11:54:03Z</time>
      </trkpt>
      <trkpt lat="43.03718" lon="-0.48519">
        <ele>1656.969482</ele>
        <time>2014-09-11T11:54:08Z</time>
      </trkpt>
      <trkpt lat="43.03727" lon="-0.48506">
        <ele>1655.527588</ele>
        <time>2014-09-11T11:54:25Z</time>
      </trkpt>
      <trkpt lat="43.03733" lon="-0.48494">
        <ele>1652.162842</ele>
        <time>2014-09-11T11:54:37Z</time>
      </trkpt>
      <trkpt lat="43.03739" lon="-0.48486">
        <ele>1648.79834</ele>
        <time>2014-09-11T11:54:47Z</time>
      </trkpt>
      <trkpt lat="43.03748" lon="-0.48474">
        <ele>1645.914551</ele>
        <time>2014-09-11T11:55:05Z</time>
      </trkpt>
      <trkpt lat="43.0375" lon="-0.48472">
        <ele>1646.875732</ele>
        <time>2014-09-11T11:55:07Z</time>
      </trkpt>
      <trkpt lat="43.03753" lon="-0.48465">
        <ele>1645.914551</ele>
        <time>2014-09-11T11:55:13Z</time>
      </trkpt>
      <trkpt lat="43.0376" lon="-0.48446">
        <ele>1642.549805</ele>
        <time>2014-09-11T11:55:31Z</time>
      </trkpt>
      <trkpt lat="43.03764" lon="-0.48436">
        <ele>1639.665771</ele>
        <time>2014-09-11T11:55:40Z</time>
      </trkpt>
      <trkpt lat="43.03773" lon="-0.4842">
        <ele>1636.30127</ele>
        <time>2014-09-11T11:55:59Z</time>
      </trkpt>
      <trkpt lat="43.03781" lon="-0.48406">
        <ele>1634.378662</ele>
        <time>2014-09-11T11:56:15Z</time>
      </trkpt>
      <trkpt lat="43.03787" lon="-0.48395">
        <ele>1631.01416</ele>
        <time>2014-09-11T11:56:28Z</time>
      </trkpt>
      <trkpt lat="43.03787" lon="-0.48394">
        <ele>1631.01416</ele>
        <time>2014-09-11T11:56:29Z</time>
      </trkpt>
      <trkpt lat="43.03794" lon="-0.48382">
        <ele>1629.091309</ele>
        <time>2014-09-11T11:56:47Z</time>
      </trkpt>
      <trkpt lat="43.03799" lon="-0.48371">
        <ele>1626.207275</ele>
        <time>2014-09-11T11:56:58Z</time>
      </trkpt>
      <trkpt lat="43.03807" lon="-0.48356">
        <ele>1622.842773</ele>
        <time>2014-09-11T11:57:13Z</time>
      </trkpt>
      <trkpt lat="43.03808" lon="-0.48354">
        <ele>1622.842773</ele>
        <time>2014-09-11T11:57:15Z</time>
      </trkpt>
      <trkpt lat="43.0381" lon="-0.48353">
        <ele>1621.881348</ele>
        <time>2014-09-11T11:57:17Z</time>
      </trkpt>
      <trkpt lat="43.03812" lon="-0.48349">
        <ele>1621.400635</ele>
        <time>2014-09-11T11:57:20Z</time>
      </trkpt>
      <trkpt lat="43.03819" lon="-0.48337">
        <ele>1619.95874</ele>
        <time>2014-09-11T11:57:33Z</time>
      </trkpt>
      <trkpt lat="43.03822" lon="-0.48331">
        <ele>1617.074951</ele>
        <time>2014-09-11T11:57:46Z</time>
      </trkpt>
      <trkpt lat="43.03823" lon="-0.4833">
        <ele>1617.074951</ele>
        <time>2014-09-11T11:57:47Z</time>
      </trkpt>
      <trkpt lat="43.03829" lon="-0.48322">
        <ele>1616.113525</ele>
        <time>2014-09-11T11:58:01Z</time>
      </trkpt>
      <trkpt lat="43.0383" lon="-0.48317">
        <ele>1615.152344</ele>
        <time>2014-09-11T11:58:06Z</time>
      </trkpt>
      <trkpt lat="43.03832" lon="-0.48298">
        <ele>1611.787598</ele>
        <time>2014-09-11T11:58:19Z</time>
      </trkpt>
      <trkpt lat="43.03833" lon="-0.48291">
        <ele>1610.826172</ele>
        <time>2014-09-11T11:58:24Z</time>
      </trkpt>
      <trkpt lat="43.03835" lon="-0.48277">
        <ele>1607.942383</ele>
        <time>2014-09-11T11:58:36Z</time>
      </trkpt>
      <trkpt lat="43.03834" lon="-0.48277">
        <ele>1608.422852</ele>
        <time>2014-09-11T11:58:59Z</time>
      </trkpt>
      <trkpt lat="43.03835" lon="-0.48275">
        <ele>1607.46167</ele>
        <time>2014-09-11T11:59:30Z</time>
      </trkpt>
      <trkpt lat="43.03834" lon="-0.48275">
        <ele>1607.942383</ele>
        <time>2014-09-11T11:59:53Z</time>
      </trkpt>
      <trkpt lat="43.03834" lon="-0.48275">
        <ele>1607.942383</ele>
        <time>2014-09-11T12:00:35Z</time>
      </trkpt>
      <trkpt lat="43.03835" lon="-0.48274">
        <ele>1607.942383</ele>
        <time>2014-09-11T12:01:21Z</time>
      </trkpt>
      <trkpt lat="43.03834" lon="-0.48275">
        <ele>1607.46167</ele>
        <time>2014-09-11T12:02:19Z</time>
      </trkpt>
      <trkpt lat="43.03834" lon="-0.48275">
        <ele>1606.980957</ele>
        <time>2014-09-11T12:03:13Z</time>
      </trkpt>
      <trkpt lat="43.03833" lon="-0.48276">
        <ele>1606.980957</ele>
        <time>2014-09-11T12:03:34Z</time>
      </trkpt>
      <trkpt lat="43.03833" lon="-0.48275">
        <ele>1606.980957</ele>
        <time>2014-09-11T12:03:57Z</time>
      </trkpt>
      <trkpt lat="43.03834" lon="-0.48277">
        <ele>1607.46167</ele>
        <time>2014-09-11T12:04:11Z</time>
      </trkpt>
      <trkpt lat="43.03834" lon="-0.48278">
        <ele>1607.942383</ele>
        <time>2014-09-11T12:04:58Z</time>
      </trkpt>
      <trkpt lat="43.03834" lon="-0.48279">
        <ele>1608.422852</ele>
        <time>2014-09-11T12:05:36Z</time>
      </trkpt>
      <trkpt lat="43.03834" lon="-0.48278">
        <ele>1607.46167</ele>
        <time>2014-09-11T12:06:09Z</time>
      </trkpt>
      <trkpt lat="43.03834" lon="-0.48278">
        <ele>1606.980957</ele>
        <time>2014-09-11T12:06:26Z</time>
      </trkpt>
      <trkpt lat="43.03834" lon="-0.48277">
        <ele>1607.46167</ele>
        <time>2014-09-11T12:07:13Z</time>
      </trkpt>
      <trkpt lat="43.03834" lon="-0.48276">
        <ele>1606.500244</ele>
        <time>2014-09-11T12:07:40Z</time>
      </trkpt>
      <trkpt lat="43.03834" lon="-0.48276">
        <ele>1606.500244</ele>
        <time>2014-09-11T12:07:59Z</time>
      </trkpt>
      <trkpt lat="43.03836" lon="-0.48263">
        <ele>1605.05835</ele>
        <time>2014-09-11T12:08:19Z</time>
      </trkpt>
      <trkpt lat="43.03839" lon="-0.4825">
        <ele>1603.135742</ele>
        <time>2014-09-11T12:08:28Z</time>
      </trkpt>
      <trkpt lat="43.0384" lon="-0.48245">
        <ele>1602.174316</ele>
        <time>2014-09-11T12:08:32Z</time>
      </trkpt>
      <trkpt lat="43.03843" lon="-0.48231">
        <ele>1599.290527</ele>
        <time>2014-09-11T12:08:44Z</time>
      </trkpt>
      <trkpt lat="43.03846" lon="-0.48218">
        <ele>1595.445068</ele>
        <time>2014-09-11T12:08:56Z</time>
      </trkpt>
      <trkpt lat="43.03851" lon="-0.48204">
        <ele>1593.041748</ele>
        <time>2014-09-11T12:09:11Z</time>
      </trkpt>
      <trkpt lat="43.03858" lon="-0.48191">
        <ele>1590.638428</ele>
        <time>2014-09-11T12:09:27Z</time>
      </trkpt>
      <trkpt lat="43.03858" lon="-0.48188">
        <ele>1588.716064</ele>
        <time>2014-09-11T12:09:30Z</time>
      </trkpt>
      <trkpt lat="43.03862" lon="-0.48176">
        <ele>1585.351318</ele>
        <time>2014-09-11T12:09:42Z</time>
      </trkpt>
      <trkpt lat="43.03862" lon="-0.48176">
        <ele>1585.351318</ele>
        <time>2014-09-11T12:09:43Z</time>
      </trkpt>
      <trkpt lat="43.03863" lon="-0.48173">
        <ele>1583.909424</ele>
        <time>2014-09-11T12:09:46Z</time>
      </trkpt>
      <trkpt lat="43.03862" lon="-0.48155">
        <ele>1581.025635</ele>
        <time>2014-09-11T12:10:03Z</time>
      </trkpt>
      <trkpt lat="43.03864" lon="-0.48143">
        <ele>1579.583252</ele>
        <time>2014-09-11T12:10:14Z</time>
      </trkpt>
      <trkpt lat="43.03869" lon="-0.48136">
        <ele>1575.738037</ele>
        <time>2014-09-11T12:10:23Z</time>
      </trkpt>
      <trkpt lat="43.0387" lon="-0.48135">
        <ele>1575.738037</ele>
        <time>2014-09-11T12:10:24Z</time>
      </trkpt>
      <trkpt lat="43.03879" lon="-0.48124">
        <ele>1571.892822</ele>
        <time>2014-09-11T12:10:39Z</time>
      </trkpt>
      <trkpt lat="43.03886" lon="-0.48118">
        <ele>1568.52832</ele>
        <time>2014-09-11T12:10:50Z</time>
      </trkpt>
      <trkpt lat="43.03889" lon="-0.48118">
        <ele>1568.52832</ele>
        <time>2014-09-11T12:10:55Z</time>
      </trkpt>
      <trkpt lat="43.03893" lon="-0.48119">
        <ele>1566.605713</ele>
        <time>2014-09-11T12:10:59Z</time>
      </trkpt>
      <trkpt lat="43.03897" lon="-0.48121">
        <ele>1564.683105</ele>
        <time>2014-09-11T12:11:06Z</time>
      </trkpt>
      <trkpt lat="43.03904" lon="-0.48129">
        <ele>1562.760254</ele>
        <time>2014-09-11T12:11:19Z</time>
      </trkpt>
      <trkpt lat="43.03916" lon="-0.4814">
        <ele>1560.837646</ele>
        <time>2014-09-11T12:11:35Z</time>
      </trkpt>
      <trkpt lat="43.03922" lon="-0.48145">
        <ele>1560.356934</ele>
        <time>2014-09-11T12:11:49Z</time>
      </trkpt>
      <trkpt lat="43.03929" lon="-0.4816">
        <ele>1561.799072</ele>
        <time>2014-09-11T12:12:06Z</time>
      </trkpt>
      <trkpt lat="43.03931" lon="-0.48169">
        <ele>1563.240967</ele>
        <time>2014-09-11T12:12:16Z</time>
      </trkpt>
      <trkpt lat="43.03936" lon="-0.48175">
        <ele>1562.279541</ele>
        <time>2014-09-11T12:12:28Z</time>
      </trkpt>
      <trkpt lat="43.03946" lon="-0.48192">
        <ele>1561.318359</ele>
        <time>2014-09-11T12:12:44Z</time>
      </trkpt>
      <trkpt lat="43.03955" lon="-0.48212">
        <ele>1561.318359</ele>
        <time>2014-09-11T12:13:00Z</time>
      </trkpt>
      <trkpt lat="43.03961" lon="-0.48232">
        <ele>1558.434326</ele>
        <time>2014-09-11T12:13:16Z</time>
      </trkpt>
      <trkpt lat="43.03966" lon="-0.4825">
        <ele>1557.473145</ele>
        <time>2014-09-11T12:13:31Z</time>
      </trkpt>
      <trkpt lat="43.03971" lon="-0.48268">
        <ele>1555.069824</ele>
        <time>2014-09-11T12:13:46Z</time>
      </trkpt>
      <trkpt lat="43.03972" lon="-0.48272">
        <ele>1555.069824</ele>
        <time>2014-09-11T12:13:49Z</time>
      </trkpt>
      <trkpt lat="43.03973" lon="-0.48298">
        <ele>1553.147217</ele>
        <time>2014-09-11T12:14:08Z</time>
      </trkpt>
      <trkpt lat="43.0397" lon="-0.48319">
        <ele>1552.185791</ele>
        <time>2014-09-11T12:14:25Z</time>
      </trkpt>
      <trkpt lat="43.03968" lon="-0.48326">
        <ele>1548.340576</ele>
        <time>2014-09-11T12:14:38Z</time>
      </trkpt>
      <trkpt lat="43.03968" lon="-0.48332">
        <ele>1546.898438</ele>
        <time>2014-09-11T12:14:46Z</time>
      </trkpt>
      <trkpt lat="43.03967" lon="-0.48344">
        <ele>1543.053223</ele>
        <time>2014-09-11T12:15:04Z</time>
      </trkpt>
      <trkpt lat="43.03966" lon="-0.48352">
        <ele>1541.130615</ele>
        <time>2014-09-11T12:15:20Z</time>
      </trkpt>
      <trkpt lat="43.03966" lon="-0.48355">
        <ele>1540.169434</ele>
        <time>2014-09-11T12:15:24Z</time>
      </trkpt>
      <trkpt lat="43.03966" lon="-0.4836">
        <ele>1538.727539</ele>
        <time>2014-09-11T12:15:30Z</time>
      </trkpt>
      <trkpt lat="43.03966" lon="-0.48381">
        <ele>1536.324219</ele>
        <time>2014-09-11T12:15:50Z</time>
      </trkpt>
      <trkpt lat="43.03966" lon="-0.48399">
        <ele>1533.440186</ele>
        <time>2014-09-11T12:16:10Z</time>
      </trkpt>
      <trkpt lat="43.0397" lon="-0.48408">
        <ele>1529.594727</ele>
        <time>2014-09-11T12:16:23Z</time>
      </trkpt>
      <trkpt lat="43.0397" lon="-0.4842">
        <ele>1528.633545</ele>
        <time>2014-09-11T12:16:38Z</time>
      </trkpt>
      <trkpt lat="43.03972" lon="-0.48418">
        <ele>1526.230225</ele>
        <time>2014-09-11T12:16:50Z</time>
      </trkpt>
      <trkpt lat="43.03976" lon="-0.48415">
        <ele>1524.307617</ele>
        <time>2014-09-11T12:17:03Z</time>
      </trkpt>
      <trkpt lat="43.0398" lon="-0.48408">
        <ele>1521.904297</ele>
        <time>2014-09-11T12:17:18Z</time>
      </trkpt>
      <trkpt lat="43.03986" lon="-0.484">
        <ele>1519.501221</ele>
        <time>2014-09-11T12:17:34Z</time>
      </trkpt>
      <trkpt lat="43.03987" lon="-0.48396">
        <ele>1516.136475</ele>
        <time>2014-09-11T12:17:40Z</time>
      </trkpt>
      <trkpt lat="43.03992" lon="-0.48385">
        <ele>1514.213623</ele>
        <time>2014-09-11T12:17:53Z</time>
      </trkpt>
      <trkpt lat="43.03996" lon="-0.48376">
        <ele>1511.329834</ele>
        <time>2014-09-11T12:18:04Z</time>
      </trkpt>
      <trkpt lat="43.04002" lon="-0.48362">
        <ele>1509.887695</ele>
        <time>2014-09-11T12:18:21Z</time>
      </trkpt>
      <trkpt lat="43.04007" lon="-0.48357">
        <ele>1506.04248</ele>
        <time>2014-09-11T12:18:32Z</time>
      </trkpt>
      <trkpt lat="43.04016" lon="-0.48354">
        <ele>1504.600586</ele>
        <time>2014-09-11T12:18:49Z</time>
      </trkpt>
      <trkpt lat="43.0402" lon="-0.48357">
        <ele>1501.236084</ele>
        <time>2014-09-11T12:19:00Z</time>
      </trkpt>
      <trkpt lat="43.04021" lon="-0.48355">
        <ele>1499.793945</ele>
        <time>2014-09-11T12:19:02Z</time>
      </trkpt>
      <trkpt lat="43.04024" lon="-0.48349">
        <ele>1497.390625</ele>
        <time>2014-09-11T12:19:18Z</time>
      </trkpt>
      <trkpt lat="43.04028" lon="-0.48347">
        <ele>1496.909912</ele>
        <time>2014-09-11T12:19:30Z</time>
      </trkpt>
      <trkpt lat="43.04033" lon="-0.48345">
        <ele>1493.54541</ele>
        <time>2014-09-11T12:19:39Z</time>
      </trkpt>
      <trkpt lat="43.04036" lon="-0.4834">
        <ele>1492.103516</ele>
        <time>2014-09-11T12:19:52Z</time>
      </trkpt>
      <trkpt lat="43.04037" lon="-0.48339">
        <ele>1492.584229</ele>
        <time>2014-09-11T12:19:54Z</time>
      </trkpt>
      <trkpt lat="43.04042" lon="-0.48335">
        <ele>1489.219482</ele>
        <time>2014-09-11T12:20:06Z</time>
      </trkpt>
      <trkpt lat="43.04047" lon="-0.48333">
        <ele>1486.816162</ele>
        <time>2014-09-11T12:20:13Z</time>
      </trkpt>
      <trkpt lat="43.04055" lon="-0.48331">
        <ele>1483.932129</ele>
        <time>2014-09-11T12:20:27Z</time>
      </trkpt>
      <trkpt lat="43.04059" lon="-0.48334">
        <ele>1483.451416</ele>
        <time>2014-09-11T12:20:33Z</time>
      </trkpt>
      <trkpt lat="43.04062" lon="-0.48338">
        <ele>1482.009521</ele>
        <time>2014-09-11T12:20:38Z</time>
      </trkpt>
      <trkpt lat="43.04064" lon="-0.48338">
        <ele>1481.528809</ele>
        <time>2014-09-11T12:20:40Z</time>
      </trkpt>
      <trkpt lat="43.04067" lon="-0.48335">
        <ele>1481.528809</ele>
        <time>2014-09-11T12:20:42Z</time>
      </trkpt>
      <trkpt lat="43.04069" lon="-0.48341">
        <ele>1480.567627</ele>
        <time>2014-09-11T12:20:46Z</time>
      </trkpt>
      <trkpt lat="43.0407" lon="-0.48344">
        <ele>1480.567627</ele>
        <time>2014-09-11T12:20:48Z</time>
      </trkpt>
      <trkpt lat="43.04071" lon="-0.48349">
        <ele>1478.64502</ele>
        <time>2014-09-11T12:20:54Z</time>
      </trkpt>
      <trkpt lat="43.04071" lon="-0.4835">
        <ele>1478.164307</ele>
        <time>2014-09-11T12:20:57Z</time>
      </trkpt>
      <trkpt lat="43.04072" lon="-0.48351">
        <ele>1476.722412</ele>
        <time>2014-09-11T12:21:01Z</time>
      </trkpt>
      <trkpt lat="43.04079" lon="-0.48358">
        <ele>1474.799805</ele>
        <time>2014-09-11T12:21:09Z</time>
      </trkpt>
      <trkpt lat="43.04081" lon="-0.48366">
        <ele>1473.838379</ele>
        <time>2014-09-11T12:21:14Z</time>
      </trkpt>
      <trkpt lat="43.04083" lon="-0.48368">
        <ele>1472.877197</ele>
        <time>2014-09-11T12:21:17Z</time>
      </trkpt>
      <trkpt lat="43.04086" lon="-0.48377">
        <ele>1472.877197</ele>
        <time>2014-09-11T12:21:23Z</time>
      </trkpt>
      <trkpt lat="43.04083" lon="-0.48389">
        <ele>1472.396484</ele>
        <time>2014-09-11T12:21:31Z</time>
      </trkpt>
      <trkpt lat="43.04083" lon="-0.48398">
        <ele>1470.473877</ele>
        <time>2014-09-11T12:21:39Z</time>
      </trkpt>
      <trkpt lat="43.04083" lon="-0.48399">
        <ele>1470.473877</ele>
        <time>2014-09-11T12:21:40Z</time>
      </trkpt>
      <trkpt lat="43.04082" lon="-0.48409">
        <ele>1469.512695</ele>
        <time>2014-09-11T12:21:47Z</time>
      </trkpt>
      <trkpt lat="43.0408" lon="-0.48417">
        <ele>1469.512695</ele>
        <time>2014-09-11T12:21:53Z</time>
      </trkpt>
      <trkpt lat="43.04078" lon="-0.48428">
        <ele>1468.070557</ele>
        <time>2014-09-11T12:22:01Z</time>
      </trkpt>
      <trkpt lat="43.04077" lon="-0.48435">
        <ele>1468.070557</ele>
        <time>2014-09-11T12:22:06Z</time>
      </trkpt>
      <trkpt lat="43.04071" lon="-0.48447">
        <ele>1468.070557</ele>
        <time>2014-09-11T12:22:17Z</time>
      </trkpt>
      <trkpt lat="43.04061" lon="-0.48466">
        <ele>1466.147705</ele>
        <time>2014-09-11T12:22:34Z</time>
      </trkpt>
      <trkpt lat="43.04053" lon="-0.48481">
        <ele>1465.186523</ele>
        <time>2014-09-11T12:22:46Z</time>
      </trkpt>
      <trkpt lat="43.04044" lon="-0.48509">
        <ele>1462.30249</ele>
        <time>2014-09-11T12:23:04Z</time>
      </trkpt>
      <trkpt lat="43.04044" lon="-0.48529">
        <ele>1460.860596</ele>
        <time>2014-09-11T12:23:17Z</time>
      </trkpt>
      <trkpt lat="43.04048" lon="-0.48561">
        <ele>1458.937988</ele>
        <time>2014-09-11T12:23:35Z</time>
      </trkpt>
      <trkpt lat="43.04053" lon="-0.48586">
        <ele>1455.573486</ele>
        <time>2014-09-11T12:23:51Z</time>
      </trkpt>
      <trkpt lat="43.04053" lon="-0.48588">
        <ele>1455.573486</ele>
        <time>2014-09-11T12:23:52Z</time>
      </trkpt>
      <trkpt lat="43.0406" lon="-0.48619">
        <ele>1454.612061</ele>
        <time>2014-09-11T12:24:11Z</time>
      </trkpt>
      <trkpt lat="43.04068" lon="-0.48648">
        <ele>1454.131592</ele>
        <time>2014-09-11T12:24:30Z</time>
      </trkpt>
      <trkpt lat="43.04083" lon="-0.48667">
        <ele>1452.20874</ele>
        <time>2014-09-11T12:24:46Z</time>
      </trkpt>
      <trkpt lat="43.0409" lon="-0.48674">
        <ele>1451.728027</ele>
        <time>2014-09-11T12:24:53Z</time>
      </trkpt>
      <trkpt lat="43.04104" lon="-0.48699">
        <ele>1450.286133</ele>
        <time>2014-09-11T12:25:12Z</time>
      </trkpt>
      <trkpt lat="43.04114" lon="-0.48709">
        <ele>1446.921387</ele>
        <time>2014-09-11T12:25:23Z</time>
      </trkpt>
      <trkpt lat="43.04124" lon="-0.48726">
        <ele>1444.037598</ele>
        <time>2014-09-11T12:25:38Z</time>
      </trkpt>
      <trkpt lat="43.04124" lon="-0.48708">
        <ele>1441.634277</ele>
        <time>2014-09-11T12:25:51Z</time>
      </trkpt>
      <trkpt lat="43.04121" lon="-0.48685">
        <ele>1439.230957</ele>
        <time>2014-09-11T12:26:08Z</time>
      </trkpt>
      <trkpt lat="43.04127" lon="-0.48658">
        <ele>1436.347168</ele>
        <time>2014-09-11T12:26:26Z</time>
      </trkpt>
      <trkpt lat="43.04126" lon="-0.48655">
        <ele>1436.347168</ele>
        <time>2014-09-11T12:26:44Z</time>
      </trkpt>
      <trkpt lat="43.04128" lon="-0.48654">
        <ele>1435.866211</ele>
        <time>2014-09-11T12:26:51Z</time>
      </trkpt>
      <trkpt lat="43.04136" lon="-0.48645">
        <ele>1434.424316</ele>
        <time>2014-09-11T12:27:05Z</time>
      </trkpt>
      <trkpt lat="43.04137" lon="-0.48651">
        <ele>1433.943604</ele>
        <time>2014-09-11T12:27:09Z</time>
      </trkpt>
      <trkpt lat="43.04133" lon="-0.48669">
        <ele>1432.982178</ele>
        <time>2014-09-11T12:27:24Z</time>
      </trkpt>
      <trkpt lat="43.04132" lon="-0.48668">
        <ele>1432.501709</ele>
        <time>2014-09-11T12:27:31Z</time>
      </trkpt>
      <trkpt lat="43.04133" lon="-0.48668">
        <ele>1432.982178</ele>
        <time>2014-09-11T12:28:06Z</time>
      </trkpt>
      <trkpt lat="43.04135" lon="-0.48679">
        <ele>1432.020996</ele>
        <time>2014-09-11T12:28:20Z</time>
      </trkpt>
      <trkpt lat="43.04141" lon="-0.48692">
        <ele>1430.579102</ele>
        <time>2014-09-11T12:28:34Z</time>
      </trkpt>
      <trkpt lat="43.04147" lon="-0.48703">
        <ele>1429.136963</ele>
        <time>2014-09-11T12:28:44Z</time>
      </trkpt>
      <trkpt lat="43.04152" lon="-0.48727">
        <ele>1426.253174</ele>
        <time>2014-09-11T12:29:03Z</time>
      </trkpt>
      <trkpt lat="43.0416" lon="-0.48734">
        <ele>1425.291748</ele>
        <time>2014-09-11T12:29:11Z</time>
      </trkpt>
      <trkpt lat="43.04173" lon="-0.4875">
        <ele>1422.407959</ele>
        <time>2014-09-11T12:29:28Z</time>
      </trkpt>
      <trkpt lat="43.04177" lon="-0.48759">
        <ele>1420.485352</ele>
        <time>2014-09-11T12:29:37Z</time>
      </trkpt>
      <trkpt lat="43.04183" lon="-0.48764">
        <ele>1419.523926</ele>
        <time>2014-09-11T12:29:43Z</time>
      </trkpt>
      <trkpt lat="43.04191" lon="-0.48765">
        <ele>1418.5625</ele>
        <time>2014-09-11T12:29:47Z</time>
      </trkpt>
      <trkpt lat="43.04205" lon="-0.48775">
        <ele>1416.639893</ele>
        <time>2014-09-11T12:29:58Z</time>
      </trkpt>
      <trkpt lat="43.04202" lon="-0.48766">
        <ele>1415.678711</ele>
        <time>2014-09-11T12:30:06Z</time>
      </trkpt>
      <trkpt lat="43.04193" lon="-0.4874">
        <ele>1412.794678</ele>
        <time>2014-09-11T12:30:24Z</time>
      </trkpt>
      <trkpt lat="43.04184" lon="-0.48714">
        <ele>1413.755859</ele>
        <time>2014-09-11T12:30:43Z</time>
      </trkpt>
      <trkpt lat="43.04176" lon="-0.48689">
        <ele>1413.275391</ele>
        <time>2014-09-11T12:30:59Z</time>
      </trkpt>
      <trkpt lat="43.0418" lon="-0.48677">
        <ele>1410.391357</ele>
        <time>2014-09-11T12:31:06Z</time>
      </trkpt>
      <trkpt lat="43.04187" lon="-0.48657">
        <ele>1408.949463</ele>
        <time>2014-09-11T12:31:17Z</time>
      </trkpt>
      <trkpt lat="43.04189" lon="-0.48651">
        <ele>1408.949463</ele>
        <time>2014-09-11T12:31:21Z</time>
      </trkpt>
      <trkpt lat="43.0419" lon="-0.48648">
        <ele>1408.949463</ele>
        <time>2014-09-11T12:31:23Z</time>
      </trkpt>
      <trkpt lat="43.0419" lon="-0.48635">
        <ele>1409.910645</ele>
        <time>2014-09-11T12:31:31Z</time>
      </trkpt>
      <trkpt lat="43.04195" lon="-0.48611">
        <ele>1405.584961</ele>
        <time>2014-09-11T12:31:48Z</time>
      </trkpt>
      <trkpt lat="43.04203" lon="-0.48609">
        <ele>1402.700684</ele>
        <time>2014-09-11T12:32:04Z</time>
      </trkpt>
      <trkpt lat="43.04198" lon="-0.48619">
        <ele>1401.739502</ele>
        <time>2014-09-11T12:32:13Z</time>
      </trkpt>
      <trkpt lat="43.04195" lon="-0.48623">
        <ele>1400.778076</ele>
        <time>2014-09-11T12:32:17Z</time>
      </trkpt>
      <trkpt lat="43.04192" lon="-0.48648">
        <ele>1398.374756</ele>
        <time>2014-09-11T12:32:31Z</time>
      </trkpt>
      <trkpt lat="43.04193" lon="-0.48664">
        <ele>1397.413574</ele>
        <time>2014-09-11T12:32:41Z</time>
      </trkpt>
      <trkpt lat="43.04196" lon="-0.48671">
        <ele>1396.452393</ele>
        <time>2014-09-11T12:32:46Z</time>
      </trkpt>
      <trkpt lat="43.04212" lon="-0.48664">
        <ele>1394.529541</ele>
        <time>2014-09-11T12:32:59Z</time>
      </trkpt>
      <trkpt lat="43.04223" lon="-0.48641">
        <ele>1391.165039</ele>
        <time>2014-09-11T12:33:15Z</time>
      </trkpt>
      <trkpt lat="43.0423" lon="-0.48649">
        <ele>1389.242432</ele>
        <time>2014-09-11T12:33:28Z</time>
      </trkpt>
      <trkpt lat="43.0423" lon="-0.48656">
        <ele>1387.800293</ele>
        <time>2014-09-11T12:33:32Z</time>
      </trkpt>
      <trkpt lat="43.04229" lon="-0.48667">
        <ele>1387.31958</ele>
        <time>2014-09-11T12:33:42Z</time>
      </trkpt>
      <trkpt lat="43.04244" lon="-0.48678">
        <ele>1384.916504</ele>
        <time>2014-09-11T12:33:56Z</time>
      </trkpt>
      <trkpt lat="43.04252" lon="-0.48684">
        <ele>1382.993652</ele>
        <time>2014-09-11T12:34:09Z</time>
      </trkpt>
      <trkpt lat="43.04259" lon="-0.4869">
        <ele>1382.032471</ele>
        <time>2014-09-11T12:34:20Z</time>
      </trkpt>
      <trkpt lat="43.04264" lon="-0.48692">
        <ele>1381.551758</ele>
        <time>2014-09-11T12:34:25Z</time>
      </trkpt>
      <trkpt lat="43.04277" lon="-0.48688">
        <ele>1380.590576</ele>
        <time>2014-09-11T12:34:34Z</time>
      </trkpt>
      <trkpt lat="43.04302" lon="-0.48669">
        <ele>1377.226074</ele>
        <time>2014-09-11T12:34:53Z</time>
      </trkpt>
      <trkpt lat="43.04306" lon="-0.48653">
        <ele>1376.264648</ele>
        <time>2014-09-11T12:35:08Z</time>
      </trkpt>
      <trkpt lat="43.04312" lon="-0.48641">
        <ele>1374.342041</ele>
        <time>2014-09-11T12:35:18Z</time>
      </trkpt>
      <trkpt lat="43.04314" lon="-0.48628">
        <ele>1372.900146</ele>
        <time>2014-09-11T12:35:27Z</time>
      </trkpt>
      <trkpt lat="43.04316" lon="-0.48622">
        <ele>1372.900146</ele>
        <time>2014-09-11T12:35:32Z</time>
      </trkpt>
      <trkpt lat="43.04324" lon="-0.48605">
        <ele>1371.457764</ele>
        <time>2014-09-11T12:35:45Z</time>
      </trkpt>
      <trkpt lat="43.04331" lon="-0.48594">
        <ele>1370.496582</ele>
        <time>2014-09-11T12:35:54Z</time>
      </trkpt>
      <trkpt lat="43.04341" lon="-0.48584">
        <ele>1370.015869</ele>
        <time>2014-09-11T12:36:07Z</time>
      </trkpt>
      <trkpt lat="43.04348" lon="-0.4858">
        <ele>1370.015869</ele>
        <time>2014-09-11T12:36:13Z</time>
      </trkpt>
      <trkpt lat="43.04354" lon="-0.48583">
        <ele>1370.015869</ele>
        <time>2014-09-11T12:36:19Z</time>
      </trkpt>
      <trkpt lat="43.04359" lon="-0.48591">
        <ele>1370.015869</ele>
        <time>2014-09-11T12:36:26Z</time>
      </trkpt>
      <trkpt lat="43.04359" lon="-0.486">
        <ele>1368.573975</ele>
        <time>2014-09-11T12:36:33Z</time>
      </trkpt>
      <trkpt lat="43.04358" lon="-0.48602">
        <ele>1368.573975</ele>
        <time>2014-09-11T12:36:35Z</time>
      </trkpt>
      <trkpt lat="43.04356" lon="-0.48611">
        <ele>1366.651367</ele>
        <time>2014-09-11T12:36:41Z</time>
      </trkpt>
      <trkpt lat="43.04354" lon="-0.48616">
        <ele>1366.651367</ele>
        <time>2014-09-11T12:36:45Z</time>
      </trkpt>
      <trkpt lat="43.04353" lon="-0.48636">
        <ele>1365.209473</ele>
        <time>2014-09-11T12:36:58Z</time>
      </trkpt>
      <trkpt lat="43.0435" lon="-0.48654">
        <ele>1364.248047</ele>
        <time>2014-09-11T12:37:13Z</time>
      </trkpt>
      <trkpt lat="43.04357" lon="-0.48648">
        <ele>1363.767334</ele>
        <time>2014-09-11T12:37:58Z</time>
      </trkpt>
      <trkpt lat="43.04357" lon="-0.48658">
        <ele>1362.806152</ele>
        <time>2014-09-11T12:38:20Z</time>
      </trkpt>
      <trkpt lat="43.04358" lon="-0.48682">
        <ele>1361.364258</ele>
        <time>2014-09-11T12:38:37Z</time>
      </trkpt>
      <trkpt lat="43.04365" lon="-0.487">
        <ele>1359.44165</ele>
        <time>2014-09-11T12:38:52Z</time>
      </trkpt>
      <trkpt lat="43.04376" lon="-0.48703">
        <ele>1357.999756</ele>
        <time>2014-09-11T12:39:14Z</time>
      </trkpt>
      <trkpt lat="43.04382" lon="-0.48706">
        <ele>1358.480225</ele>
        <time>2014-09-11T12:39:33Z</time>
      </trkpt>
      <trkpt lat="43.0438" lon="-0.48719">
        <ele>1357.519043</ele>
        <time>2014-09-11T12:39:54Z</time>
      </trkpt>
      <trkpt lat="43.04387" lon="-0.48729">
        <ele>1355.596191</ele>
        <time>2014-09-11T12:40:06Z</time>
      </trkpt>
      <trkpt lat="43.04392" lon="-0.48737">
        <ele>1354.634766</ele>
        <time>2014-09-11T12:40:15Z</time>
      </trkpt>
      <trkpt lat="43.04407" lon="-0.48751">
        <ele>1352.231445</ele>
        <time>2014-09-11T12:40:32Z</time>
      </trkpt>
      <trkpt lat="43.04415" lon="-0.48772">
        <ele>1349.828369</ele>
        <time>2014-09-11T12:40:49Z</time>
      </trkpt>
      <trkpt lat="43.04418" lon="-0.48775">
        <ele>1348.866943</ele>
        <time>2014-09-11T12:40:52Z</time>
      </trkpt>
      <trkpt lat="43.04426" lon="-0.48775">
        <ele>1347.425049</ele>
        <time>2014-09-11T12:41:00Z</time>
      </trkpt>
      <trkpt lat="43.04428" lon="-0.48774">
        <ele>1347.905762</ele>
        <time>2014-09-11T12:41:02Z</time>
      </trkpt>
      <trkpt lat="43.04431" lon="-0.48764">
        <ele>1345.983154</ele>
        <time>2014-09-11T12:41:11Z</time>
      </trkpt>
      <trkpt lat="43.04441" lon="-0.48732">
        <ele>1344.060547</ele>
        <time>2014-09-11T12:41:33Z</time>
      </trkpt>
      <trkpt lat="43.04445" lon="-0.48704">
        <ele>1340.695801</ele>
        <time>2014-09-11T12:41:51Z</time>
      </trkpt>
      <trkpt lat="43.0445" lon="-0.48675">
        <ele>1337.811768</ele>
        <time>2014-09-11T12:42:10Z</time>
      </trkpt>
      <trkpt lat="43.04449" lon="-0.48645">
        <ele>1334.927979</ele>
        <time>2014-09-11T12:42:29Z</time>
      </trkpt>
      <trkpt lat="43.04443" lon="-0.48619">
        <ele>1332.043945</ele>
        <time>2014-09-11T12:42:47Z</time>
      </trkpt>
      <trkpt lat="43.04454" lon="-0.48595">
        <ele>1330.121338</ele>
        <time>2014-09-11T12:43:06Z</time>
      </trkpt>
      <trkpt lat="43.04463" lon="-0.48563">
        <ele>1329.640625</ele>
        <time>2014-09-11T12:43:28Z</time>
      </trkpt>
      <trkpt lat="43.04471" lon="-0.48529">
        <ele>1327.718018</ele>
        <time>2014-09-11T12:43:49Z</time>
      </trkpt>
      <trkpt lat="43.04471" lon="-0.48527">
        <ele>1327.718018</ele>
        <time>2014-09-11T12:43:50Z</time>
      </trkpt>
      <trkpt lat="43.04482" lon="-0.48489">
        <ele>1325.314697</ele>
        <time>2014-09-11T12:44:14Z</time>
      </trkpt>
      <trkpt lat="43.04482" lon="-0.48469">
        <ele>1322.430664</ele>
        <time>2014-09-11T12:44:28Z</time>
      </trkpt>
      <trkpt lat="43.0448" lon="-0.48426">
        <ele>1320.027344</ele>
        <time>2014-09-11T12:44:54Z</time>
      </trkpt>
      <trkpt lat="43.04481" lon="-0.48389">
        <ele>1318.104736</ele>
        <time>2014-09-11T12:45:15Z</time>
      </trkpt>
      <trkpt lat="43.04485" lon="-0.48367">
        <ele>1315.220947</ele>
        <time>2014-09-11T12:45:29Z</time>
      </trkpt>
      <trkpt lat="43.04498" lon="-0.4833">
        <ele>1312.817627</ele>
        <time>2014-09-11T12:45:52Z</time>
      </trkpt>
      <trkpt lat="43.04504" lon="-0.48305">
        <ele>1309.933594</ele>
        <time>2014-09-11T12:46:08Z</time>
      </trkpt>
      <trkpt lat="43.04509" lon="-0.48278">
        <ele>1306.568848</ele>
        <time>2014-09-11T12:46:27Z</time>
      </trkpt>
      <trkpt lat="43.04495" lon="-0.48257">
        <ele>1303.685059</ele>
        <time>2014-09-11T12:46:46Z</time>
      </trkpt>
      <trkpt lat="43.04494" lon="-0.48257">
        <ele>1303.685059</ele>
        <time>2014-09-11T12:46:47Z</time>
      </trkpt>
      <trkpt lat="43.04491" lon="-0.48254">
        <ele>1302.723633</ele>
        <time>2014-09-11T12:46:51Z</time>
      </trkpt>
      <trkpt lat="43.0449" lon="-0.48243">
        <ele>1302.24292</ele>
        <time>2014-09-11T12:46:58Z</time>
      </trkpt>
      <trkpt lat="43.0449" lon="-0.48238">
        <ele>1301.281738</ele>
        <time>2014-09-11T12:47:01Z</time>
      </trkpt>
      <trkpt lat="43.04491" lon="-0.48231">
        <ele>1300.320557</ele>
        <time>2014-09-11T12:47:05Z</time>
      </trkpt>
      <trkpt lat="43.04487" lon="-0.48207">
        <ele>1297.917236</ele>
        <time>2014-09-11T12:47:20Z</time>
      </trkpt>
      <trkpt lat="43.04492" lon="-0.48181">
        <ele>1295.513916</ele>
        <time>2014-09-11T12:47:38Z</time>
      </trkpt>
      <trkpt lat="43.04492" lon="-0.48178">
        <ele>1295.513916</ele>
        <time>2014-09-11T12:47:46Z</time>
      </trkpt>
      <trkpt lat="43.04487" lon="-0.48174">
        <ele>1292.149414</ele>
        <time>2014-09-11T12:47:53Z</time>
      </trkpt>
      <trkpt lat="43.04486" lon="-0.4817">
        <ele>1291.668457</ele>
        <time>2014-09-11T12:47:57Z</time>
      </trkpt>
      <trkpt lat="43.04488" lon="-0.48155">
        <ele>1290.226563</ele>
        <time>2014-09-11T12:48:08Z</time>
      </trkpt>
      <trkpt lat="43.04488" lon="-0.48153">
        <ele>1290.226563</ele>
        <time>2014-09-11T12:48:10Z</time>
      </trkpt>
      <trkpt lat="43.04489" lon="-0.48144">
        <ele>1289.265137</ele>
        <time>2014-09-11T12:48:24Z</time>
      </trkpt>
      <trkpt lat="43.04489" lon="-0.48144">
        <ele>1289.265137</ele>
        <time>2014-09-11T12:48:26Z</time>
      </trkpt>
      <trkpt lat="43.04486" lon="-0.48122">
        <ele>1285.900635</ele>
        <time>2014-09-11T12:48:41Z</time>
      </trkpt>
      <trkpt lat="43.04486" lon="-0.48121">
        <ele>1286.381348</ele>
        <time>2014-09-11T12:48:42Z</time>
      </trkpt>
      <trkpt lat="43.04484" lon="-0.48111">
        <ele>1283.978027</ele>
        <time>2014-09-11T12:48:48Z</time>
      </trkpt>
      <trkpt lat="43.04485" lon="-0.48106">
        <ele>1283.016602</ele>
        <time>2014-09-11T12:48:53Z</time>
      </trkpt>
      <trkpt lat="43.04483" lon="-0.48096">
        <ele>1279.6521</ele>
        <time>2014-09-11T12:49:06Z</time>
      </trkpt>
      <trkpt lat="43.04481" lon="-0.48093">
        <ele>1278.210205</ele>
        <time>2014-09-11T12:49:09Z</time>
      </trkpt>
      <trkpt lat="43.04472" lon="-0.48089">
        <ele>1278.210205</ele>
        <time>2014-09-11T12:49:18Z</time>
      </trkpt>
      <trkpt lat="43.04461" lon="-0.48095">
        <ele>1275.806641</ele>
        <time>2014-09-11T12:49:36Z</time>
      </trkpt>
      <trkpt lat="43.0444" lon="-0.48113">
        <ele>1273.403564</ele>
        <time>2014-09-11T12:49:58Z</time>
      </trkpt>
      <trkpt lat="43.0442" lon="-0.48129">
        <ele>1269.55835</ele>
        <time>2014-09-11T12:50:17Z</time>
      </trkpt>
      <trkpt lat="43.04408" lon="-0.48137">
        <ele>1268.116211</ele>
        <time>2014-09-11T12:50:29Z</time>
      </trkpt>
      <trkpt lat="43.04408" lon="-0.48126">
        <ele>1264.751709</ele>
        <time>2014-09-11T12:50:42Z</time>
      </trkpt>
      <trkpt lat="43.0441" lon="-0.48121">
        <ele>1263.790283</ele>
        <time>2014-09-11T12:50:47Z</time>
      </trkpt>
      <trkpt lat="43.04415" lon="-0.481">
        <ele>1260.906494</ele>
        <time>2014-09-11T12:51:06Z</time>
      </trkpt>
      <trkpt lat="43.04419" lon="-0.48089">
        <ele>1259.464355</ele>
        <time>2014-09-11T12:51:16Z</time>
      </trkpt>
      <trkpt lat="43.04429" lon="-0.4807">
        <ele>1256.099609</ele>
        <time>2014-09-11T12:51:35Z</time>
      </trkpt>
      <trkpt lat="43.04438" lon="-0.48054">
        <ele>1253.21582</ele>
        <time>2014-09-11T12:51:50Z</time>
      </trkpt>
      <trkpt lat="43.0444" lon="-0.48047">
        <ele>1251.293213</ele>
        <time>2014-09-11T12:51:55Z</time>
      </trkpt>
      <trkpt lat="43.04445" lon="-0.48031">
        <ele>1248.40918</ele>
        <time>2014-09-11T12:52:06Z</time>
      </trkpt>
      <trkpt lat="43.04454" lon="-0.48">
        <ele>1246.486816</ele>
        <time>2014-09-11T12:52:26Z</time>
      </trkpt>
      <trkpt lat="43.04451" lon="-0.47957">
        <ele>1244.083496</ele>
        <time>2014-09-11T12:52:50Z</time>
      </trkpt>
      <trkpt lat="43.0445" lon="-0.47938">
        <ele>1243.602539</ele>
        <time>2014-09-11T12:53:08Z</time>
      </trkpt>
      <trkpt lat="43.04443" lon="-0.47912">
        <ele>1242.160645</ele>
        <time>2014-09-11T12:53:24Z</time>
      </trkpt>
      <trkpt lat="43.04438" lon="-0.47906">
        <ele>1241.199219</ele>
        <time>2014-09-11T12:53:30Z</time>
      </trkpt>
      <trkpt lat="43.04435" lon="-0.47906">
        <ele>1240.718506</ele>
        <time>2014-09-11T12:53:33Z</time>
      </trkpt>
      <trkpt lat="43.04427" lon="-0.47887">
        <ele>1237.834717</ele>
        <time>2014-09-11T12:53:49Z</time>
      </trkpt>
      <trkpt lat="43.04425" lon="-0.47861">
        <ele>1234.950928</ele>
        <time>2014-09-11T12:54:05Z</time>
      </trkpt>
      <trkpt lat="43.04421" lon="-0.47831">
        <ele>1232.066895</ele>
        <time>2014-09-11T12:54:23Z</time>
      </trkpt>
      <trkpt lat="43.04418" lon="-0.47801">
        <ele>1229.182861</ele>
        <time>2014-09-11T12:54:42Z</time>
      </trkpt>
      <trkpt lat="43.04414" lon="-0.47782">
        <ele>1227.260254</ele>
        <time>2014-09-11T12:54:56Z</time>
      </trkpt>
      <trkpt lat="43.04414" lon="-0.47775">
        <ele>1226.298828</ele>
        <time>2014-09-11T12:55:01Z</time>
      </trkpt>
      <trkpt lat="43.04412" lon="-0.4776">
        <ele>1222.934326</ele>
        <time>2014-09-11T12:55:14Z</time>
      </trkpt>
      <trkpt lat="43.0441" lon="-0.47748">
        <ele>1221.011719</ele>
        <time>2014-09-11T12:55:29Z</time>
      </trkpt>
      <trkpt lat="43.04408" lon="-0.4773">
        <ele>1217.646973</ele>
        <time>2014-09-11T12:55:42Z</time>
      </trkpt>
      <trkpt lat="43.04405" lon="-0.47696">
        <ele>1215.243896</ele>
        <time>2014-09-11T12:56:05Z</time>
      </trkpt>
      <trkpt lat="43.044" lon="-0.47677">
        <ele>1212.359863</ele>
        <time>2014-09-11T12:56:21Z</time>
      </trkpt>
      <trkpt lat="43.044" lon="-0.47657">
        <ele>1208.995117</ele>
        <time>2014-09-11T12:56:34Z</time>
      </trkpt>
      <trkpt lat="43.044" lon="-0.47655">
        <ele>1209.47583</ele>
        <time>2014-09-11T12:56:35Z</time>
      </trkpt>
      <trkpt lat="43.04403" lon="-0.4763">
        <ele>1207.07251</ele>
        <time>2014-09-11T12:56:53Z</time>
      </trkpt>
      <trkpt lat="43.04397" lon="-0.47609">
        <ele>1204.188721</ele>
        <time>2014-09-11T12:57:11Z</time>
      </trkpt>
      <trkpt lat="43.0439" lon="-0.47595">
        <ele>1200.823975</ele>
        <time>2014-09-11T12:57:24Z</time>
      </trkpt>
      <trkpt lat="43.04388" lon="-0.47591">
        <ele>1200.343506</ele>
        <time>2014-09-11T12:57:27Z</time>
      </trkpt>
      <trkpt lat="43.04389" lon="-0.47563">
        <ele>1198.901367</ele>
        <time>2014-09-11T12:57:47Z</time>
      </trkpt>
      <trkpt lat="43.04388" lon="-0.47548">
        <ele>1195.055908</ele>
        <time>2014-09-11T12:58:01Z</time>
      </trkpt>
      <trkpt lat="43.04388" lon="-0.47532">
        <ele>1192.172119</ele>
        <time>2014-09-11T12:58:15Z</time>
      </trkpt>
      <trkpt lat="43.04386" lon="-0.4752">
        <ele>1188.807617</ele>
        <time>2014-09-11T12:58:29Z</time>
      </trkpt>
      <trkpt lat="43.04381" lon="-0.47511">
        <ele>1185.923584</ele>
        <time>2014-09-11T12:58:47Z</time>
      </trkpt>
      <trkpt lat="43.04384" lon="-0.47511">
        <ele>1184.481689</ele>
        <time>2014-09-11T12:59:04Z</time>
      </trkpt>
      <trkpt lat="43.04388" lon="-0.47507">
        <ele>1181.597656</ele>
        <time>2014-09-11T12:59:21Z</time>
      </trkpt>
      <trkpt lat="43.04387" lon="-0.475">
        <ele>1178.713623</ele>
        <time>2014-09-11T12:59:37Z</time>
      </trkpt>
      <trkpt lat="43.04387" lon="-0.47493">
        <ele>1175.82959</ele>
        <time>2014-09-11T12:59:49Z</time>
      </trkpt>
      <trkpt lat="43.04382" lon="-0.47483">
        <ele>1172.465088</ele>
        <time>2014-09-11T13:00:05Z</time>
      </trkpt>
      <trkpt lat="43.04377" lon="-0.47476">
        <ele>1170.54248</ele>
        <time>2014-09-11T13:00:21Z</time>
      </trkpt>
      <trkpt lat="43.04376" lon="-0.47473">
        <ele>1168.619873</ele>
        <time>2014-09-11T13:00:25Z</time>
      </trkpt>
      <trkpt lat="43.04372" lon="-0.47459">
        <ele>1165.736084</ele>
        <time>2014-09-11T13:00:42Z</time>
      </trkpt>
      <trkpt lat="43.04368" lon="-0.47445">
        <ele>1162.371094</ele>
        <time>2014-09-11T13:00:59Z</time>
      </trkpt>
      <trkpt lat="43.04373" lon="-0.47444">
        <ele>1160.448486</ele>
        <time>2014-09-11T13:01:10Z</time>
      </trkpt>
      <trkpt lat="43.04375" lon="-0.47425">
        <ele>1159.006592</ele>
        <time>2014-09-11T13:01:25Z</time>
      </trkpt>
      <trkpt lat="43.04375" lon="-0.47423">
        <ele>1159.006592</ele>
        <time>2014-09-11T13:01:26Z</time>
      </trkpt>
      <trkpt lat="43.04378" lon="-0.47419">
        <ele>1158.04541</ele>
        <time>2014-09-11T13:01:31Z</time>
      </trkpt>
      <trkpt lat="43.04384" lon="-0.47412">
        <ele>1156.603271</ele>
        <time>2014-09-11T13:01:48Z</time>
      </trkpt>
      <trkpt lat="43.04388" lon="-0.47403">
        <ele>1153.23877</ele>
        <time>2014-09-11T13:02:02Z</time>
      </trkpt>
      <trkpt lat="43.04386" lon="-0.47388">
        <ele>1149.874268</ele>
        <time>2014-09-11T13:02:18Z</time>
      </trkpt>
      <trkpt lat="43.04382" lon="-0.47377">
        <ele>1146.98999</ele>
        <time>2014-09-11T13:02:29Z</time>
      </trkpt>
      <trkpt lat="43.04383" lon="-0.47372">
        <ele>1146.509521</ele>
        <time>2014-09-11T13:02:34Z</time>
      </trkpt>
      <trkpt lat="43.04387" lon="-0.47357">
        <ele>1143.625488</ele>
        <time>2014-09-11T13:02:46Z</time>
      </trkpt>
      <trkpt lat="43.04388" lon="-0.47356">
        <ele>1143.625488</ele>
        <time>2014-09-11T13:02:47Z</time>
      </trkpt>
      <trkpt lat="43.04396" lon="-0.47347">
        <ele>1141.222168</ele>
        <time>2014-09-11T13:03:00Z</time>
      </trkpt>
      <trkpt lat="43.04407" lon="-0.47331">
        <ele>1137.857666</ele>
        <time>2014-09-11T13:03:18Z</time>
      </trkpt>
      <trkpt lat="43.04414" lon="-0.4732">
        <ele>1135.935059</ele>
        <time>2014-09-11T13:03:30Z</time>
      </trkpt>
      <trkpt lat="43.04433" lon="-0.47312">
        <ele>1137.376953</ele>
        <time>2014-09-11T13:03:50Z</time>
      </trkpt>
      <trkpt lat="43.0444" lon="-0.47302">
        <ele>1136.89624</ele>
        <time>2014-09-11T13:03:59Z</time>
      </trkpt>
      <trkpt lat="43.04441" lon="-0.47299">
        <ele>1136.415771</ele>
        <time>2014-09-11T13:04:01Z</time>
      </trkpt>
      <trkpt lat="43.04458" lon="-0.47271">
        <ele>1134.973877</ele>
        <time>2014-09-11T13:04:21Z</time>
      </trkpt>
      <trkpt lat="43.04473" lon="-0.47244">
        <ele>1132.089844</ele>
        <time>2014-09-11T13:04:39Z</time>
      </trkpt>
      <trkpt lat="43.045" lon="-0.47224">
        <ele>1129.686279</ele>
        <time>2014-09-11T13:05:00Z</time>
      </trkpt>
      <trkpt lat="43.04511" lon="-0.47194">
        <ele>1127.763672</ele>
        <time>2014-09-11T13:05:20Z</time>
      </trkpt>
      <trkpt lat="43.045" lon="-0.47168">
        <ele>1127.283203</ele>
        <time>2014-09-11T13:05:38Z</time>
      </trkpt>
      <trkpt lat="43.04479" lon="-0.47144">
        <ele>1124.879883</ele>
        <time>2014-09-11T13:05:58Z</time>
      </trkpt>
      <trkpt lat="43.04468" lon="-0.47111">
        <ele>1121.515137</ele>
        <time>2014-09-11T13:06:19Z</time>
      </trkpt>
      <trkpt lat="43.04467" lon="-0.47109">
        <ele>1121.515137</ele>
        <time>2014-09-11T13:06:20Z</time>
      </trkpt>
      <trkpt lat="43.04471" lon="-0.47067">
        <ele>1119.592773</ele>
        <time>2014-09-11T13:06:44Z</time>
      </trkpt>
      <trkpt lat="43.04489" lon="-0.47031">
        <ele>1117.669922</ele>
        <time>2014-09-11T13:07:08Z</time>
      </trkpt>
      <trkpt lat="43.04498" lon="-0.46986">
        <ele>1116.228027</ele>
        <time>2014-09-11T13:07:33Z</time>
      </trkpt>
      <trkpt lat="43.045" lon="-0.46943">
        <ele>1112.863281</ele>
        <time>2014-09-11T13:07:57Z</time>
      </trkpt>
      <trkpt lat="43.0452" lon="-0.46912">
        <ele>1110.940674</ele>
        <time>2014-09-11T13:08:20Z</time>
      </trkpt>
      <trkpt lat="43.04525" lon="-0.46905">
        <ele>1109.979248</ele>
        <time>2014-09-11T13:08:26Z</time>
      </trkpt>
      <trkpt lat="43.04535" lon="-0.46871">
        <ele>1108.537354</ele>
        <time>2014-09-11T13:08:46Z</time>
      </trkpt>
      <trkpt lat="43.0454" lon="-0.46838">
        <ele>1105.172852</ele>
        <time>2014-09-11T13:09:04Z</time>
      </trkpt>
      <trkpt lat="43.04549" lon="-0.468">
        <ele>1103.250244</ele>
        <time>2014-09-11T13:09:27Z</time>
      </trkpt>
      <trkpt lat="43.04567" lon="-0.46784">
        <ele>1101.80835</ele>
        <time>2014-09-11T13:09:48Z</time>
      </trkpt>
      <trkpt lat="43.04575" lon="-0.46782">
        <ele>1098.443359</ele>
        <time>2014-09-11T13:09:58Z</time>
      </trkpt>
      <trkpt lat="43.04584" lon="-0.4678">
        <ele>1095.55957</ele>
        <time>2014-09-11T13:10:15Z</time>
      </trkpt>
      <trkpt lat="43.04595" lon="-0.4678">
        <ele>1093.636963</ele>
        <time>2014-09-11T13:10:28Z</time>
      </trkpt>
      <trkpt lat="43.04605" lon="-0.46775">
        <ele>1090.272461</ele>
        <time>2014-09-11T13:10:40Z</time>
      </trkpt>
      <trkpt lat="43.0462" lon="-0.46762">
        <ele>1088.830566</ele>
        <time>2014-09-11T13:10:56Z</time>
      </trkpt>
      <trkpt lat="43.04631" lon="-0.46752">
        <ele>1088.830566</ele>
        <time>2014-09-11T13:11:06Z</time>
      </trkpt>
      <trkpt lat="43.04645" lon="-0.46741">
        <ele>1088.349854</ele>
        <time>2014-09-11T13:11:21Z</time>
      </trkpt>
      <trkpt lat="43.04656" lon="-0.46742">
        <ele>1085.946533</ele>
        <time>2014-09-11T13:11:32Z</time>
      </trkpt>
      <trkpt lat="43.04675" lon="-0.46749">
        <ele>1083.542969</ele>
        <time>2014-09-11T13:11:51Z</time>
      </trkpt>
      <trkpt lat="43.04682" lon="-0.46748">
        <ele>1080.178467</ele>
        <time>2014-09-11T13:12:01Z</time>
      </trkpt>
      <trkpt lat="43.04695" lon="-0.46753">
        <ele>1079.217041</ele>
        <time>2014-09-11T13:12:19Z</time>
      </trkpt>
      <trkpt lat="43.04709" lon="-0.46759">
        <ele>1075.852539</ele>
        <time>2014-09-11T13:12:36Z</time>
      </trkpt>
      <trkpt lat="43.0472" lon="-0.46764">
        <ele>1072.96875</ele>
        <time>2014-09-11T13:12:51Z</time>
      </trkpt>
      <trkpt lat="43.04729" lon="-0.46774">
        <ele>1070.084717</ele>
        <time>2014-09-11T13:13:06Z</time>
      </trkpt>
      <trkpt lat="43.04735" lon="-0.46775">
        <ele>1068.642822</ele>
        <time>2014-09-11T13:13:22Z</time>
      </trkpt>
      <trkpt lat="43.04743" lon="-0.46778">
        <ele>1066.719971</ele>
        <time>2014-09-11T13:13:34Z</time>
      </trkpt>
      <trkpt lat="43.04746" lon="-0.46779">
        <ele>1064.31665</ele>
        <time>2014-09-11T13:13:39Z</time>
      </trkpt>
      <trkpt lat="43.0476" lon="-0.46784">
        <ele>1061.913574</ele>
        <time>2014-09-11T13:13:56Z</time>
      </trkpt>
      <trkpt lat="43.0477" lon="-0.46788">
        <ele>1060.471436</ele>
        <time>2014-09-11T13:14:06Z</time>
      </trkpt>
      <trkpt lat="43.04784" lon="-0.46787">
        <ele>1058.548828</ele>
        <time>2014-09-11T13:14:18Z</time>
      </trkpt>
      <trkpt lat="43.04792" lon="-0.46785">
        <ele>1057.587646</ele>
        <time>2014-09-11T13:14:27Z</time>
      </trkpt>
      <trkpt lat="43.04813" lon="-0.46779">
        <ele>1055.184326</ele>
        <time>2014-09-11T13:14:45Z</time>
      </trkpt>
      <trkpt lat="43.04825" lon="-0.46777">
        <ele>1053.261719</ele>
        <time>2014-09-11T13:14:59Z</time>
      </trkpt>
      <trkpt lat="43.04843" lon="-0.46764">
        <ele>1050.858154</ele>
        <time>2014-09-11T13:15:15Z</time>
      </trkpt>
      <trkpt lat="43.04856" lon="-0.4676">
        <ele>1050.377686</ele>
        <time>2014-09-11T13:15:25Z</time>
      </trkpt>
      <trkpt lat="43.04862" lon="-0.46758">
        <ele>1049.896973</ele>
        <time>2014-09-11T13:15:30Z</time>
      </trkpt>
      <trkpt lat="43.04873" lon="-0.46747">
        <ele>1048.935547</ele>
        <time>2014-09-11T13:15:40Z</time>
      </trkpt>
      <trkpt lat="43.04882" lon="-0.46733">
        <ele>1045.571045</ele>
        <time>2014-09-11T13:15:52Z</time>
      </trkpt>
      <trkpt lat="43.04901" lon="-0.46715">
        <ele>1043.167725</ele>
        <time>2014-09-11T13:16:12Z</time>
      </trkpt>
      <trkpt lat="43.0492" lon="-0.46705">
        <ele>1042.206543</ele>
        <time>2014-09-11T13:16:31Z</time>
      </trkpt>
      <trkpt lat="43.04934" lon="-0.46695">
        <ele>1039.32251</ele>
        <time>2014-09-11T13:16:48Z</time>
      </trkpt>
      <trkpt lat="43.04946" lon="-0.46689">
        <ele>1038.842041</ele>
        <time>2014-09-11T13:17:00Z</time>
      </trkpt>
      <trkpt lat="43.04962" lon="-0.46684">
        <ele>1037.399902</ele>
        <time>2014-09-11T13:17:12Z</time>
      </trkpt>
      <trkpt lat="43.04977" lon="-0.46672">
        <ele>1035.957764</ele>
        <time>2014-09-11T13:17:25Z</time>
      </trkpt>
      <trkpt lat="43.04985" lon="-0.4666">
        <ele>1034.035156</ele>
        <time>2014-09-11T13:17:35Z</time>
      </trkpt>
      <trkpt lat="43.0499" lon="-0.46641">
        <ele>1031.151367</ele>
        <time>2014-09-11T13:17:52Z</time>
      </trkpt>
      <trkpt lat="43.0499" lon="-0.4664">
        <ele>1030.670654</ele>
        <time>2014-09-11T13:17:53Z</time>
      </trkpt>
      <trkpt lat="43.0499" lon="-0.46623">
        <ele>1027.306152</ele>
        <time>2014-09-11T13:18:07Z</time>
      </trkpt>
      <trkpt lat="43.04989" lon="-0.46605">
        <ele>1024.902832</ele>
        <time>2014-09-11T13:18:22Z</time>
      </trkpt>
      <trkpt lat="43.04993" lon="-0.46589">
        <ele>1022.499512</ele>
        <time>2014-09-11T13:18:38Z</time>
      </trkpt>
      <trkpt lat="43.04998" lon="-0.46581">
        <ele>1020.096191</ele>
        <time>2014-09-11T13:18:48Z</time>
      </trkpt>
      <trkpt lat="43.05005" lon="-0.46575">
        <ele>1019.615479</ele>
        <time>2014-09-11T13:18:54Z</time>
      </trkpt>
      <trkpt lat="43.05016" lon="-0.46559">
        <ele>1016.250732</ele>
        <time>2014-09-11T13:19:09Z</time>
      </trkpt>
      <trkpt lat="43.05017" lon="-0.46556">
        <ele>1016.250732</ele>
        <time>2014-09-11T13:19:11Z</time>
      </trkpt>
      <trkpt lat="43.05024" lon="-0.46537">
        <ele>1013.847412</ele>
        <time>2014-09-11T13:19:28Z</time>
      </trkpt>
      <trkpt lat="43.05026" lon="-0.46523">
        <ele>1011.444336</ele>
        <time>2014-09-11T13:19:40Z</time>
      </trkpt>
      <trkpt lat="43.05029" lon="-0.46504">
        <ele>1008.079834</ele>
        <time>2014-09-11T13:19:55Z</time>
      </trkpt>
      <trkpt lat="43.05033" lon="-0.46483">
        <ele>1005.195801</ele>
        <time>2014-09-11T13:20:10Z</time>
      </trkpt>
      <trkpt lat="43.05036" lon="-0.46466">
        <ele>1003.272949</ele>
        <time>2014-09-11T13:20:23Z</time>
      </trkpt>
      <trkpt lat="43.05039" lon="-0.46452">
        <ele>1000.38916</ele>
        <time>2014-09-11T13:20:37Z</time>
      </trkpt>
      <trkpt lat="43.05051" lon="-0.46455">
        <ele>997.024414</ele>
        <time>2014-09-11T13:20:52Z</time>
      </trkpt>
      <trkpt lat="43.05053" lon="-0.46455">
        <ele>997.024414</ele>
        <time>2014-09-11T13:20:54Z</time>
      </trkpt>
      <trkpt lat="43.05061" lon="-0.4646">
        <ele>993.179199</ele>
        <time>2014-09-11T13:21:05Z</time>
      </trkpt>
      <trkpt lat="43.05068" lon="-0.46467">
        <ele>991.737305</ele>
        <time>2014-09-11T13:21:18Z</time>
      </trkpt>
      <trkpt lat="43.05073" lon="-0.46476">
        <ele>988.853516</ele>
        <time>2014-09-11T13:21:30Z</time>
      </trkpt>
      <trkpt lat="43.05075" lon="-0.46483">
        <ele>985.008057</ele>
        <time>2014-09-11T13:21:48Z</time>
      </trkpt>
      <trkpt lat="43.05082" lon="-0.46489">
        <ele>984.046631</ele>
        <time>2014-09-11T13:22:05Z</time>
      </trkpt>
      <trkpt lat="43.05088" lon="-0.46493">
        <ele>980.682129</ele>
        <time>2014-09-11T13:22:16Z</time>
      </trkpt>
      <trkpt lat="43.05098" lon="-0.46498">
        <ele>979.23999</ele>
        <time>2014-09-11T13:22:34Z</time>
      </trkpt>
      <trkpt lat="43.05104" lon="-0.46502">
        <ele>978.278809</ele>
        <time>2014-09-11T13:22:51Z</time>
      </trkpt>
      <trkpt lat="43.05111" lon="-0.46506">
        <ele>975.394775</ele>
        <time>2014-09-11T13:23:07Z</time>
      </trkpt>
      <trkpt lat="43.05121" lon="-0.46508">
        <ele>972.030273</ele>
        <time>2014-09-11T13:23:19Z</time>
      </trkpt>
      <trkpt lat="43.05126" lon="-0.4651">
        <ele>970.588135</ele>
        <time>2014-09-11T13:23:28Z</time>
      </trkpt>
      <trkpt lat="43.05137" lon="-0.46501">
        <ele>967.704102</ele>
        <time>2014-09-11T13:23:40Z</time>
      </trkpt>
      <trkpt lat="43.05146" lon="-0.46498">
        <ele>965.781738</ele>
        <time>2014-09-11T13:23:55Z</time>
      </trkpt>
      <trkpt lat="43.05153" lon="-0.46502">
        <ele>963.378418</ele>
        <time>2014-09-11T13:24:12Z</time>
      </trkpt>
      <trkpt lat="43.05154" lon="-0.46503">
        <ele>962.416992</ele>
        <time>2014-09-11T13:24:30Z</time>
      </trkpt>
      <trkpt lat="43.05164" lon="-0.4651">
        <ele>959.533203</ele>
        <time>2014-09-11T13:24:47Z</time>
      </trkpt>
      <trkpt lat="43.05179" lon="-0.46514">
        <ele>957.129883</ele>
        <time>2014-09-11T13:25:04Z</time>
      </trkpt>
      <trkpt lat="43.05182" lon="-0.46514">
        <ele>956.168457</ele>
        <time>2014-09-11T13:25:07Z</time>
      </trkpt>
      <trkpt lat="43.05199" lon="-0.46518">
        <ele>952.803711</ele>
        <time>2014-09-11T13:25:24Z</time>
      </trkpt>
      <trkpt lat="43.05215" lon="-0.46521">
        <ele>949.439209</ele>
        <time>2014-09-11T13:25:41Z</time>
      </trkpt>
      <trkpt lat="43.05228" lon="-0.46526">
        <ele>948.958496</ele>
        <time>2014-09-11T13:25:56Z</time>
      </trkpt>
      <trkpt lat="43.05244" lon="-0.46532">
        <ele>946.55542</ele>
        <time>2014-09-11T13:26:12Z</time>
      </trkpt>
      <trkpt lat="43.05258" lon="-0.46532">
        <ele>945.113281</ele>
        <time>2014-09-11T13:26:29Z</time>
      </trkpt>
      <trkpt lat="43.05278" lon="-0.46534">
        <ele>941.748779</ele>
        <time>2014-09-11T13:26:46Z</time>
      </trkpt>
      <trkpt lat="43.05302" lon="-0.46538">
        <ele>939.825928</ele>
        <time>2014-09-11T13:27:07Z</time>
      </trkpt>
      <trkpt lat="43.05334" lon="-0.46543">
        <ele>938.864746</ele>
        <time>2014-09-11T13:27:32Z</time>
      </trkpt>
      <trkpt lat="43.05357" lon="-0.46548">
        <ele>936.941895</ele>
        <time>2014-09-11T13:27:51Z</time>
      </trkpt>
      <trkpt lat="43.05389" lon="-0.46551">
        <ele>935.5</ele>
        <time>2014-09-11T13:28:16Z</time>
      </trkpt>
      <trkpt lat="43.05411" lon="-0.46554">
        <ele>934.058105</ele>
        <time>2014-09-11T13:28:36Z</time>
      </trkpt>
      <trkpt lat="43.05412" lon="-0.46554">
        <ele>934.058105</ele>
        <time>2014-09-11T13:29:03Z</time>
      </trkpt>
      <trkpt lat="43.05419" lon="-0.46549">
        <ele>932.616211</ele>
        <time>2014-09-11T13:29:18Z</time>
      </trkpt>
      <trkpt lat="43.05425" lon="-0.46548">
        <ele>932.135498</ele>
        <time>2014-09-11T13:29:24Z</time>
      </trkpt>
      <trkpt lat="43.05447" lon="-0.46531">
        <ele>930.693604</ele>
        <time>2014-09-11T13:29:46Z</time>
      </trkpt>
      <trkpt lat="43.05469" lon="-0.46513">
        <ele>927.80957</ele>
        <time>2014-09-11T13:30:07Z</time>
      </trkpt>
      <trkpt lat="43.05492" lon="-0.46496">
        <ele>925.40625</ele>
        <time>2014-09-11T13:30:28Z</time>
      </trkpt>
      <trkpt lat="43.05523" lon="-0.46486">
        <ele>922.041504</ele>
        <time>2014-09-11T13:30:53Z</time>
      </trkpt>
      <trkpt lat="43.05552" lon="-0.46481">
        <ele>921.080322</ele>
        <time>2014-09-11T13:31:16Z</time>
      </trkpt>
      <trkpt lat="43.05575" lon="-0.46471">
        <ele>919.638428</ele>
        <time>2014-09-11T13:31:34Z</time>
      </trkpt>
      <trkpt lat="43.05599" lon="-0.46455">
        <ele>918.196289</ele>
        <time>2014-09-11T13:31:54Z</time>
      </trkpt>
      <trkpt lat="43.05622" lon="-0.46433">
        <ele>915.3125</ele>
        <time>2014-09-11T13:32:15Z</time>
      </trkpt>
      <trkpt lat="43.05641" lon="-0.46413">
        <ele>913.389893</ele>
        <time>2014-09-11T13:32:34Z</time>
      </trkpt>
      <trkpt lat="43.05667" lon="-0.46396">
        <ele>910.025146</ele>
        <time>2014-09-11T13:32:57Z</time>
      </trkpt>
      <trkpt lat="43.05682" lon="-0.46388">
        <ele>908.583252</ele>
        <time>2014-09-11T13:33:12Z</time>
      </trkpt>
      <trkpt lat="43.05705" lon="-0.4638">
        <ele>905.218506</ele>
        <time>2014-09-11T13:33:31Z</time>
      </trkpt>
      <trkpt lat="43.05725" lon="-0.46376">
        <ele>904.257324</ele>
        <time>2014-09-11T13:33:47Z</time>
      </trkpt>
      <trkpt lat="43.05743" lon="-0.46373">
        <ele>903.295898</ele>
        <time>2014-09-11T13:34:01Z</time>
      </trkpt>
      <trkpt lat="43.05768" lon="-0.46364">
        <ele>901.373291</ele>
        <time>2014-09-11T13:34:20Z</time>
      </trkpt>
      <trkpt lat="43.05791" lon="-0.46348">
        <ele>898.489258</ele>
        <time>2014-09-11T13:34:40Z</time>
      </trkpt>
      <trkpt lat="43.05799" lon="-0.46343">
        <ele>898.008789</ele>
        <time>2014-09-11T13:34:47Z</time>
      </trkpt>
      <trkpt lat="43.05818" lon="-0.46339">
        <ele>895.605469</ele>
        <time>2014-09-11T13:35:05Z</time>
      </trkpt>
      <trkpt lat="43.05835" lon="-0.4633">
        <ele>893.682861</ele>
        <time>2014-09-11T13:35:19Z</time>
      </trkpt>
      <trkpt lat="43.05855" lon="-0.46321">
        <ele>890.798584</ele>
        <time>2014-09-11T13:35:35Z</time>
      </trkpt>
      <trkpt lat="43.05872" lon="-0.46312">
        <ele>887.434082</ele>
        <time>2014-09-11T13:35:50Z</time>
      </trkpt>
      <trkpt lat="43.05884" lon="-0.46309">
        <ele>886.4729</ele>
        <time>2014-09-11T13:36:06Z</time>
      </trkpt>
      <trkpt lat="43.05884" lon="-0.46309">
        <ele>885.992188</ele>
        <time>2014-09-11T13:36:09Z</time>
      </trkpt>
    </trkseg>
  </trk>
</gpx>